Wetterdaten: Mittwoch, 13.12.2017
Datum Zeit Temp. A. Pool Temp. Feuchte A. Luftdruck Regen Wind Richtung Richtung Sonnenschein ET UV Solar Taupunkt Windchill Windben Empfang
13.12.2017 00:00 1,5 C 3,9 C 90 % 1018,3 hPa 0,0 l/m 10,0 km/h (2 Bft) W-SW 242 0 min 0,000 mm 0,0 UV-I 0 W/m 0,0 C -1,8 C 16,1 km/h (3 Bft) 93,62 %
13.12.2017 00:02 1,5 C 3,9 C 90 % 1018,4 hPa 0,0 l/m 9,2 km/h (2 Bft) S-SW 204 0 min 0,000 mm 0,0 UV-I 0 W/m 0,0 C -1,1 C 16,1 km/h (3 Bft) 92,50 %
13.12.2017 00:04 1,5 C 3,9 C 90 % 1018,3 hPa 0,0 l/m 9,0 km/h (2 Bft) W-SW 245 0 min 0,000 mm 0,0 UV-I 0 W/m 0,0 C -1,0 C 12,9 km/h (3 Bft) 95,74 %
13.12.2017 00:06 1,4 C 3,9 C 90 % 1018,4 hPa 0,0 l/m 7,6 km/h (2 Bft) W-SW 254 0 min 0,000 mm 0,0 UV-I 0 W/m -0,1 C 0,2 C 11,3 km/h (2 Bft) 100,00 %
13.12.2017 00:08 1,4 C 3,9 C 90 % 1018,4 hPa 0,0 l/m 8,8 km/h (2 Bft) SW 236 0 min 0,000 mm 0,0 UV-I 0 W/m -0,1 C -0,9 C 14,5 km/h (3 Bft) 97,87 %
13.12.2017 00:10 1,4 C 3,9 C 91 % 1018,3 hPa 0,0 l/m 7,7 km/h (2 Bft) SW 236 0 min 0,000 mm 0,0 UV-I 0 W/m 0,1 C 0,1 C 12,9 km/h (3 Bft) 97,87 %
13.12.2017 00:12 1,4 C 3,9 C 91 % 1018,3 hPa 0,0 l/m 8,2 km/h (2 Bft) W-SW 239 0 min 0,000 mm 0,0 UV-I 0 W/m 0,1 C -0,4 C 14,5 km/h (3 Bft) 100,00 %
13.12.2017 00:14 1,4 C 3,9 C 91 % 1018,3 hPa 0,0 l/m 6,7 km/h (2 Bft) S-SW 208 0 min 0,000 mm 0,0 UV-I 0 W/m 0,1 C 1,1 C 9,7 km/h (2 Bft) 100,00 %
13.12.2017 00:16 1,3 C 3,9 C 91 % 1018,3 hPa 0,0 l/m 8,3 km/h (2 Bft) SW 222 0 min 0,000 mm 0,0 UV-I 0 W/m -0,0 C -0,6 C 14,5 km/h (3 Bft) 100,00 %
13.12.2017 00:18 1,3 C 3,9 C 91 % 1018,3 hPa 0,0 l/m 6,9 km/h (2 Bft) W-SW 245 0 min 0,000 mm 0,0 UV-I 0 W/m -0,0 C 0,8 C 9,7 km/h (2 Bft) 100,00 %
13.12.2017 00:20 1,3 C 3,9 C 91 % 1018,3 hPa 0,0 l/m 7,1 km/h (2 Bft) SW 232 0 min 0,000 mm 0,0 UV-I 0 W/m -0,0 C 0,6 C 11,3 km/h (2 Bft) 100,00 %
13.12.2017 00:22 1,3 C 3,9 C 91 % 1018,3 hPa 0,0 l/m 6,2 km/h (2 Bft) W-SW 237 0 min 0,000 mm 0,0 UV-I 0 W/m -0,0 C 1,3 C 11,3 km/h (2 Bft) 97,87 %
13.12.2017 00:24 1,3 C 3,9 C 91 % 1018,3 hPa 0,0 l/m 6,8 km/h (2 Bft) SW 217 0 min 0,000 mm 0,0 UV-I 0 W/m -0,0 C 0,9 C 9,7 km/h (2 Bft) 100,00 %
13.12.2017 00:26 1,3 C 3,9 C 91 % 1018,3 hPa 0,0 l/m 7,5 km/h (2 Bft) W 259 0 min 0,000 mm 0,0 UV-I 0 W/m -0,0 C 0,2 C 11,3 km/h (2 Bft) 97,87 %
13.12.2017 00:28 1,3 C 3,9 C 91 % 1018,3 hPa 0,0 l/m 7,1 km/h (2 Bft) W-SW 246 0 min 0,000 mm 0,0 UV-I 0 W/m -0,0 C 0,6 C 9,7 km/h (2 Bft) 96,00 %
13.12.2017 00:30 1,3 C 3,9 C 91 % 1018,3 hPa 0,0 l/m 7,8 km/h (2 Bft) SW 234 0 min 0,000 mm 0,0 UV-I 0 W/m -0,0 C -0,1 C 12,9 km/h (3 Bft) 97,92 %
13.12.2017 00:32 1,4 C 3,9 C 90 % 1018,3 hPa 0,0 l/m 6,7 km/h (2 Bft) W-SW 251 0 min 0,000 mm 0,0 UV-I 0 W/m -0,1 C 1,1 C 11,3 km/h (2 Bft) 93,62 %
13.12.2017 00:34 1,4 C 3,9 C 90 % 1018,3 hPa 0,0 l/m 6,7 km/h (2 Bft) SW 232 0 min 0,000 mm 0,0 UV-I 0 W/m -0,1 C 1,1 C 11,3 km/h (2 Bft) 98,00 %
13.12.2017 00:36 1,4 C 3,9 C 90 % 1018,3 hPa 0,0 l/m 6,3 km/h (2 Bft) W-SW 240 0 min 0,000 mm 0,0 UV-I 0 W/m -0,1 C 1,4 C 11,3 km/h (2 Bft) 97,87 %
13.12.2017 00:38 1,4 C 3,9 C 90 % 1018,2 hPa 0,0 l/m 7,3 km/h (2 Bft) SW 215 0 min 0,000 mm 0,0 UV-I 0 W/m -0,1 C 0,5 C 11,3 km/h (2 Bft) 97,87 %
13.12.2017 00:40 1,3 C 3,9 C 90 % 1018,3 hPa 0,0 l/m 8,3 km/h (2 Bft) W-SW 244 0 min 0,000 mm 0,0 UV-I 0 W/m -0,2 C -0,6 C 11,3 km/h (2 Bft) 95,74 %
13.12.2017 00:42 1,3 C 3,9 C 90 % 1018,4 hPa 0,0 l/m 8,4 km/h (2 Bft) W-SW 242 0 min 0,000 mm 0,0 UV-I 0 W/m -0,2 C -0,7 C 12,9 km/h (3 Bft) 95,74 %
13.12.2017 00:44 1,3 C 3,9 C 90 % 1018,4 hPa 0,0 l/m 9,0 km/h (2 Bft) SW 231 0 min 0,000 mm 0,0 UV-I 0 W/m -0,2 C -1,2 C 14,5 km/h (3 Bft) 95,74 %
13.12.2017 00:46 1,3 C 3,9 C 90 % 1018,4 hPa 0,0 l/m 9,4 km/h (2 Bft) W-SW 238 0 min 0,000 mm 0,0 UV-I 0 W/m -0,2 C -1,5 C 14,5 km/h (3 Bft) 97,87 %
13.12.2017 00:48 1,3 C 3,9 C 90 % 1018,4 hPa 0,0 l/m 7,3 km/h (2 Bft) SW 216 0 min 0,000 mm 0,0 UV-I 0 W/m -0,2 C 0,4 C 12,9 km/h (3 Bft) 91,49 %
13.12.2017 00:50 1,3 C 3,9 C 90 % 1018,4 hPa 0,0 l/m 6,8 km/h (2 Bft) SW 228 0 min 0,000 mm 0,0 UV-I 0 W/m -0,2 C 0,9 C 12,9 km/h (3 Bft) 97,87 %
13.12.2017 00:52 1,3 C 3,9 C 90 % 1018,4 hPa 0,0 l/m 8,7 km/h (2 Bft) SW 222 0 min 0,000 mm 0,0 UV-I 0 W/m -0,2 C -0,9 C 12,9 km/h (3 Bft) 97,87 %
13.12.2017 00:54 1,3 C 3,9 C 90 % 1018,4 hPa 0,0 l/m 11,1 km/h (2 Bft) SW 231 0 min 0,000 mm 0,0 UV-I 0 W/m -0,2 C -2,9 C 14,5 km/h (3 Bft) 95,74 %
13.12.2017 00:56 1,4 C 3,9 C 90 % 1018,5 hPa 0,0 l/m 10,2 km/h (2 Bft) W-SW 238 0 min 0,000 mm 0,0 UV-I 0 W/m -0,1 C -2,1 C 16,1 km/h (3 Bft) 97,87 %
13.12.2017 00:58 1,4 C 3,9 C 90 % 1018,5 hPa 0,0 l/m 10,9 km/h (2 Bft) SW 225 0 min 0,000 mm 0,0 UV-I 0 W/m -0,1 C -2,6 C 17,7 km/h (3 Bft) 97,87 %
13.12.2017 01:00 1,4 C 3,9 C 90 % 1018,5 hPa 0,0 l/m 12,0 km/h (2 Bft) W-SW 238 0 min 0,000 mm 0,0 UV-I 0 W/m -0,1 C -3,4 C 17,7 km/h (3 Bft) 95,74 %
13.12.2017 01:02 1,4 C 3,9 C 90 % 1018,5 hPa 0,0 l/m 13,1 km/h (3 Bft) W-SW 248 0 min 0,000 mm 0,0 UV-I 0 W/m -0,1 C -4,1 C 16,1 km/h (3 Bft) 95,74 %
13.12.2017 01:04 1,5 C 3,9 C 89 % 1018,4 hPa 0,0 l/m 11,1 km/h (2 Bft) SW 223 0 min 0,000 mm 0,0 UV-I 0 W/m -0,1 C -2,6 C 17,7 km/h (3 Bft) 93,62 %
13.12.2017 01:06 1,4 C 3,9 C 89 % 1018,4 hPa 0,0 l/m 8,0 km/h (2 Bft) W-SW 238 0 min 0,000 mm 0,0 UV-I 0 W/m -0,2 C -0,2 C 11,3 km/h (2 Bft) 100,00 %
13.12.2017 01:08 1,4 C 3,9 C 90 % 1018,4 hPa 0,0 l/m 8,5 km/h (2 Bft) W-SW 258 0 min 0,000 mm 0,0 UV-I 0 W/m -0,1 C -0,6 C 12,9 km/h (3 Bft) 100,00 %
13.12.2017 01:10 1,3 C 3,9 C 90 % 1018,4 hPa 0,0 l/m 8,3 km/h (2 Bft) W-SW 246 0 min 0,000 mm 0,0 UV-I 0 W/m -0,2 C -0,6 C 12,9 km/h (3 Bft) 94,00 %
13.12.2017 01:12 1,3 C 3,9 C 90 % 1018,4 hPa 0,0 l/m 8,6 km/h (2 Bft) W-SW 244 0 min 0,000 mm 0,0 UV-I 0 W/m -0,2 C -0,8 C 14,5 km/h (3 Bft) 100,00 %
13.12.2017 01:14 1,2 C 3,9 C 90 % 1018,5 hPa 0,0 l/m 9,4 km/h (2 Bft) SW 231 0 min 0,000 mm 0,0 UV-I 0 W/m -0,3 C -1,6 C 12,9 km/h (3 Bft) 98,00 %
13.12.2017 01:16 1,3 C 3,9 C 90 % 1018,5 hPa 0,0 l/m 8,1 km/h (2 Bft) SW 223 0 min 0,000 mm 0,0 UV-I 0 W/m -0,2 C -0,4 C 12,9 km/h (3 Bft) 97,37 %
13.12.2017 01:18 1,3 C 3,9 C 90 % 1018,5 hPa 0,0 l/m 10,0 km/h (2 Bft) SW 236 0 min 0,000 mm 0,0 UV-I 0 W/m -0,2 C -2,0 C 16,1 km/h (3 Bft) 97,87 %
13.12.2017 01:20 1,3 C 3,9 C 90 % 1018,5 hPa 0,0 l/m 7,2 km/h (2 Bft) W-SW 239 0 min 0,000 mm 0,0 UV-I 0 W/m -0,2 C 0,5 C 11,3 km/h (2 Bft) 97,87 %
13.12.2017 01:22 1,3 C 3,9 C 90 % 1018,5 hPa 0,0 l/m 7,8 km/h (2 Bft) W-SW 239 0 min 0,000 mm 0,0 UV-I 0 W/m -0,2 C -0,1 C 11,3 km/h (2 Bft) 100,00 %
13.12.2017 01:24 1,3 C 3,9 C 90 % 1018,6 hPa 0,0 l/m 8,6 km/h (2 Bft) W-SW 240 0 min 0,000 mm 0,0 UV-I 0 W/m -0,2 C -0,8 C 12,9 km/h (3 Bft) 100,00 %
13.12.2017 01:26 1,3 C 3,9 C 90 % 1018,6 hPa 0,0 l/m 6,8 km/h (2 Bft) W-SW 238 0 min 0,000 mm 0,0 UV-I 0 W/m -0,2 C 0,9 C 11,3 km/h (2 Bft) 97,87 %
13.12.2017 01:28 1,3 C 3,9 C 90 % 1018,6 hPa 0,0 l/m 9,4 km/h (2 Bft) SW 231 0 min 0,000 mm 0,0 UV-I 0 W/m -0,2 C -1,5 C 12,9 km/h (3 Bft) 97,87 %
13.12.2017 01:30 1,3 C 3,9 C 90 % 1018,6 hPa 0,0 l/m 8,5 km/h (2 Bft) SW 222 0 min 0,000 mm 0,0 UV-I 0 W/m -0,2 C -0,7 C 16,1 km/h (3 Bft) 97,87 %
13.12.2017 01:32 1,4 C 3,9 C 89 % 1018,7 hPa 0,0 l/m 7,1 km/h (2 Bft) SW 216 0 min 0,000 mm 0,0 UV-I 0 W/m -0,2 C 0,7 C 12,9 km/h (3 Bft) 97,37 %
13.12.2017 01:34 1,4 C 3,9 C 89 % 1018,7 hPa 0,0 l/m 6,0 km/h (2 Bft) W-SW 239 0 min 0,000 mm 0,0 UV-I 0 W/m -0,2 C 1,4 C 9,7 km/h (2 Bft) 96,00 %
13.12.2017 01:36 1,4 C 3,9 C 89 % 1018,7 hPa 0,0 l/m 6,6 km/h (2 Bft) SW 228 0 min 0,000 mm 0,0 UV-I 0 W/m -0,2 C 1,2 C 9,7 km/h (2 Bft) 100,00 %
13.12.2017 01:38 1,4 C 3,9 C 89 % 1018,7 hPa 0,0 l/m 7,0 km/h (2 Bft) SW 233 0 min 0,000 mm 0,0 UV-I 0 W/m -0,2 C 0,8 C 9,7 km/h (2 Bft) 98,00 %
13.12.2017 01:40 1,4 C 3,9 C 89 % 1018,7 hPa 0,0 l/m 6,4 km/h (2 Bft) W-SW 248 0 min 0,000 mm 0,0 UV-I 0 W/m -0,2 C 1,4 C 8,0 km/h (2 Bft) 100,00 %
13.12.2017 01:42 1,4 C 3,9 C 89 % 1018,8 hPa 0,0 l/m 6,0 km/h (2 Bft) W-SW 240 0 min 0,000 mm 0,0 UV-I 0 W/m -0,2 C 1,4 C 8,0 km/h (2 Bft) 97,87 %
13.12.2017 01:44 1,4 C 3,9 C 89 % 1018,7 hPa 0,0 l/m 6,1 km/h (2 Bft) SW 215 0 min 0,000 mm 0,0 UV-I 0 W/m -0,2 C 1,4 C 8,0 km/h (2 Bft) 97,87 %
13.12.2017 01:46 1,4 C 3,9 C 89 % 1018,8 hPa 0,0 l/m 5,9 km/h (2 Bft) SW 220 0 min 0,000 mm 0,0 UV-I 0 W/m -0,2 C 1,4 C 11,3 km/h (2 Bft) 100,00 %
13.12.2017 01:49 1,4 C 3,9 C 89 % 1018,8 hPa 0,0 l/m 6,5 km/h (2 Bft) S-SW 208 0 min 0,000 mm 0,0 UV-I 0 W/m -0,2 C 1,3 C 9,7 km/h (2 Bft) 100,00 %
13.12.2017 01:50 1,5 C 3,9 C 89 % 1018,8 hPa 0,0 l/m 5,4 km/h (1 Bft) S-SW 213 0 min 0,000 mm 0,0 UV-I 0 W/m -0,1 C 1,5 C 8,0 km/h (2 Bft) 100,00 %
13.12.2017 01:52 1,5 C 3,9 C 89 % 1018,8 hPa 0,0 l/m 6,1 km/h (2 Bft) S-SW 212 0 min 0,000 mm 0,0 UV-I 0 W/m -0,1 C 1,5 C 8,0 km/h (2 Bft) 100,00 %
13.12.2017 01:54 1,4 C 3,9 C 89 % 1018,8 hPa 0,0 l/m 5,6 km/h (1 Bft) SW 232 0 min 0,000 mm 0,0 UV-I 0 W/m -0,2 C 1,4 C 8,0 km/h (2 Bft) 100,00 %
13.12.2017 01:56 1,4 C 3,9 C 89 % 1018,8 hPa 0,0 l/m 5,5 km/h (1 Bft) SW 215 0 min 0,000 mm 0,0 UV-I 0 W/m -0,2 C 1,4 C 8,0 km/h (2 Bft) 100,00 %
13.12.2017 01:58 1,5 C 3,9 C 89 % 1018,8 hPa 0,0 l/m 5,4 km/h (1 Bft) SW 223 0 min 0,000 mm 0,0 UV-I 0 W/m -0,1 C 1,5 C 8,0 km/h (2 Bft) 97,87 %
13.12.2017 02:00 1,5 C 3,9 C 89 % 1018,9 hPa 0,0 l/m 5,6 km/h (1 Bft) SW 223 0 min 0,000 mm 0,0 UV-I 0 W/m -0,1 C 1,5 C 8,0 km/h (2 Bft) 97,87 %
13.12.2017 02:02 1,5 C 3,9 C 89 % 1018,8 hPa 0,0 l/m 5,7 km/h (1 Bft) SW 223 0 min 0,000 mm 0,0 UV-I 0 W/m -0,1 C 1,5 C 8,0 km/h (2 Bft) 95,74 %
13.12.2017 02:04 1,5 C 3,9 C 89 % 1018,9 hPa 0,0 l/m 7,7 km/h (2 Bft) S-SW 211 0 min 0,000 mm 0,0 UV-I 0 W/m -0,1 C 0,2 C 11,3 km/h (2 Bft) 97,87 %
13.12.2017 02:06 1,6 C 3,9 C 89 % 1018,8 hPa 0,0 l/m 6,8 km/h (2 Bft) S-SW 203 0 min 0,000 mm 0,0 UV-I 0 W/m -0,0 C 1,2 C 9,7 km/h (2 Bft) 97,87 %
13.12.2017 02:08 1,6 C 3,9 C 89 % 1018,9 hPa 0,0 l/m 6,4 km/h (2 Bft) W-SW 242 0 min 0,000 mm 0,0 UV-I 0 W/m -0,0 C 1,6 C 9,7 km/h (2 Bft) 98,00 %
13.12.2017 02:10 1,5 C 3,9 C 89 % 1019,0 hPa 0,0 l/m 5,1 km/h (1 Bft) SW 235 0 min 0,000 mm 0,0 UV-I 0 W/m -0,1 C 1,5 C 6,4 km/h (2 Bft) 97,37 %
13.12.2017 02:12 1,5 C 3,9 C 89 % 1019,1 hPa 0,0 l/m 7,2 km/h (2 Bft) SW 225 0 min 0,000 mm 0,0 UV-I 0 W/m -0,1 C 0,7 C 11,3 km/h (2 Bft) 93,62 %
13.12.2017 02:14 1,5 C 3,9 C 89 % 1019,1 hPa 0,0 l/m 6,3 km/h (2 Bft) SW 235 0 min 0,000 mm 0,0 UV-I 0 W/m -0,1 C 1,5 C 11,3 km/h (2 Bft) 97,87 %
13.12.2017 02:16 1,5 C 3,9 C 89 % 1019,1 hPa 0,0 l/m 6,0 km/h (2 Bft) W-SW 244 0 min 0,000 mm 0,0 UV-I 0 W/m -0,1 C 1,5 C 12,9 km/h (3 Bft) 95,74 %
13.12.2017 02:18 1,5 C 3,9 C 89 % 1019,1 hPa 0,0 l/m 6,7 km/h (2 Bft) SW 234 0 min 0,000 mm 0,0 UV-I 0 W/m -0,1 C 1,2 C 9,7 km/h (2 Bft) 97,87 %
13.12.2017 02:20 1,4 C 3,9 C 89 % 1019,1 hPa 0,0 l/m 7,0 km/h (2 Bft) S-SW 208 0 min 0,000 mm 0,0 UV-I 0 W/m -0,2 C 0,8 C 9,7 km/h (2 Bft) 97,87 %
13.12.2017 02:22 1,4 C 3,9 C 89 % 1019,0 hPa 0,0 l/m 7,4 km/h (2 Bft) SW 231 0 min 0,000 mm 0,0 UV-I 0 W/m -0,2 C 0,4 C 11,3 km/h (2 Bft) 97,87 %
13.12.2017 02:24 1,4 C 3,9 C 89 % 1019,0 hPa 0,0 l/m 8,2 km/h (2 Bft) W-SW 237 0 min 0,000 mm 0,0 UV-I 0 W/m -0,2 C -0,4 C 11,3 km/h (2 Bft) 96,00 %
13.12.2017 02:26 1,4 C 3,9 C 89 % 1019,1 hPa 0,0 l/m 7,8 km/h (2 Bft) SW 236 0 min 0,000 mm 0,0 UV-I 0 W/m -0,2 C 0,0 C 12,9 km/h (3 Bft) 96,00 %
13.12.2017 02:28 1,4 C 3,9 C 90 % 1019,0 hPa 0,0 l/m 7,9 km/h (2 Bft) SW 219 0 min 0,000 mm 0,0 UV-I 0 W/m -0,1 C -0,1 C 12,9 km/h (3 Bft) 100,00 %
13.12.2017 02:30 1,3 C 3,9 C 90 % 1019,1 hPa 0,0 l/m 7,8 km/h (2 Bft) SW 219 0 min 0,000 mm 0,0 UV-I 0 W/m -0,2 C -0,1 C 14,5 km/h (3 Bft) 97,92 %
13.12.2017 02:32 1,3 C 3,9 C 90 % 1019,1 hPa 0,0 l/m 8,5 km/h (2 Bft) SW 231 0 min 0,000 mm 0,0 UV-I 0 W/m -0,2 C -0,7 C 12,9 km/h (3 Bft) 97,37 %
13.12.2017 02:34 1,3 C 3,9 C 90 % 1019,1 hPa 0,0 l/m 6,6 km/h (2 Bft) SW 235 0 min 0,000 mm 0,0 UV-I 0 W/m -0,2 C 1,1 C 12,9 km/h (3 Bft) 98,00 %
13.12.2017 02:36 1,3 C 3,9 C 90 % 1019,2 hPa 0,0 l/m 7,2 km/h (2 Bft) SW 234 0 min 0,000 mm 0,0 UV-I 0 W/m -0,2 C 0,5 C 12,9 km/h (3 Bft) 95,74 %
13.12.2017 02:38 1,3 C 3,9 C 90 % 1019,2 hPa 0,0 l/m 7,2 km/h (2 Bft) W-SW 238 0 min 0,000 mm 0,0 UV-I 0 W/m -0,2 C 0,5 C 11,3 km/h (2 Bft) 96,00 %
13.12.2017 02:40 1,3 C 3,9 C 90 % 1019,2 hPa 0,0 l/m 10,6 km/h (2 Bft) SW 229 0 min 0,000 mm 0,0 UV-I 0 W/m -0,2 C -2,5 C 14,5 km/h (3 Bft) 95,74 %
13.12.2017 02:42 1,4 C 3,9 C 90 % 1019,2 hPa 0,0 l/m 12,4 km/h (3 Bft) SW 236 0 min 0,000 mm 0,0 UV-I 0 W/m -0,1 C -3,7 C 17,7 km/h (3 Bft) 93,62 %
13.12.2017 02:44 1,4 C 3,9 C 90 % 1019,2 hPa 0,0 l/m 9,4 km/h (2 Bft) W-SW 242 0 min 0,000 mm 0,0 UV-I 0 W/m -0,1 C -1,4 C 12,9 km/h (3 Bft) 95,74 %
13.12.2017 02:46 1,4 C 3,9 C 89 % 1019,2 hPa 0,0 l/m 9,6 km/h (2 Bft) SW 232 0 min 0,000 mm 0,0 UV-I 0 W/m -0,2 C -1,6 C 14,5 km/h (3 Bft) 93,62 %
13.12.2017 02:48 1,4 C 3,9 C 89 % 1019,2 hPa 0,0 l/m 9,4 km/h (2 Bft) SW 219 0 min 0,000 mm 0,0 UV-I 0 W/m -0,2 C -1,4 C 14,5 km/h (3 Bft) 95,83 %
13.12.2017 02:50 1,4 C 3,9 C 89 % 1019,2 hPa 0,0 l/m 8,9 km/h (2 Bft) SW 225 0 min 0,000 mm 0,0 UV-I 0 W/m -0,2 C -1,0 C 14,5 km/h (3 Bft) 93,62 %
13.12.2017 02:52 1,5 C 3,9 C 89 % 1019,3 hPa 0,0 l/m 7,8 km/h (2 Bft) SW 219 0 min 0,000 mm 0,0 UV-I 0 W/m -0,1 C 0,1 C 12,9 km/h (3 Bft) 95,74 %
13.12.2017 02:54 1,4 C 3,9 C 89 % 1019,3 hPa 0,0 l/m 7,5 km/h (2 Bft) SW 234 0 min 0,000 mm 0,0 UV-I 0 W/m -0,2 C 0,3 C 11,3 km/h (2 Bft) 93,62 %
13.12.2017 02:56 1,4 C 3,9 C 89 % 1019,3 hPa 0,0 l/m 8,5 km/h (2 Bft) SW 234 0 min 0,000 mm 0,0 UV-I 0 W/m -0,2 C -0,6 C 11,3 km/h (2 Bft) 93,62 %
13.12.2017 02:58 1,4 C 3,9 C 89 % 1019,3 hPa 0,0 l/m 9,0 km/h (2 Bft) W-SW 237 0 min 0,000 mm 0,0 UV-I 0 W/m -0,2 C -1,1 C 12,9 km/h (3 Bft) 93,62 %
13.12.2017 03:00 1,4 C 3,9 C 89 % 1019,3 hPa 0,0 l/m 8,9 km/h (2 Bft) SW 234 0 min 0,000 mm 0,0 UV-I 0 W/m -0,2 C -1,0 C 11,3 km/h (2 Bft) 93,62 %
13.12.2017 03:02 1,4 C 3,9 C 89 % 1019,3 hPa 0,0 l/m 9,0 km/h (2 Bft) SW 231 0 min 0,000 mm 0,0 UV-I 0 W/m -0,2 C -1,1 C 11,3 km/h (2 Bft) 95,74 %
13.12.2017 03:04 1,4 C 3,9 C 89 % 1019,3 hPa 0,0 l/m 9,3 km/h (2 Bft) SW 227 0 min 0,000 mm 0,0 UV-I 0 W/m -0,2 C -1,3 C 14,5 km/h (3 Bft) 95,74 %
13.12.2017 03:06 1,3 C 3,9 C 89 % 1019,2 hPa 0,0 l/m 9,7 km/h (2 Bft) SW 231 0 min 0,000 mm 0,0 UV-I 0 W/m -0,3 C -1,8 C 12,9 km/h (3 Bft) 95,74 %
13.12.2017 03:08 1,3 C 3,9 C 90 % 1019,2 hPa 0,0 l/m 8,3 km/h (2 Bft) W-SW 240 0 min 0,000 mm 0,0 UV-I 0 W/m -0,2 C -0,6 C 14,5 km/h (3 Bft) 93,62 %
13.12.2017 03:10 1,3 C 3,9 C 90 % 1019,2 hPa 0,0 l/m 6,7 km/h (2 Bft) SW 230 0 min 0,000 mm 0,0 UV-I 0 W/m -0,2 C 1,0 C 9,7 km/h (2 Bft) 95,74 %
13.12.2017 03:12 1,3 C 3,9 C 89 % 1019,1 hPa 0,0 l/m 5,7 km/h (1 Bft) SW 225 0 min 0,000 mm 0,0 UV-I 0 W/m -0,3 C 1,3 C 8,0 km/h (2 Bft) 91,49 %
13.12.2017 03:14 1,3 C 3,9 C 89 % 1019,1 hPa 0,0 l/m 7,3 km/h (2 Bft) SW 223 0 min 0,000 mm 0,0 UV-I 0 W/m -0,3 C 0,4 C 9,7 km/h (2 Bft) 97,22 %
13.12.2017 03:16 1,2 C 3,9 C 90 % 1019,0 hPa 0,0 l/m 5,6 km/h (1 Bft) SW 227 0 min 0,000 mm 0,0 UV-I 0 W/m -0,3 C 1,2 C 8,0 km/h (2 Bft) 95,83 %
13.12.2017 03:18 1,2 C 3,9 C 90 % 1019,0 hPa 0,0 l/m 7,2 km/h (2 Bft) SW 216 0 min 0,000 mm 0,0 UV-I 0 W/m -0,3 C 0,4 C 9,7 km/h (2 Bft) 100,00 %
13.12.2017 03:20 1,2 C 3,9 C 90 % 1018,9 hPa 0,0 l/m 7,5 km/h (2 Bft) SW 227 0 min 0,000 mm 0,0 UV-I 0 W/m -0,3 C 0,1 C 9,7 km/h (2 Bft) 98,00 %
13.12.2017 03:22 1,2 C 3,9 C 90 % 1018,9 hPa 0,0 l/m 5,7 km/h (1 Bft) SW 227 0 min 0,000 mm 0,0 UV-I 0 W/m -0,3 C 1,2 C 8,0 km/h (2 Bft) 100,00 %
13.12.2017 03:24 1,2 C 3,9 C 90 % 1018,9 hPa 0,0 l/m 6,0 km/h (2 Bft) W-SW 244 0 min 0,000 mm 0,0 UV-I 0 W/m -0,3 C 1,2 C 9,7 km/h (2 Bft) 100,00 %
13.12.2017 03:26 1,1 C 3,9 C 90 % 1019,0 hPa 0,0 l/m 6,0 km/h (2 Bft) SW 220 0 min 0,000 mm 0,0 UV-I 0 W/m -0,4 C 1,1 C 8,0 km/h (2 Bft) 100,00 %
13.12.2017 03:28 1,1 C 3,9 C 90 % 1018,9 hPa 0,0 l/m 6,8 km/h (2 Bft) W-SW 254 0 min 0,000 mm 0,0 UV-I 0 W/m -0,4 C 0,7 C 11,3 km/h (2 Bft) 95,74 %
13.12.2017 03:30 1,1 C 3,9 C 90 % 1018,9 hPa 0,0 l/m 7,3 km/h (2 Bft) W-SW 254 0 min 0,000 mm 0,0 UV-I 0 W/m -0,4 C 0,2 C 12,9 km/h (3 Bft) 100,00 %
13.12.2017 03:32 1,1 C 3,9 C 90 % 1018,9 hPa 0,0 l/m 6,7 km/h (2 Bft) W-SW 242 0 min 0,000 mm 0,0 UV-I 0 W/m -0,4 C 0,8 C 11,3 km/h (2 Bft) 100,00 %
13.12.2017 03:34 1,1 C 3,9 C 90 % 1018,9 hPa 0,0 l/m 7,8 km/h (2 Bft) W-SW 252 0 min 0,000 mm 0,0 UV-I 0 W/m -0,4 C -0,3 C 12,9 km/h (3 Bft) 98,00 %
13.12.2017 03:36 1,2 C 3,9 C 90 % 1018,9 hPa 0,0 l/m 8,1 km/h (2 Bft) W-SW 253 0 min 0,000 mm 0,0 UV-I 0 W/m -0,3 C -0,5 C 12,9 km/h (3 Bft) 98,00 %
13.12.2017 03:38 1,2 C 3,9 C 90 % 1018,9 hPa 0,0 l/m 9,6 km/h (2 Bft) W-SW 256 0 min 0,000 mm 0,0 UV-I 0 W/m -0,3 C -1,8 C 14,5 km/h (3 Bft) 97,87 %
13.12.2017 03:40 1,2 C 3,9 C 89 % 1018,9 hPa 0,0 l/m 10,3 km/h (2 Bft) W-SW 252 0 min 0,000 mm 0,0 UV-I 0 W/m -0,4 C -2,4 C 14,5 km/h (3 Bft) 100,00 %
13.12.2017 03:42 1,2 C 3,9 C 89 % 1019,0 hPa 0,0 l/m 8,3 km/h (2 Bft) W 263 0 min 0,000 mm 0,0 UV-I 0 W/m -0,4 C -0,7 C 12,9 km/h (3 Bft) 100,00 %
13.12.2017 03:44 1,2 C 3,9 C 89 % 1018,9 hPa 0,0 l/m 8,6 km/h (2 Bft) S-SW 210 0 min 0,000 mm 0,0 UV-I 0 W/m -0,4 C -0,9 C 12,9 km/h (3 Bft) 100,00 %
13.12.2017 03:46 1,3 C 3,9 C 89 % 1018,9 hPa 0,0 l/m 8,8 km/h (2 Bft) SW 219 0 min 0,000 mm 0,0 UV-I 0 W/m -0,3 C -1,0 C 16,1 km/h (3 Bft) 100,00 %
13.12.2017 03:48 1,3 C 3,9 C 89 % 1018,9 hPa 0,0 l/m 9,6 km/h (2 Bft) W-SW 256 0 min 0,000 mm 0,0 UV-I 0 W/m -0,3 C -1,7 C 14,5 km/h (3 Bft) 98,00 %
13.12.2017 03:50 1,3 C 3,9 C 89 % 1018,8 hPa 0,0 l/m 7,5 km/h (2 Bft) W-SW 245 0 min 0,000 mm 0,0 UV-I 0 W/m -0,3 C 0,2 C 14,5 km/h (3 Bft) 100,00 %
13.12.2017 03:52 1,3 C 3,9 C 89 % 1018,8 hPa 0,0 l/m 10,9 km/h (2 Bft) W-SW 240 0 min 0,000 mm 0,0 UV-I 0 W/m -0,3 C -2,7 C 16,1 km/h (3 Bft) 98,00 %
13.12.2017 03:54 1,3 C 3,9 C 89 % 1018,8 hPa 0,0 l/m 9,4 km/h (2 Bft) W-SW 244 0 min 0,000 mm 0,0 UV-I 0 W/m -0,3 C -1,5 C 16,1 km/h (3 Bft) 100,00 %
13.12.2017 03:56 1,3 C 3,9 C 89 % 1018,9 hPa 0,0 l/m 8,0 km/h (2 Bft) SW 236 0 min 0,000 mm 0,0 UV-I 0 W/m -0,3 C -0,3 C 14,5 km/h (3 Bft) 97,87 %
13.12.2017 03:58 1,4 C 3,9 C 89 % 1018,9 hPa 0,0 l/m 9,0 km/h (2 Bft) W-SW 244 0 min 0,000 mm 0,0 UV-I 0 W/m -0,2 C -1,1 C 11,3 km/h (2 Bft) 100,00 %
13.12.2017 04:00 1,3 C 3,9 C 89 % 1018,8 hPa 0,0 l/m 6,5 km/h (2 Bft) W-SW 250 0 min 0,000 mm 0,0 UV-I 0 W/m -0,3 C 1,2 C 9,7 km/h (2 Bft) 95,74 %
13.12.2017 04:02 1,3 C 3,9 C 89 % 1018,8 hPa 0,0 l/m 6,2 km/h (2 Bft) W-SW 245 0 min 0,000 mm 0,0 UV-I 0 W/m -0,3 C 1,3 C 8,0 km/h (2 Bft) 100,00 %
13.12.2017 04:04 1,3 C 3,9 C 89 % 1018,8 hPa 0,0 l/m 9,5 km/h (2 Bft) W-SW 247 0 min 0,000 mm 0,0 UV-I 0 W/m -0,3 C -1,6 C 14,5 km/h (3 Bft) 100,00 %
13.12.2017 04:06 1,3 C 3,9 C 89 % 1018,8 hPa 0,0 l/m 10,2 km/h (2 Bft) W-SW 240 0 min 0,000 mm 0,0 UV-I 0 W/m -0,3 C -2,2 C 17,7 km/h (3 Bft) 100,00 %
13.12.2017 04:08 1,3 C 3,9 C 89 % 1018,8 hPa 0,0 l/m 8,4 km/h (2 Bft) SW 236 0 min 0,000 mm 0,0 UV-I 0 W/m -0,3 C -0,7 C 11,3 km/h (2 Bft) 100,00 %
13.12.2017 04:10 1,3 C 3,9 C 89 % 1018,8 hPa 0,0 l/m 7,0 km/h (2 Bft) SW 228 0 min 0,000 mm 0,0 UV-I 0 W/m -0,3 C 0,7 C 9,7 km/h (2 Bft) 100,00 %
13.12.2017 04:12 1,3 C 3,9 C 89 % 1018,8 hPa 0,0 l/m 8,8 km/h (2 Bft) SW 219 0 min 0,000 mm 0,0 UV-I 0 W/m -0,3 C -1,0 C 12,9 km/h (3 Bft) 100,00 %
13.12.2017 04:14 1,3 C 3,9 C 88 % 1018,8 hPa 0,0 l/m 8,3 km/h (2 Bft) SW 225 0 min 0,000 mm 0,0 UV-I 0 W/m -0,5 C -0,6 C 12,9 km/h (3 Bft) 100,00 %
13.12.2017 04:16 1,3 C 3,9 C 89 % 1018,8 hPa 0,0 l/m 7,4 km/h (2 Bft) SW 232 0 min 0,000 mm 0,0 UV-I 0 W/m -0,3 C 0,3 C 9,7 km/h (2 Bft) 100,00 %
13.12.2017 04:18 1,2 C 3,9 C 89 % 1018,8 hPa 0,0 l/m 7,8 km/h (2 Bft) SW 234 0 min 0,000 mm 0,0 UV-I 0 W/m -0,4 C -0,2 C 11,3 km/h (2 Bft) 100,00 %
13.12.2017 04:20 1,2 C 3,9 C 89 % 1018,9 hPa 0,0 l/m 7,2 km/h (2 Bft) SW 231 0 min 0,000 mm 0,0 UV-I 0 W/m -0,4 C 0,4 C 11,3 km/h (2 Bft) 100,00 %
13.12.2017 04:22 1,2 C 3,9 C 89 % 1018,9 hPa 0,0 l/m 9,1 km/h (2 Bft) SW 233 0 min 0,000 mm 0,0 UV-I 0 W/m -0,4 C -1,4 C 12,9 km/h (3 Bft) 97,87 %
13.12.2017 04:24 1,1 C 3,9 C 89 % 1018,9 hPa 0,0 l/m 8,0 km/h (2 Bft) SW 224 0 min 0,000 mm 0,0 UV-I 0 W/m -0,5 C -0,5 C 12,9 km/h (3 Bft) 100,00 %
13.12.2017 04:26 1,1 C 3,9 C 89 % 1019,0 hPa 0,0 l/m 7,5 km/h (2 Bft) SW 232 0 min 0,000 mm 0,0 UV-I 0 W/m -0,5 C -0,0 C 11,3 km/h (2 Bft) 100,00 %
13.12.2017 04:28 0,9 C 3,9 C 90 % 1019,0 hPa 0,0 l/m 6,3 km/h (2 Bft) SW 229 0 min 0,000 mm 0,0 UV-I 0 W/m -0,6 C 0,9 C 9,7 km/h (2 Bft) 97,87 %
13.12.2017 04:30 0,9 C 3,9 C 90 % 1019,0 hPa 0,0 l/m 6,2 km/h (2 Bft) W-SW 248 0 min 0,000 mm 0,0 UV-I 0 W/m -0,6 C 0,9 C 9,7 km/h (2 Bft) 100,00 %
13.12.2017 04:32 0,8 C 3,9 C 90 % 1019,0 hPa 0,0 l/m 5,4 km/h (1 Bft) SW 235 0 min 0,000 mm 0,0 UV-I 0 W/m -0,6 C 0,8 C 8,0 km/h (2 Bft) 100,00 %
13.12.2017 04:34 0,8 C 3,9 C 90 % 1018,9 hPa 0,0 l/m 6,3 km/h (2 Bft) SW 232 0 min 0,000 mm 0,0 UV-I 0 W/m -0,6 C 0,8 C 8,0 km/h (2 Bft) 97,87 %
13.12.2017 04:36 0,8 C 3,9 C 90 % 1018,9 hPa 0,0 l/m 8,0 km/h (2 Bft) SW 229 0 min 0,000 mm 0,0 UV-I 0 W/m -0,6 C -0,8 C 12,9 km/h (3 Bft) 100,00 %
13.12.2017 04:38 0,8 C 3,9 C 90 % 1018,9 hPa 0,0 l/m 5,7 km/h (1 Bft) W-SW 242 0 min 0,000 mm 0,0 UV-I 0 W/m -0,6 C 0,8 C 8,0 km/h (2 Bft) 100,00 %
13.12.2017 04:40 0,7 C 3,9 C 90 % 1018,9 hPa 0,0 l/m 5,8 km/h (2 Bft) W 259 0 min 0,000 mm 0,0 UV-I 0 W/m -0,7 C 0,7 C 9,7 km/h (2 Bft) 100,00 %
13.12.2017 04:42 0,7 C 3,9 C 91 % 1018,9 hPa 0,0 l/m 5,7 km/h (1 Bft) W-SW 250 0 min 0,000 mm 0,0 UV-I 0 W/m -0,6 C 0,7 C 9,7 km/h (2 Bft) 100,00 %
13.12.2017 04:44 0,7 C 3,9 C 91 % 1018,8 hPa 0,0 l/m 5,7 km/h (1 Bft) SW 234 0 min 0,000 mm 0,0 UV-I 0 W/m -0,6 C 0,7 C 11,3 km/h (2 Bft) 100,00 %
13.12.2017 04:46 0,6 C 3,9 C 91 % 1018,8 hPa 0,0 l/m 6,0 km/h (2 Bft) W-SW 244 0 min 0,000 mm 0,0 UV-I 0 W/m -0,7 C 0,6 C 9,7 km/h (2 Bft) 100,00 %
13.12.2017 04:48 0,7 C 3,9 C 91 % 1018,8 hPa 0,0 l/m 6,6 km/h (2 Bft) SW 221 0 min 0,000 mm 0,0 UV-I 0 W/m -0,6 C 0,5 C 8,0 km/h (2 Bft) 100,00 %
13.12.2017 04:50 0,7 C 3,9 C 91 % 1018,8 hPa 0,0 l/m 6,9 km/h (2 Bft) SW 236 0 min 0,000 mm 0,0 UV-I 0 W/m -0,6 C 0,2 C 11,3 km/h (2 Bft) 100,00 %
13.12.2017 04:52 0,7 C 3,9 C 91 % 1018,8 hPa 0,0 l/m 7,0 km/h (2 Bft) W-SW 245 0 min 0,000 mm 0,0 UV-I 0 W/m -0,6 C 0,1 C 11,3 km/h (2 Bft) 98,00 %
13.12.2017 04:54 0,7 C 3,9 C 91 % 1018,9 hPa 0,0 l/m 7,7 km/h (2 Bft) SW 215 0 min 0,000 mm 0,0 UV-I 0 W/m -0,6 C -0,6 C 9,7 km/h (2 Bft) 97,87 %
13.12.2017 04:56 0,7 C 3,9 C 91 % 1018,9 hPa 0,0 l/m 7,5 km/h (2 Bft) W-SW 250 0 min 0,000 mm 0,0 UV-I 0 W/m -0,6 C -0,4 C 12,9 km/h (3 Bft) 98,00 %
13.12.2017 04:58 0,7 C 3,9 C 91 % 1018,9 hPa 0,0 l/m 6,9 km/h (2 Bft) W-SW 241 0 min 0,000 mm 0,0 UV-I 0 W/m -0,6 C 0,2 C 11,3 km/h (2 Bft) 97,37 %
13.12.2017 05:00 0,7 C 3,9 C 91 % 1018,9 hPa 0,0 l/m 6,3 km/h (2 Bft) SW 228 0 min 0,000 mm 0,0 UV-I 0 W/m -0,6 C 0,7 C 8,0 km/h (2 Bft) 96,23 %
13.12.2017 05:02 0,7 C 3,9 C 91 % 1019,0 hPa 0,0 l/m 6,6 km/h (2 Bft) W-SW 238 0 min 0,000 mm 0,0 UV-I 0 W/m -0,6 C 0,5 C 9,7 km/h (2 Bft) 96,00 %
13.12.2017 05:04 0,7 C 3,9 C 91 % 1019,0 hPa 0,0 l/m 6,6 km/h (2 Bft) W-SW 252 0 min 0,000 mm 0,0 UV-I 0 W/m -0,6 C 0,5 C 8,0 km/h (2 Bft) 95,74 %
13.12.2017 05:06 0,7 C 3,9 C 91 % 1019,0 hPa 0,0 l/m 6,0 km/h (2 Bft) SW 229 0 min 0,000 mm 0,0 UV-I 0 W/m -0,6 C 0,7 C 11,3 km/h (2 Bft) 97,87 %
13.12.2017 05:08 0,6 C 3,9 C 91 % 1019,0 hPa 0,0 l/m 7,3 km/h (2 Bft) SW 232 0 min 0,000 mm 0,0 UV-I 0 W/m -0,7 C -0,3 C 12,9 km/h (3 Bft) 93,62 %
13.12.2017 05:10 0,6 C 3,9 C 91 % 1019,0 hPa 0,0 l/m 7,6 km/h (2 Bft) SW 235 0 min 0,000 mm 0,0 UV-I 0 W/m -0,7 C -0,6 C 11,3 km/h (2 Bft) 95,74 %
13.12.2017 05:12 0,5 C 3,9 C 91 % 1019,0 hPa 0,0 l/m 7,2 km/h (2 Bft) W-SW 237 0 min 0,000 mm 0,0 UV-I 0 W/m -0,8 C -0,3 C 9,7 km/h (2 Bft) 97,30 %
13.12.2017 05:14 0,4 C 3,9 C 91 % 1019,0 hPa 0,0 l/m 7,5 km/h (2 Bft) SW 236 0 min 0,000 mm 0,0 UV-I 0 W/m -0,9 C -0,7 C 11,3 km/h (2 Bft) 97,87 %
13.12.2017 05:16 0,4 C 3,9 C 91 % 1019,1 hPa 0,0 l/m 7,3 km/h (2 Bft) SW 232 0 min 0,000 mm 0,0 UV-I 0 W/m -0,9 C -0,5 C 9,7 km/h (2 Bft) 97,87 %
13.12.2017 05:18 0,4 C 3,9 C 91 % 1019,1 hPa 0,0 l/m 7,8 km/h (2 Bft) SW 230 0 min 0,000 mm 0,0 UV-I 0 W/m -0,9 C -1,0 C 11,3 km/h (2 Bft) 95,74 %
13.12.2017 05:20 0,4 C 3,9 C 91 % 1019,1 hPa 0,0 l/m 7,9 km/h (2 Bft) SW 221 0 min 0,000 mm 0,0 UV-I 0 W/m -0,9 C -1,1 C 11,3 km/h (2 Bft) 98,00 %
13.12.2017 05:22 0,4 C 3,9 C 91 % 1019,1 hPa 0,0 l/m 8,1 km/h (2 Bft) SW 234 0 min 0,000 mm 0,0 UV-I 0 W/m -0,9 C -1,3 C 11,3 km/h (2 Bft) 97,87 %
13.12.2017 05:24 0,4 C 3,9 C 91 % 1019,1 hPa 0,0 l/m 8,1 km/h (2 Bft) SW 225 0 min 0,000 mm 0,0 UV-I 0 W/m -0,9 C -1,3 C 12,9 km/h (3 Bft) 95,74 %
13.12.2017 05:26 0,4 C 3,9 C 91 % 1019,1 hPa 0,0 l/m 7,7 km/h (2 Bft) W-SW 243 0 min 0,000 mm 0,0 UV-I 0 W/m -0,9 C -0,9 C 9,7 km/h (2 Bft) 95,74 %
13.12.2017 05:28 0,4 C 3,9 C 91 % 1019,1 hPa 0,0 l/m 8,0 km/h (2 Bft) SW 228 0 min 0,000 mm 0,0 UV-I 0 W/m -0,9 C -1,2 C 9,7 km/h (2 Bft) 96,00 %
13.12.2017 05:30 0,4 C 3,9 C 91 % 1019,1 hPa 0,0 l/m 7,9 km/h (2 Bft) SW 232 0 min 0,000 mm 0,0 UV-I 0 W/m -0,9 C -1,1 C 11,3 km/h (2 Bft) 96,00 %
13.12.2017 05:32 0,3 C 3,9 C 91 % 1019,1 hPa 0,0 l/m 7,5 km/h (2 Bft) SW 235 0 min 0,000 mm 0,0 UV-I 0 W/m -1,0 C -0,8 C 11,3 km/h (2 Bft) 95,74 %
13.12.2017 05:34 0,3 C 3,9 C 91 % 1019,2 hPa 0,0 l/m 6,4 km/h (2 Bft) W-SW 238 0 min 0,000 mm 0,0 UV-I 0 W/m -1,0 C 0,3 C 11,3 km/h (2 Bft) 100,00 %
13.12.2017 05:36 0,3 C 3,9 C 91 % 1019,1 hPa 0,0 l/m 6,4 km/h (2 Bft) W 260 0 min 0,000 mm 0,0 UV-I 0 W/m -1,0 C 0,3 C 11,3 km/h (2 Bft) 94,74 %
13.12.2017 05:38 0,3 C 3,9 C 91 % 1019,2 hPa 0,0 l/m 6,2 km/h (2 Bft) SW 234 0 min 0,000 mm 0,0 UV-I 0 W/m -1,0 C 0,3 C 9,7 km/h (2 Bft) 100,00 %
13.12.2017 05:40 0,3 C 3,9 C 91 % 1019,2 hPa 0,0 l/m 6,3 km/h (2 Bft) W-SW 249 0 min 0,000 mm 0,0 UV-I 0 W/m -1,0 C 0,3 C 12,9 km/h (3 Bft) 100,00 %
13.12.2017 05:42 0,3 C 3,9 C 91 % 1019,2 hPa 0,0 l/m 7,2 km/h (2 Bft) W-SW 252 0 min 0,000 mm 0,0 UV-I 0 W/m -1,0 C -0,5 C 12,9 km/h (3 Bft) 100,00 %
13.12.2017 05:44 0,4 C 3,9 C 91 % 1019,2 hPa 0,0 l/m 6,7 km/h (2 Bft) SW 221 0 min 0,000 mm 0,0 UV-I 0 W/m -0,9 C 0,1 C 11,3 km/h (2 Bft) 97,87 %
13.12.2017 05:46 0,4 C 3,9 C 91 % 1019,2 hPa 0,0 l/m 6,9 km/h (2 Bft) SW 229 0 min 0,000 mm 0,0 UV-I 0 W/m -0,9 C -0,1 C 9,7 km/h (2 Bft) 100,00 %
13.12.2017 05:48 0,4 C 3,9 C 91 % 1019,2 hPa 0,0 l/m 6,3 km/h (2 Bft) SW 236 0 min 0,000 mm 0,0 UV-I 0 W/m -0,9 C 0,4 C 11,3 km/h (2 Bft) 100,00 %
13.12.2017 05:50 0,4 C 3,9 C 91 % 1019,2 hPa 0,0 l/m 6,3 km/h (2 Bft) W-SW 252 0 min 0,000 mm 0,0 UV-I 0 W/m -0,9 C 0,4 C 11,3 km/h (2 Bft) 100,00 %
13.12.2017 05:52 0,4 C 3,9 C 91 % 1019,2 hPa 0,0 l/m 6,3 km/h (2 Bft) SW 231 0 min 0,000 mm 0,0 UV-I 0 W/m -0,9 C 0,4 C 8,0 km/h (2 Bft) 95,74 %
13.12.2017 05:54 0,4 C 3,9 C 91 % 1019,2 hPa 0,0 l/m 8,3 km/h (2 Bft) SW 225 0 min 0,000 mm 0,0 UV-I 0 W/m -0,9 C -1,5 C 14,5 km/h (3 Bft) 100,00 %
13.12.2017 05:56 0,4 C 3,9 C 91 % 1019,2 hPa 0,0 l/m 8,3 km/h (2 Bft) SW 216 0 min 0,000 mm 0,0 UV-I 0 W/m -0,9 C -1,5 C 11,3 km/h (2 Bft) 100,00 %
13.12.2017 05:58 0,5 C 3,9 C 91 % 1019,2 hPa 0,0 l/m 6,9 km/h (2 Bft) SW 223 0 min 0,000 mm 0,0 UV-I 0 W/m -0,8 C -0,0 C 11,3 km/h (2 Bft) 97,87 %
13.12.2017 06:00 0,5 C 3,9 C 90 % 1019,2 hPa 0,0 l/m 7,0 km/h (2 Bft) W-SW 242 0 min 0,000 mm 0,0 UV-I 0 W/m -0,9 C -0,1 C 11,3 km/h (2 Bft) 97,87 %
13.12.2017 06:02 0,4 C 3,9 C 90 % 1019,2 hPa 0,0 l/m 8,0 km/h (2 Bft) W 260 0 min 0,000 mm 0,0 UV-I 0 W/m -1,0 C -1,2 C 14,5 km/h (3 Bft) 100,00 %
13.12.2017 06:04 0,4 C 3,9 C 90 % 1019,2 hPa 0,0 l/m 8,0 km/h (2 Bft) W 262 0 min 0,000 mm 0,0 UV-I 0 W/m -1,0 C -1,2 C 12,9 km/h (3 Bft) 100,00 %
13.12.2017 06:06 0,4 C 3,9 C 91 % 1019,2 hPa 0,0 l/m 7,3 km/h (2 Bft) W-SW 242 0 min 0,000 mm 0,0 UV-I 0 W/m -0,9 C -0,5 C 11,3 km/h (2 Bft) 95,74 %
13.12.2017 06:08 0,4 C 3,9 C 91 % 1019,2 hPa 0,0 l/m 7,8 km/h (2 Bft) W-SW 246 0 min 0,000 mm 0,0 UV-I 0 W/m -0,9 C -1,0 C 12,9 km/h (3 Bft) 97,56 %
13.12.2017 06:10 0,4 C 3,9 C 90 % 1019,2 hPa 0,0 l/m 8,3 km/h (2 Bft) SW 232 0 min 0,000 mm 0,0 UV-I 0 W/m -1,0 C -1,5 C 12,9 km/h (3 Bft) 93,62 %
13.12.2017 06:12 0,5 C 3,9 C 90 % 1019,2 hPa 0,0 l/m 8,4 km/h (2 Bft) W 263 0 min 0,000 mm 0,0 UV-I 0 W/m -0,9 C -1,5 C 14,5 km/h (3 Bft) 95,74 %
13.12.2017 06:14 0,4 C 3,9 C 90 % 1019,2 hPa 0,0 l/m 7,0 km/h (2 Bft) W-SW 245 0 min 0,000 mm 0,0 UV-I 0 W/m -1,0 C -0,2 C 11,3 km/h (2 Bft) 97,87 %
13.12.2017 06:16 0,4 C 3,9 C 90 % 1019,3 hPa 0,0 l/m 8,1 km/h (2 Bft) W-SW 257 0 min 0,000 mm 0,0 UV-I 0 W/m -1,0 C -1,3 C 12,9 km/h (3 Bft) 98,00 %
13.12.2017 06:18 0,3 C 3,9 C 90 % 1019,3 hPa 0,0 l/m 8,4 km/h (2 Bft) W-SW 248 0 min 0,000 mm 0,0 UV-I 0 W/m -1,1 C -1,7 C 12,9 km/h (3 Bft) 94,00 %
13.12.2017 06:20 0,4 C 3,9 C 90 % 1019,2 hPa 0,0 l/m 9,2 km/h (2 Bft) SW 229 0 min 0,000 mm 0,0 UV-I 0 W/m -1,0 C -2,3 C 12,9 km/h (3 Bft) 97,37 %
13.12.2017 06:22 0,4 C 3,9 C 90 % 1019,3 hPa 0,0 l/m 10,1 km/h (2 Bft) W-SW 248 0 min 0,000 mm 0,0 UV-I 0 W/m -1,0 C -3,1 C 16,1 km/h (3 Bft) 97,96 %
13.12.2017 06:24 0,4 C 3,9 C 89 % 1019,3 hPa 0,0 l/m 10,0 km/h (2 Bft) W-SW 255 0 min 0,000 mm 0,0 UV-I 0 W/m -1,2 C -3,0 C 12,9 km/h (3 Bft) 95,74 %
13.12.2017 06:26 0,4 C 3,9 C 90 % 1019,3 hPa 0,0 l/m 10,6 km/h (2 Bft) W-SW 240 0 min 0,000 mm 0,0 UV-I 0 W/m -1,0 C -3,5 C 14,5 km/h (3 Bft) 93,75 %
13.12.2017 06:28 0,4 C 3,9 C 89 % 1019,3 hPa 0,0 l/m 10,3 km/h (2 Bft) W-SW 257 0 min 0,000 mm 0,0 UV-I 0 W/m -1,2 C -3,3 C 12,9 km/h (3 Bft) 95,92 %
13.12.2017 06:30 0,4 C 3,9 C 89 % 1019,3 hPa 0,0 l/m 9,2 km/h (2 Bft) W-SW 244 0 min 0,000 mm 0,0 UV-I 0 W/m -1,2 C -2,3 C 14,5 km/h (3 Bft) 93,75 %
13.12.2017 06:32 0,4 C 3,9 C 89 % 1019,3 hPa 0,0 l/m 7,2 km/h (2 Bft) W-SW 244 0 min 0,000 mm 0,0 UV-I 0 W/m -1,2 C -0,4 C 11,3 km/h (2 Bft) 95,92 %
13.12.2017 06:34 0,4 C 3,9 C 89 % 1019,4 hPa 0,0 l/m 7,2 km/h (2 Bft) SW 236 0 min 0,000 mm 0,0 UV-I 0 W/m -1,2 C -0,4 C 11,3 km/h (2 Bft) 94,74 %
13.12.2017 06:36 0,4 C 3,9 C 89 % 1019,3 hPa 0,0 l/m 9,8 km/h (2 Bft) SW 217 0 min 0,000 mm 0,0 UV-I 0 W/m -1,2 C -2,8 C 14,5 km/h (3 Bft) 95,74 %
13.12.2017 06:38 0,5 C 3,9 C 88 % 1019,4 hPa 0,0 l/m 8,8 km/h (2 Bft) SW 227 0 min 0,000 mm 0,0 UV-I 0 W/m -1,3 C -1,9 C 14,5 km/h (3 Bft) 97,87 %
13.12.2017 06:40 0,5 C 3,9 C 88 % 1019,4 hPa 0,0 l/m 8,7 km/h (2 Bft) W-SW 254 0 min 0,000 mm 0,0 UV-I 0 W/m -1,3 C -1,8 C 12,9 km/h (3 Bft) 97,87 %
13.12.2017 06:42 0,5 C 3,9 C 88 % 1019,4 hPa 0,0 l/m 8,5 km/h (2 Bft) SW 227 0 min 0,000 mm 0,0 UV-I 0 W/m -1,3 C -1,6 C 12,9 km/h (3 Bft) 97,87 %
13.12.2017 06:44 0,6 C 3,9 C 88 % 1019,5 hPa 0,0 l/m 8,7 km/h (2 Bft) W-SW 256 0 min 0,000 mm 0,0 UV-I 0 W/m -1,2 C -1,7 C 12,9 km/h (3 Bft) 97,87 %
13.12.2017 06:46 0,4 C 3,9 C 88 % 1019,5 hPa 0,0 l/m 8,7 km/h (2 Bft) W-SW 250 0 min 0,000 mm 0,0 UV-I 0 W/m -1,3 C -1,9 C 12,9 km/h (3 Bft) 97,87 %
13.12.2017 06:48 0,4 C 3,9 C 88 % 1019,5 hPa 0,0 l/m 8,3 km/h (2 Bft) W-SW 239 0 min 0,000 mm 0,0 UV-I 0 W/m -1,3 C -1,5 C 14,5 km/h (3 Bft) 97,87 %
13.12.2017 06:50 0,4 C 3,9 C 88 % 1019,5 hPa 0,0 l/m 8,7 km/h (2 Bft) W-SW 245 0 min 0,000 mm 0,0 UV-I 0 W/m -1,3 C -1,9 C 12,9 km/h (3 Bft) 97,87 %
13.12.2017 06:52 0,4 C 3,9 C 88 % 1019,5 hPa 0,0 l/m 10,0 km/h (2 Bft) SW 230 0 min 0,000 mm 0,0 UV-I 0 W/m -1,3 C -3,0 C 16,1 km/h (3 Bft) 97,87 %
13.12.2017 06:54 0,5 C 3,9 C 88 % 1019,5 hPa 0,0 l/m 9,6 km/h (2 Bft) W-SW 248 0 min 0,000 mm 0,0 UV-I 0 W/m -1,3 C -2,6 C 14,5 km/h (3 Bft) 97,87 %
13.12.2017 06:56 0,6 C 3,9 C 88 % 1019,5 hPa 0,0 l/m 10,1 km/h (2 Bft) W-SW 252 0 min 0,000 mm 0,0 UV-I 0 W/m -1,2 C -2,9 C 16,1 km/h (3 Bft) 95,74 %
13.12.2017 06:58 0,6 C 3,9 C 87 % 1019,5 hPa 0,0 l/m 10,1 km/h (2 Bft) W-SW 247 0 min 0,000 mm 0,0 UV-I 0 W/m -1,3 C -2,9 C 14,5 km/h (3 Bft) 97,87 %
13.12.2017 07:00 0,7 C 3,9 C 87 % 1019,4 hPa 0,0 l/m 14,5 km/h (3 Bft) W-SW 246 0 min 0,000 mm 0,0 UV-I 0 W/m -1,2 C -5,8 C 20,9 km/h (4 Bft) 97,87 %
13.12.2017 07:02 0,7 C 3,9 C 86 % 1019,4 hPa 0,0 l/m 13,3 km/h (3 Bft) W-SW 255 0 min 0,000 mm 0,0 UV-I 0 W/m -1,4 C -5,1 C 19,3 km/h (3 Bft) 98,00 %
13.12.2017 07:04 0,8 C 3,9 C 85 % 1019,5 hPa 0,0 l/m 12,9 km/h (3 Bft) W 268 0 min 0,000 mm 0,0 UV-I 0 W/m -1,4 C -4,7 C 17,7 km/h (3 Bft) 96,00 %
13.12.2017 07:06 0,9 C 3,9 C 85 % 1019,5 hPa 0,0 l/m 12,5 km/h (3 Bft) W 266 0 min 0,000 mm 0,0 UV-I 0 W/m -1,3 C -4,3 C 19,3 km/h (3 Bft) 95,74 %
13.12.2017 07:08 0,9 C 3,9 C 84 % 1019,6 hPa 0,0 l/m 13,3 km/h (3 Bft) W 261 0 min 0,000 mm 0,0 UV-I 0 W/m -1,5 C -4,8 C 17,7 km/h (3 Bft) 94,44 %
13.12.2017 07:10 1,0 C 3,9 C 84 % 1019,5 hPa 0,0 l/m 13,3 km/h (3 Bft) W-SW 255 0 min 0,000 mm 0,0 UV-I 0 W/m -1,4 C -4,7 C 19,3 km/h (3 Bft) 98,00 %
13.12.2017 07:12 1,1 C 3,9 C 84 % 1019,5 hPa 0,0 l/m 13,8 km/h (3 Bft) W-SW 250 0 min 0,000 mm 0,0 UV-I 0 W/m -1,3 C -4,9 C 20,9 km/h (4 Bft) 98,00 %
13.12.2017 07:14 1,1 C 3,9 C 83 % 1019,5 hPa 0,0 l/m 15,3 km/h (3 Bft) W-SW 257 0 min 0,000 mm 0,0 UV-I 0 W/m -1,5 C -5,8 C 20,9 km/h (4 Bft) 97,87 %
13.12.2017 07:16 1,1 C 3,9 C 83 % 1019,5 hPa 0,0 l/m 11,9 km/h (2 Bft) W 271 0 min 0,000 mm 0,0 UV-I 0 W/m -1,5 C -3,7 C 17,7 km/h (3 Bft) 91,49 %
13.12.2017 07:18 1,1 C 3,9 C 83 % 1019,5 hPa 0,0 l/m 10,8 km/h (2 Bft) W-SW 242 0 min 0,000 mm 0,0 UV-I 0 W/m -1,5 C -2,9 C 14,5 km/h (3 Bft) 97,87 %
13.12.2017 07:20 1,1 C 3,9 C 83 % 1019,5 hPa 0,0 l/m 11,2 km/h (2 Bft) W-SW 243 0 min 0,000 mm 0,0 UV-I 0 W/m -1,5 C -3,2 C 16,1 km/h (3 Bft) 97,87 %
13.12.2017 07:22 1,0 C 3,9 C 84 % 1019,6 hPa 0,0 l/m 9,0 km/h (2 Bft) W-SW 246 0 min 0,000 mm 0,0 UV-I 0 W/m -1,4 C -1,5 C 14,5 km/h (3 Bft) 97,87 %
13.12.2017 07:24 0,9 C 3,9 C 84 % 1019,6 hPa 0,0 l/m 9,2 km/h (2 Bft) SW 225 0 min 0,000 mm 0,0 UV-I 0 W/m -1,5 C -1,8 C 14,5 km/h (3 Bft) 97,87 %
13.12.2017 07:26 0,9 C 3,9 C 84 % 1019,6 hPa 0,0 l/m 7,5 km/h (2 Bft) SW 216 0 min 0,000 mm 0,0 UV-I 0 W/m -1,5 C -0,2 C 11,3 km/h (2 Bft) 95,74 %
13.12.2017 07:28 0,8 C 3,9 C 84 % 1019,7 hPa 0,0 l/m 6,4 km/h (2 Bft) SW 221 0 min 0,000 mm 0,0 UV-I 0 W/m -1,6 C 0,8 C 11,3 km/h (2 Bft) 95,74 %
13.12.2017 07:30 0,7 C 3,9 C 85 % 1019,6 hPa 0,0 l/m 6,4 km/h (2 Bft) SW 233 0 min 0,000 mm 0,0 UV-I 0 W/m -1,5 C 0,7 C 11,3 km/h (2 Bft) 96,00 %
13.12.2017 07:32 0,6 C 3,9 C 85 % 1019,7 hPa 0,0 l/m 7,4 km/h (2 Bft) S-SW 210 0 min 0,000 mm 0,0 UV-I 0 W/m -1,6 C -0,4 C 12,9 km/h (3 Bft) 97,37 %
13.12.2017 07:34 0,6 C 3,9 C 86 % 1019,7 hPa 0,0 l/m 6,2 km/h (2 Bft) W-SW 239 0 min 0,000 mm 0,0 UV-I 2 W/m -1,5 C 0,6 C 9,7 km/h (2 Bft) 97,87 %
13.12.2017 07:36 0,4 C 3,9 C 86 % 1019,7 hPa 0,0 l/m 6,4 km/h (2 Bft) W-SW 240 0 min 0,000 mm 0,0 UV-I 5 W/m -1,7 C 0,4 C 9,7 km/h (2 Bft) 97,87 %
13.12.2017 07:38 0,4 C 3,9 C 87 % 1019,7 hPa 0,0 l/m 6,3 km/h (2 Bft) W-SW 247 0 min 0,000 mm 0,0 UV-I 5 W/m -1,5 C 0,4 C 11,3 km/h (2 Bft) 98,00 %
13.12.2017 07:40 0,3 C 3,9 C 87 % 1019,8 hPa 0,0 l/m 8,1 km/h (2 Bft) SW 236 0 min 0,000 mm 0,0 UV-I 5 W/m -1,6 C -1,4 C 9,7 km/h (2 Bft) 97,87 %
13.12.2017 07:42 0,3 C 3,9 C 87 % 1019,8 hPa 0,0 l/m 8,6 km/h (2 Bft) SW 223 0 min 0,000 mm 0,0 UV-I 6 W/m -1,6 C -1,9 C 11,3 km/h (2 Bft) 96,00 %
13.12.2017 07:44 0,2 C 3,9 C 87 % 1019,8 hPa 0,0 l/m 6,3 km/h (2 Bft) SW 233 0 min 0,000 mm 0,0 UV-I 7 W/m -1,7 C 0,2 C 9,7 km/h (2 Bft) 95,74 %
13.12.2017 07:46 0,1 C 3,9 C 88 % 1019,8 hPa 0,0 l/m 5,2 km/h (1 Bft) W 266 0 min 0,000 mm 0,0 UV-I 7 W/m -1,6 C 0,1 C 6,4 km/h (2 Bft) 97,87 %
13.12.2017 07:48 0,0 C 3,9 C 88 % 1019,8 hPa 0,0 l/m 4,3 km/h (1 Bft) W 262 0 min 0,000 mm 0,0 UV-I 7 W/m -1,7 C 0,0 C 6,4 km/h (2 Bft) 95,74 %
13.12.2017 07:50 -0,2 C 3,9 C 89 % 1019,9 hPa 0,0 l/m 4,5 km/h (1 Bft) W 261 0 min 0,000 mm 0,0 UV-I 9 W/m -1,8 C -0,2 C 6,4 km/h (2 Bft) 93,75 %
13.12.2017 07:52 -0,3 C 3,9 C 89 % 1019,9 hPa 0,0 l/m 5,3 km/h (1 Bft) W 259 0 min 0,000 mm 0,0 UV-I 9 W/m -1,9 C -0,3 C 9,7 km/h (2 Bft) 95,74 %
13.12.2017 07:54 -0,2 C 3,9 C 90 % 1019,8 hPa 0,0 l/m 4,1 km/h (1 Bft) W-SW 240 0 min 0,000 mm 0,0 UV-I 11 W/m -1,6 C -0,2 C 6,4 km/h (2 Bft) 100,00 %
13.12.2017 07:56 -0,3 C 3,9 C 89 % 1019,8 hPa 0,0 l/m 4,7 km/h (1 Bft) SW 233 0 min 0,000 mm 0,0 UV-I 11 W/m -1,9 C -0,3 C 6,4 km/h (2 Bft) 97,87 %
13.12.2017 07:58 -0,3 C 3,9 C 90 % 1019,8 hPa 0,0 l/m 4,0 km/h (1 Bft) SW 232 2 min 0,000 mm 0,0 UV-I 11 W/m -1,7 C -0,3 C 6,4 km/h (2 Bft) 97,87 %
13.12.2017 08:00 -0,3 C 3,9 C 90 % 1019,9 hPa 0,0 l/m 4,2 km/h (1 Bft) SW 227 2 min 0,000 mm 0,0 UV-I 12 W/m -1,7 C -0,3 C 6,4 km/h (2 Bft) 100,00 %
13.12.2017 08:03 -0,3 C 3,9 C 90 % 1019,9 hPa 0,0 l/m 5,4 km/h (1 Bft) SW 221 0 min 0,000 mm 0,0 UV-I 12 W/m -1,7 C -0,3 C 8,0 km/h (2 Bft) 100,00 %
13.12.2017 08:04 -0,4 C 3,9 C 90 % 1019,9 hPa 0,0 l/m 5,8 km/h (2 Bft) SW 215 0 min 0,000 mm 0,0 UV-I 14 W/m -1,8 C -0,4 C 8,0 km/h (2 Bft) 100,00 %
13.12.2017 08:06 -0,4 C 3,9 C 90 % 1019,8 hPa 0,0 l/m 5,5 km/h (1 Bft) S-SW 211 0 min 0,000 mm 0,0 UV-I 14 W/m -1,8 C -0,4 C 6,4 km/h (2 Bft) 97,87 %
13.12.2017 08:08 -0,3 C 3,9 C 90 % 1019,9 hPa 0,0 l/m 6,2 km/h (2 Bft) SW 221 0 min 0,000 mm 0,0 UV-I 14 W/m -1,7 C -0,3 C 8,0 km/h (2 Bft) 97,87 %
13.12.2017 08:10 -0,3 C 3,9 C 89 % 1019,9 hPa 0,0 l/m 6,5 km/h (2 Bft) S-SW 209 0 min 0,000 mm 0,0 UV-I 15 W/m -1,9 C -0,4 C 9,7 km/h (2 Bft) 100,00 %
13.12.2017 08:12 -0,3 C 3,9 C 89 % 1019,9 hPa 0,0 l/m 5,9 km/h (2 Bft) S-SW 208 0 min 0,000 mm 0,0 UV-I 16 W/m -1,9 C -0,3 C 9,7 km/h (2 Bft) 97,14 %
13.12.2017 08:14 -0,3 C 3,9 C 89 % 1019,9 hPa 0,0 l/m 5,4 km/h (1 Bft) S-SW 204 0 min 0,000 mm 0,0 UV-I 16 W/m -1,9 C -0,3 C 9,7 km/h (2 Bft) 95,74 %
13.12.2017 08:16 -0,3 C 3,9 C 89 % 1019,8 hPa 0,0 l/m 6,3 km/h (2 Bft) S-SW 203 0 min 0,000 mm 0,0 UV-I 17 W/m -1,9 C -0,3 C 11,3 km/h (2 Bft) 97,87 %
13.12.2017 08:18 -0,2 C 3,9 C 89 % 1019,8 hPa 0,0 l/m 3,7 km/h (1 Bft) S-SW 213 0 min 0,000 mm 0,0 UV-I 18 W/m -1,8 C -0,2 C 6,4 km/h (2 Bft) 97,87 %
13.12.2017 08:20 -0,3 C 3,9 C 89 % 1019,7 hPa 0,0 l/m 4,2 km/h (1 Bft) S-SW 213 0 min 0,000 mm 0,0 UV-I 18 W/m -1,9 C -0,3 C 6,4 km/h (2 Bft) 100,00 %
13.12.2017 08:22 -0,3 C 3,9 C 89 % 1019,7 hPa 0,0 l/m 3,5 km/h (1 Bft) S-SW 213 0 min 0,000 mm 0,0 UV-I 19 W/m -1,9 C -0,3 C 4,8 km/h (1 Bft) 95,74 %
13.12.2017 08:24 -0,3 C 3,9 C 89 % 1019,7 hPa 0,0 l/m 3,8 km/h (1 Bft) S-SW 213 0 min 0,000 mm 0,0 UV-I 21 W/m -1,9 C -0,3 C 6,4 km/h (2 Bft) 97,92 %
13.12.2017 08:26 -0,3 C 3,9 C 89 % 1019,6 hPa 0,0 l/m 3,2 km/h (1 Bft) S-SW 213 0 min 0,000 mm 0,0 UV-I 27 W/m -1,9 C -0,3 C 6,4 km/h (2 Bft) 100,00 %
13.12.2017 08:28 -0,3 C 3,9 C 89 % 1019,7 hPa 0,0 l/m 3,3 km/h (1 Bft) S-SW 212 0 min 0,000 mm 0,0 UV-I 29 W/m -1,9 C -0,3 C 4,8 km/h (1 Bft) 98,00 %
13.12.2017 08:30 -0,3 C 3,9 C 89 % 1019,6 hPa 0,0 l/m 2,1 km/h (1 Bft) S-SW 212 2 min 0,000 mm 0,0 UV-I 65 W/m -1,9 C -0,3 C 6,4 km/h (2 Bft) 100,00 %
13.12.2017 08:32 -0,3 C 3,9 C 89 % 1019,6 hPa 0,0 l/m 2,4 km/h (1 Bft) S-SW 209 2 min 0,000 mm 0,0 UV-I 86 W/m -1,9 C -0,3 C 6,4 km/h (2 Bft) 100,00 %
13.12.2017 08:34 -0,2 C 3,9 C 89 % 1019,5 hPa 0,0 l/m 3,2 km/h (1 Bft) S-SW 209 2 min 0,000 mm 0,0 UV-I 94 W/m -1,8 C -0,2 C 6,4 km/h (2 Bft) 97,87 %
13.12.2017 08:36 -0,1 C 3,9 C 88 % 1019,5 hPa 0,0 l/m 3,1 km/h (1 Bft) S-SW 209 2 min 0,000 mm 0,0 UV-I 96 W/m -1,8 C -0,1 C 4,8 km/h (1 Bft) 97,87 %
13.12.2017 08:38 0,0 C 3,9 C 88 % 1019,5 hPa 0,0 l/m 3,7 km/h (1 Bft) S-SW 209 2 min 0,000 mm 0,0 UV-I 100 W/m -1,7 C 0,0 C 6,4 km/h (2 Bft) 100,00 %
13.12.2017 08:40 0,1 C 3,9 C 88 % 1019,5 hPa 0,0 l/m 3,0 km/h (1 Bft) S-SW 209 2 min 0,000 mm 0,0 UV-I 104 W/m -1,6 C 0,1 C 4,8 km/h (1 Bft) 100,00 %
13.12.2017 08:42 0,2 C 3,9 C 87 % 1019,5 hPa 0,0 l/m 3,6 km/h (1 Bft) S-SW 209 2 min 0,000 mm 0,0 UV-I 108 W/m -1,7 C 0,2 C 4,8 km/h (1 Bft) 97,87 %
13.12.2017 08:44 0,3 C 3,9 C 87 % 1019,5 hPa 0,0 l/m 2,3 km/h (1 Bft) S-SW 209 2 min 0,000 mm 0,0 UV-I 112 W/m -1,6 C 0,3 C 3,2 km/h (1 Bft) 97,87 %
13.12.2017 08:46 0,2 C 3,9 C 87 % 1019,4 hPa 0,0 l/m 3,1 km/h (1 Bft) S-SW 209 2 min 0,000 mm 0,0 UV-I 116 W/m -1,7 C 0,2 C 4,8 km/h (1 Bft) 100,00 %
13.12.2017 08:48 0,3 C 3,9 C 87 % 1019,4 hPa 0,0 l/m 3,2 km/h (1 Bft) S-SW 209 2 min 0,000 mm 0,0 UV-I 119 W/m -1,6 C 0,3 C 4,8 km/h (1 Bft) 97,87 %
13.12.2017 08:50 0,3 C 3,9 C 86 % 1019,4 hPa 0,0 l/m 2,9 km/h (1 Bft) S-SW 203 2 min 0,000 mm 0,0 UV-I 123 W/m -1,8 C 0,3 C 4,8 km/h (1 Bft) 100,00 %
13.12.2017 08:52 0,4 C 3,9 C 86 % 1019,4 hPa 0,0 l/m 3,2 km/h (1 Bft) S-SW 202 2 min 0,000 mm 0,0 UV-I 127 W/m -1,7 C 0,4 C 4,8 km/h (1 Bft) 95,74 %
13.12.2017 08:54 0,4 C 3,9 C 86 % 1019,4 hPa 0,0 l/m 3,0 km/h (1 Bft) S-SW 202 2 min 0,000 mm 0,0 UV-I 132 W/m -1,7 C 0,4 C 4,8 km/h (1 Bft) 100,00 %
13.12.2017 08:56 0,5 C 3,9 C 86 % 1019,4 hPa 0,0 l/m 3,4 km/h (1 Bft) S 179 2 min 0,000 mm 0,0 UV-I 135 W/m -1,6 C 0,5 C 4,8 km/h (1 Bft) 100,00 %
13.12.2017 08:58 0,6 C 3,9 C 85 % 1019,3 hPa 0,0 l/m 2,8 km/h (1 Bft) S-SW 192 2 min 0,000 mm 0,0 UV-I 140 W/m -1,6 C 0,6 C 6,4 km/h (2 Bft) 97,87 %
13.12.2017 09:00 0,6 C 3,9 C 85 % 1019,3 hPa 0,0 l/m 2,3 km/h (1 Bft) S-SW 194 2 min 0,025 mm 0,0 UV-I 144 W/m -1,6 C 0,6 C 4,8 km/h (1 Bft) 100,00 %
13.12.2017 09:02 0,7 C 3,9 C 85 % 1019,3 hPa 0,0 l/m 2,3 km/h (1 Bft) S-SW 195 2 min 0,000 mm 0,0 UV-I 148 W/m -1,5 C 0,7 C 6,4 km/h (2 Bft) 100,00 %
13.12.2017 09:04 0,7 C 3,9 C 84 % 1019,4 hPa 0,0 l/m 2,7 km/h (1 Bft) S-SW 195 2 min 0,000 mm 0,0 UV-I 152 W/m -1,7 C 0,7 C 4,8 km/h (1 Bft) 100,00 %
13.12.2017 09:06 0,8 C 3,9 C 84 % 1019,4 hPa 0,0 l/m 3,3 km/h (1 Bft) S-SW 195 2 min 0,000 mm 0,0 UV-I 156 W/m -1,6 C 0,8 C 6,4 km/h (2 Bft) 95,74 %
13.12.2017 09:08 0,8 C 3,9 C 84 % 1019,4 hPa 0,0 l/m 2,5 km/h (1 Bft) S-SW 194 2 min 0,000 mm 0,0 UV-I 160 W/m -1,6 C 0,8 C 4,8 km/h (1 Bft) 100,00 %
13.12.2017 09:10 0,9 C 3,9 C 84 % 1019,4 hPa 0,0 l/m 2,0 km/h (1 Bft) W-SW 244 2 min 0,000 mm 0,0 UV-I 163 W/m -1,5 C 0,9 C 6,4 km/h (2 Bft) 97,87 %
13.12.2017 09:12 0,9 C 3,9 C 84 % 1019,3 hPa 0,0 l/m 1,0 km/h (0 Bft) W-SW 245 2 min 0,000 mm 0,0 UV-I 167 W/m -1,5 C 0,9 C 3,2 km/h (1 Bft) 98,00 %
13.12.2017 09:14 1,0 C 3,9 C 84 % 1019,3 hPa 0,0 l/m 2,7 km/h (1 Bft) SW 219 2 min 0,000 mm 0,0 UV-I 171 W/m -1,4 C 1,0 C 6,4 km/h (2 Bft) 100,00 %
13.12.2017 09:16 1,1 C 3,9 C 83 % 1019,2 hPa 0,0 l/m 0,9 km/h (0 Bft) SW 219 2 min 0,000 mm 0,0 UV-I 174 W/m -1,5 C 1,1 C 3,2 km/h (1 Bft) 97,87 %
13.12.2017 09:18 1,1 C 3,9 C 83 % 1019,3 hPa 0,0 l/m 1,2 km/h (1 Bft) SW 219 2 min 0,000 mm 0,0 UV-I 178 W/m -1,5 C 1,1 C 3,2 km/h (1 Bft) 91,49 %
13.12.2017 09:20 1,2 C 3,9 C 82 % 1019,2 hPa 0,0 l/m 0,1 km/h (0 Bft) SW 219 2 min 0,000 mm 0,0 UV-I 181 W/m -1,5 C 1,2 C 1,6 km/h (1 Bft) 98,00 %
13.12.2017 09:22 1,3 C 3,9 C 82 % 1019,2 hPa 0,0 l/m 2,1 km/h (1 Bft) SW 219 2 min 0,000 mm 0,0 UV-I 185 W/m -1,4 C 1,3 C 4,8 km/h (1 Bft) 95,74 %
13.12.2017 09:24 1,4 C 3,9 C 81 % 1019,2 hPa 0,0 l/m 2,2 km/h (1 Bft) SW 219 2 min 0,000 mm 0,0 UV-I 188 W/m -1,5 C 1,4 C 3,2 km/h (1 Bft) 95,74 %
13.12.2017 09:26 1,4 C 3,9 C 81 % 1019,2 hPa 0,0 l/m 3,8 km/h (1 Bft) W-SW 257 2 min 0,000 mm 0,0 UV-I 192 W/m -1,5 C 1,4 C 6,4 km/h (2 Bft) 95,74 %
13.12.2017 09:28 1,4 C 3,9 C 81 % 1019,2 hPa 0,0 l/m 1,3 km/h (1 Bft) W-SW 257 2 min 0,000 mm 0,0 UV-I 195 W/m -1,5 C 1,4 C 3,2 km/h (1 Bft) 95,74 %
13.12.2017 09:30 1,4 C 3,9 C 82 % 1019,1 hPa 0,0 l/m 0,7 km/h (0 Bft) W-SW 257 2 min 0,000 mm 0,0 UV-I 199 W/m -1,3 C 1,4 C 1,6 km/h (1 Bft) 97,87 %
13.12.2017 09:32 1,2 C 3,9 C 84 % 1019,1 hPa 0,0 l/m 1,7 km/h (1 Bft) W-SW 257 2 min 0,000 mm 0,0 UV-I 202 W/m -1,2 C 1,2 C 3,2 km/h (1 Bft) 97,56 %
13.12.2017 09:34 1,0 C 3,9 C 85 % 1019,1 hPa 0,0 l/m 2,8 km/h (1 Bft) W-SW 257 2 min 0,000 mm 0,0 UV-I 205 W/m -1,2 C 1,0 C 4,8 km/h (1 Bft) 95,74 %
13.12.2017 09:36 0,8 C 3,9 C 86 % 1019,1 hPa 0,0 l/m 3,8 km/h (1 Bft) N-NO 16 2 min 0,000 mm 0,0 UV-I 209 W/m -1,3 C 0,8 C 4,8 km/h (1 Bft) 97,87 %
13.12.2017 09:38 0,7 C 3,9 C 87 % 1019,1 hPa 0,0 l/m 3,6 km/h (1 Bft) N-NO 16 2 min 0,000 mm 0,0 UV-I 213 W/m -1,2 C 0,7 C 4,8 km/h (1 Bft) 97,87 %
13.12.2017 09:40 0,7 C 3,9 C 88 % 1019,1 hPa 0,0 l/m 4,1 km/h (1 Bft) N-NO 16 2 min 0,000 mm 0,0 UV-I 215 W/m -1,1 C 0,7 C 6,4 km/h (2 Bft) 97,87 %
13.12.2017 09:42 0,7 C 3,9 C 88 % 1019,0 hPa 0,0 l/m 4,9 km/h (1 Bft) N-NO 23 2 min 0,000 mm 0,0 UV-I 220 W/m -1,1 C 0,7 C 6,4 km/h (2 Bft) 98,00 %
13.12.2017 09:44 0,8 C 3,9 C 89 % 1019,0 hPa 0,0 l/m 5,7 km/h (1 Bft) N-NO 27 2 min 0,000 mm 0,0 UV-I 224 W/m -0,8 C 0,8 C 6,4 km/h (2 Bft) 93,62 %
13.12.2017 09:46 0,8 C 3,9 C 89 % 1019,0 hPa 0,0 l/m 4,4 km/h (1 Bft) N-NO 27 2 min 0,000 mm 0,0 UV-I 226 W/m -0,8 C 0,8 C 4,8 km/h (1 Bft) 94,44 %
13.12.2017 09:48 0,8 C 3,9 C 89 % 1019,0 hPa 0,0 l/m 3,9 km/h (1 Bft) N-NO 30 2 min 0,000 mm 0,0 UV-I 230 W/m -0,8 C 0,8 C 6,4 km/h (2 Bft) 100,00 %
13.12.2017 09:50 0,8 C 3,9 C 89 % 1019,0 hPa 0,0 l/m 4,5 km/h (1 Bft) NO 34 2 min 0,000 mm 0,0 UV-I 234 W/m -0,8 C 0,8 C 6,4 km/h (2 Bft) 97,87 %
13.12.2017 09:52 0,9 C 3,9 C 88 % 1018,9 hPa 0,0 l/m 4,3 km/h (1 Bft) NO 34 2 min 0,000 mm 0,0 UV-I 237 W/m -0,9 C 0,9 C 6,4 km/h (2 Bft) 100,00 %
13.12.2017 09:54 1,1 C 3,9 C 88 % 1018,9 hPa 0,0 l/m 4,2 km/h (1 Bft) NO 34 2 min 0,000 mm 0,0 UV-I 235 W/m -0,7 C 1,1 C 4,8 km/h (1 Bft) 98,00 %
13.12.2017 09:56 1,2 C 3,9 C 87 % 1018,9 hPa 0,0 l/m 3,5 km/h (1 Bft) NO 34 2 min 0,000 mm 0,0 UV-I 234 W/m -0,7 C 1,2 C 4,8 km/h (1 Bft) 100,00 %
13.12.2017 09:58 1,2 C 3,9 C 87 % 1018,9 hPa 0,0 l/m 3,1 km/h (1 Bft) NO 34 2 min 0,000 mm 0,0 UV-I 244 W/m -0,7 C 1,2 C 4,8 km/h (1 Bft) 97,87 %
13.12.2017 10:00 1,2 C 3,9 C 86 % 1018,9 hPa 0,0 l/m 2,9 km/h (1 Bft) NO 34 2 min 0,077 mm 0,0 UV-I 245 W/m -0,9 C 1,2 C 4,8 km/h (1 Bft) 100,00 %
13.12.2017 10:02 1,3 C 3,9 C 85 % 1018,9 hPa 0,0 l/m 3,2 km/h (1 Bft) NO 34 2 min 0,000 mm 0,0 UV-I 252 W/m -0,9 C 1,3 C 4,8 km/h (1 Bft) 100,00 %
13.12.2017 10:04 1,3 C 3,9 C 85 % 1018,8 hPa 0,0 l/m 3,1 km/h (1 Bft) NO 34 2 min 0,000 mm 0,0 UV-I 256 W/m -0,9 C 1,3 C 4,8 km/h (1 Bft) 100,00 %
13.12.2017 10:06 1,4 C 3,9 C 85 % 1018,8 hPa 0,0 l/m 3,3 km/h (1 Bft) NO 34 2 min 0,000 mm 0,0 UV-I 259 W/m -0,8 C 1,4 C 4,8 km/h (1 Bft) 97,87 %
13.12.2017 10:08 1,5 C 3,9 C 85 % 1018,9 hPa 0,0 l/m 3,3 km/h (1 Bft) NO 34 2 min 0,000 mm 0,0 UV-I 263 W/m -0,7 C 1,5 C 4,8 km/h (1 Bft) 100,00 %
13.12.2017 10:10 1,5 C 3,9 C 85 % 1018,9 hPa 0,0 l/m 3,1 km/h (1 Bft) NO 34 2 min 0,000 mm 0,0 UV-I 265 W/m -0,7 C 1,5 C 6,4 km/h (2 Bft) 100,00 %
13.12.2017 10:12 1,5 C 3,9 C 85 % 1018,8 hPa 0,0 l/m 5,1 km/h (1 Bft) NO 34 2 min 0,000 mm 0,0 UV-I 269 W/m -0,7 C 1,5 C 6,4 km/h (2 Bft) 100,00 %
13.12.2017 10:14 1,5 C 3,9 C 86 % 1018,9 hPa 0,0 l/m 4,3 km/h (1 Bft) NO 34 2 min 0,000 mm 0,0 UV-I 273 W/m -0,6 C 1,5 C 6,4 km/h (2 Bft) 95,74 %
13.12.2017 10:16 1,6 C 3,9 C 86 % 1018,9 hPa 0,0 l/m 4,4 km/h (1 Bft) NO 34 2 min 0,000 mm 0,0 UV-I 276 W/m -0,5 C 1,6 C 4,8 km/h (1 Bft) 97,87 %
13.12.2017 10:18 1,6 C 3,9 C 86 % 1018,9 hPa 0,0 l/m 3,9 km/h (1 Bft) NO 34 2 min 0,000 mm 0,0 UV-I 278 W/m -0,5 C 1,6 C 4,8 km/h (1 Bft) 100,00 %
13.12.2017 10:20 1,7 C 3,9 C 86 % 1018,9 hPa 0,0 l/m 5,1 km/h (1 Bft) NO 36 2 min 0,000 mm 0,0 UV-I 280 W/m -0,4 C 1,7 C 6,4 km/h (2 Bft) 100,00 %
13.12.2017 10:22 1,7 C 3,9 C 86 % 1018,8 hPa 0,0 l/m 4,6 km/h (1 Bft) NO 36 2 min 0,000 mm 0,0 UV-I 279 W/m -0,4 C 1,7 C 6,4 km/h (2 Bft) 100,00 %
13.12.2017 10:24 1,7 C 3,9 C 86 % 1018,9 hPa 0,0 l/m 5,8 km/h (2 Bft) N-NO 24 2 min 0,000 mm 0,0 UV-I 262 W/m -0,4 C 1,7 C 8,0 km/h (2 Bft) 100,00 %
13.12.2017 10:26 1,7 C 3,9 C 86 % 1018,8 hPa 0,0 l/m 5,5 km/h (1 Bft) N-NO 24 2 min 0,000 mm 0,0 UV-I 248 W/m -0,4 C 1,7 C 6,4 km/h (2 Bft) 98,00 %
13.12.2017 10:28 1,7 C 3,9 C 86 % 1018,8 hPa 0,0 l/m 6,5 km/h (2 Bft) NO 42 2 min 0,000 mm 0,0 UV-I 235 W/m -0,4 C 1,6 C 8,0 km/h (2 Bft) 100,00 %
13.12.2017 10:30 1,7 C 3,9 C 85 % 1018,8 hPa 0,0 l/m 6,5 km/h (2 Bft) NO 42 2 min 0,000 mm 0,0 UV-I 225 W/m -0,5 C 1,6 C 8,0 km/h (2 Bft) 100,00 %
13.12.2017 10:32 1,7 C 3,9 C 86 % 1018,8 hPa 0,0 l/m 5,7 km/h (1 Bft) NO 41 2 min 0,000 mm 0,2 UV-I 233 W/m -0,4 C 1,7 C 8,0 km/h (2 Bft) 100,00 %
13.12.2017 10:34 1,7 C 3,9 C 86 % 1018,7 hPa 0,0 l/m 6,5 km/h (2 Bft) NO 46 2 min 0,000 mm 0,5 UV-I 239 W/m -0,4 C 1,6 C 8,0 km/h (2 Bft) 100,00 %
13.12.2017 10:36 1,7 C 3,9 C 86 % 1018,7 hPa 0,0 l/m 5,8 km/h (2 Bft) NO 39 2 min 0,000 mm 0,5 UV-I 263 W/m -0,4 C 1,7 C 8,0 km/h (2 Bft) 100,00 %
13.12.2017 10:38 1,8 C 3,9 C 85 % 1018,7 hPa 0,0 l/m 5,2 km/h (1 Bft) NO 42 2 min 0,000 mm 0,5 UV-I 299 W/m -0,4 C 1,8 C 6,4 km/h (2 Bft) 100,00 %
13.12.2017 10:40 1,8 C 3,9 C 86 % 1018,7 hPa 0,0 l/m 5,5 km/h (1 Bft) NO 40 2 min 0,000 mm 0,5 UV-I 310 W/m -0,3 C 1,8 C 6,4 km/h (2 Bft) 100,00 %
13.12.2017 10:42 1,9 C 3,9 C 85 % 1018,6 hPa 0,0 l/m 5,1 km/h (1 Bft) NO 40 2 min 0,000 mm 0,5 UV-I 285 W/m -0,3 C 1,9 C 6,4 km/h (2 Bft) 100,00 %
13.12.2017 10:44 2,0 C 3,9 C 85 % 1018,6 hPa 0,0 l/m 5,1 km/h (1 Bft) NO 40 2 min 0,000 mm 0,5 UV-I 267 W/m -0,3 C 2,0 C 6,4 km/h (2 Bft) 97,14 %
13.12.2017 10:46 1,9 C 3,9 C 85 % 1018,5 hPa 0,0 l/m 5,1 km/h (1 Bft) NO 40 2 min 0,000 mm 0,5 UV-I 282 W/m -0,3 C 1,9 C 6,4 km/h (2 Bft) 98,11 %
13.12.2017 10:48 2,0 C 3,9 C 85 % 1018,5 hPa 0,0 l/m 5,3 km/h (1 Bft) NO 40 2 min 0,000 mm 0,5 UV-I 308 W/m -0,3 C 2,0 C 6,4 km/h (2 Bft) 96,00 %
13.12.2017 10:50 2,2 C 3,9 C 84 % 1018,4 hPa 0,0 l/m 4,5 km/h (1 Bft) NO 40 2 min 0,000 mm 0,5 UV-I 312 W/m -0,2 C 2,2 C 6,4 km/h (2 Bft) 95,74 %
13.12.2017 10:52 2,2 C 3,9 C 83 % 1018,4 hPa 0,0 l/m 5,3 km/h (1 Bft) NO 40 2 min 0,000 mm 0,5 UV-I 286 W/m -0,4 C 2,2 C 6,4 km/h (2 Bft) 93,62 %
13.12.2017 10:54 2,2 C 3,9 C 83 % 1018,3 hPa 0,0 l/m 5,3 km/h (1 Bft) NO 54 2 min 0,000 mm 0,5 UV-I 256 W/m -0,4 C 2,2 C 8,0 km/h (2 Bft) 93,62 %
13.12.2017 10:56 2,2 C 3,9 C 83 % 1018,3 hPa 0,0 l/m 5,0 km/h (1 Bft) NO 54 2 min 0,000 mm 0,5 UV-I 243 W/m -0,4 C 2,2 C 6,4 km/h (2 Bft) 94,29 %
13.12.2017 10:58 2,2 C 3,9 C 84 % 1018,3 hPa 0,0 l/m 3,3 km/h (1 Bft) NO 54 2 min 0,000 mm 0,5 UV-I 306 W/m -0,2 C 2,2 C 4,8 km/h (1 Bft) 92,00 %
13.12.2017 11:00 2,3 C 3,9 C 84 % 1018,3 hPa 0,0 l/m 2,9 km/h (1 Bft) NO 54 2 min 0,000 mm 0,5 UV-I 250 W/m -0,1 C 2,3 C 4,8 km/h (1 Bft) 95,74 %
13.12.2017 11:02 2,3 C 3,9 C 84 % 1018,3 hPa 0,0 l/m 1,5 km/h (1 Bft) NO 54 2 min 0,101 mm 0,5 UV-I 256 W/m -0,1 C 2,3 C 3,2 km/h (1 Bft) 92,45 %
13.12.2017 11:04 2,3 C 3,9 C 84 % 1018,2 hPa 0,0 l/m 2,5 km/h (1 Bft) NO 54 2 min 0,000 mm 0,5 UV-I 288 W/m -0,1 C 2,3 C 4,8 km/h (1 Bft) 95,74 %
13.12.2017 11:06 2,3 C 3,9 C 85 % 1018,1 hPa 0,0 l/m 2,2 km/h (1 Bft) NO 54 2 min 0,000 mm 0,5 UV-I 276 W/m 0,0 C 2,3 C 3,2 km/h (1 Bft) 93,62 %
13.12.2017 11:08 2,4 C 3,9 C 85 % 1018,0 hPa 0,0 l/m 1,2 km/h (1 Bft) NO 54 2 min 0,000 mm 0,6 UV-I 302 W/m 0,1 C 2,4 C 3,2 km/h (1 Bft) 93,75 %
13.12.2017 11:10 2,6 C 3,9 C 85 % 1018,0 hPa 0,0 l/m 1,1 km/h (1 Bft) NO 54 2 min 0,000 mm 0,6 UV-I 261 W/m 0,3 C 2,6 C 3,2 km/h (1 Bft) 97,87 %
13.12.2017 11:12 2,7 C 3,9 C 85 % 1018,0 hPa 0,0 l/m 1,0 km/h (0 Bft) NO 54 2 min 0,000 mm 0,6 UV-I 321 W/m 0,4 C 2,7 C 3,2 km/h (1 Bft) 97,37 %
13.12.2017 11:14 2,8 C 3,9 C 85 % 1018,0 hPa 0,0 l/m 2,6 km/h (1 Bft) NO 54 2 min 0,000 mm 0,6 UV-I 366 W/m 0,5 C 2,8 C 3,2 km/h (1 Bft) 98,00 %
13.12.2017 11:16 2,9 C 3,9 C 85 % 1018,0 hPa 0,0 l/m 1,4 km/h (1 Bft) NO 54 2 min 0,000 mm 0,6 UV-I 367 W/m 0,6 C 2,9 C 3,2 km/h (1 Bft) 95,74 %
13.12.2017 11:18 2,9 C 3,9 C 84 % 1017,9 hPa 0,0 l/m 3,4 km/h (1 Bft) NO 54 2 min 0,000 mm 0,6 UV-I 355 W/m 0,5 C 2,9 C 4,8 km/h (1 Bft) 97,87 %
13.12.2017 11:20 3,0 C 3,9 C 84 % 1017,9 hPa 0,0 l/m 4,2 km/h (1 Bft) NO 53 2 min 0,000 mm 0,6 UV-I 331 W/m 0,6 C 3,0 C 6,4 km/h (2 Bft) 97,87 %
13.12.2017 11:22 2,9 C 3,9 C 82 % 1017,9 hPa 0,0 l/m 4,1 km/h (1 Bft) NO 41 2 min 0,000 mm 0,6 UV-I 315 W/m 0,1 C 2,9 C 6,4 km/h (2 Bft) 96,00 %
13.12.2017 11:24 2,9 C 3,9 C 83 % 1017,8 hPa 0,0 l/m 3,7 km/h (1 Bft) N-NO 32 2 min 0,000 mm 0,6 UV-I 307 W/m 0,3 C 2,9 C 6,4 km/h (2 Bft) 95,74 %
13.12.2017 11:26 2,9 C 3,9 C 82 % 1017,8 hPa 0,0 l/m 4,8 km/h (1 Bft) N-NO 32 2 min 0,000 mm 0,6 UV-I 336 W/m 0,1 C 2,9 C 6,4 km/h (2 Bft) 96,00 %
13.12.2017 11:28 3,0 C 3,9 C 82 % 1017,9 hPa 0,0 l/m 3,2 km/h (1 Bft) N-NO 32 2 min 0,000 mm 0,6 UV-I 338 W/m 0,2 C 3,0 C 6,4 km/h (2 Bft) 100,00 %
13.12.2017 11:30 3,1 C 3,9 C 82 % 1017,9 hPa 0,0 l/m 3,3 km/h (1 Bft) N-NO 32 2 min 0,000 mm 0,6 UV-I 335 W/m 0,3 C 3,1 C 4,8 km/h (1 Bft) 96,92 %
13.12.2017 11:32 3,1 C 3,9 C 82 % 1017,8 hPa 0,0 l/m 4,0 km/h (1 Bft) NO 46 2 min 0,000 mm 0,6 UV-I 334 W/m 0,3 C 3,1 C 8,0 km/h (2 Bft) 97,87 %
13.12.2017 11:34 3,1 C 3,9 C 82 % 1017,8 hPa 0,0 l/m 3,7 km/h (1 Bft) NO 40 2 min 0,000 mm 0,6 UV-I 334 W/m 0,3 C 3,1 C 6,4 km/h (2 Bft) 100,00 %
13.12.2017 11:36 3,1 C 3,9 C 82 % 1017,8 hPa 0,0 l/m 2,9 km/h (1 Bft) N-NO 30 2 min 0,000 mm 0,6 UV-I 337 W/m 0,3 C 3,1 C 6,4 km/h (2 Bft) 100,00 %
13.12.2017 11:38 3,1 C 3,9 C 83 % 1017,8 hPa 0,0 l/m 4,1 km/h (1 Bft) NO 40 2 min 0,000 mm 0,6 UV-I 334 W/m 0,5 C 3,1 C 8,0 km/h (2 Bft) 100,00 %
13.12.2017 11:40 3,1 C 3,9 C 82 % 1017,8 hPa 0,0 l/m 5,0 km/h (1 Bft) NO 39 2 min 0,000 mm 0,6 UV-I 336 W/m 0,3 C 3,1 C 8,0 km/h (2 Bft) 100,00 %
13.12.2017 11:42 3,1 C 3,9 C 83 % 1017,7 hPa 0,0 l/m 3,6 km/h (1 Bft) N-NO 26 2 min 0,000 mm 0,6 UV-I 335 W/m 0,5 C 3,1 C 6,4 km/h (2 Bft) 97,92 %
13.12.2017 11:44 3,1 C 3,9 C 83 % 1017,7 hPa 0,0 l/m 6,0 km/h (2 Bft) NO 51 2 min 0,000 mm 0,6 UV-I 335 W/m 0,5 C 3,1 C 8,0 km/h (2 Bft) 100,00 %
13.12.2017 11:46 3,1 C 3,9 C 81 % 1017,7 hPa 0,0 l/m 4,9 km/h (1 Bft) NO 46 2 min 0,000 mm 0,6 UV-I 334 W/m 0,2 C 3,1 C 6,4 km/h (2 Bft) 95,74 %
13.12.2017 11:48 3,2 C 3,9 C 82 % 1017,7 hPa 0,0 l/m 4,6 km/h (1 Bft) N-NO 30 2 min 0,000 mm 0,6 UV-I 335 W/m 0,4 C 3,2 C 6,4 km/h (2 Bft) 94,00 %
13.12.2017 11:50 3,2 C 3,9 C 82 % 1017,6 hPa 0,0 l/m 4,0 km/h (1 Bft) N-NO 26 2 min 0,000 mm 0,6 UV-I 336 W/m 0,4 C 3,2 C 6,4 km/h (2 Bft) 100,00 %
13.12.2017 11:52 3,2 C 3,9 C 81 % 1017,6 hPa 0,0 l/m 4,1 km/h (1 Bft) NO 49 2 min 0,000 mm 0,6 UV-I 336 W/m 0,3 C 3,2 C 4,8 km/h (1 Bft) 100,00 %
13.12.2017 11:54 3,3 C 3,9 C 82 % 1017,4 hPa 0,0 l/m 4,7 km/h (1 Bft) NO 54 2 min 0,000 mm 0,6 UV-I 337 W/m 0,5 C 3,3 C 8,0 km/h (2 Bft) 100,00 %
13.12.2017 11:56 3,3 C 3,9 C 79 % 1017,4 hPa 0,0 l/m 6,1 km/h (2 Bft) O 83 2 min 0,000 mm 0,6 UV-I 336 W/m 0,0 C 3,3 C 8,0 km/h (2 Bft) 98,00 %
13.12.2017 11:58 3,3 C 3,9 C 78 % 1017,4 hPa 0,0 l/m 5,1 km/h (1 Bft) O-NO 60 2 min 0,000 mm 0,6 UV-I 336 W/m -0,2 C 3,3 C 6,4 km/h (2 Bft) 100,00 %
13.12.2017 12:00 3,3 C 3,9 C 78 % 1017,4 hPa 0,0 l/m 6,0 km/h (2 Bft) NO 49 2 min 0,127 mm 0,6 UV-I 338 W/m -0,2 C 3,3 C 8,0 km/h (2 Bft) 100,00 %
13.12.2017 12:02 3,4 C 3,9 C 79 % 1017,4 hPa 0,0 l/m 6,5 km/h (2 Bft) NO 36 2 min 0,000 mm 0,6 UV-I 339 W/m 0,1 C 3,3 C 12,9 km/h (3 Bft) 95,74 %
13.12.2017 12:04 3,6 C 3,9 C 79 % 1017,3 hPa 0,0 l/m 5,8 km/h (2 Bft) N-NO 28 2 min 0,000 mm 0,6 UV-I 341 W/m 0,3 C 3,6 C 8,0 km/h (2 Bft) 97,87 %
13.12.2017 12:06 3,5 C 3,9 C 78 % 1017,3 hPa 0,0 l/m 5,5 km/h (1 Bft) NO 38 2 min 0,000 mm 0,6 UV-I 346 W/m 0,0 C 3,5 C 9,7 km/h (2 Bft) 91,49 %
13.12.2017 12:08 3,5 C 3,9 C 78 % 1017,3 hPa 0,0 l/m 7,6 km/h (2 Bft) O-NO 70 2 min 0,000 mm 0,6 UV-I 354 W/m 0,0 C 2,4 C 9,7 km/h (2 Bft) 97,87 %
13.12.2017 12:10 3,4 C 3,9 C 79 % 1017,2 hPa 0,0 l/m 6,9 km/h (2 Bft) O-NO 61 2 min 0,000 mm 0,6 UV-I 366 W/m 0,1 C 2,9 C 9,7 km/h (2 Bft) 96,00 %
13.12.2017 12:12 3,4 C 3,9 C 78 % 1017,2 hPa 0,0 l/m 5,6 km/h (1 Bft) NO 51 2 min 0,000 mm 0,6 UV-I 382 W/m -0,1 C 3,4 C 8,0 km/h (2 Bft) 98,00 %
13.12.2017 12:14 3,4 C 3,9 C 79 % 1017,1 hPa 0,0 l/m 7,0 km/h (2 Bft) O-NO 70 2 min 0,000 mm 0,6 UV-I 385 W/m 0,1 C 2,8 C 9,7 km/h (2 Bft) 97,87 %
13.12.2017 12:16 3,5 C 3,9 C 78 % 1017,1 hPa 0,0 l/m 6,5 km/h (2 Bft) O-NO 71 2 min 0,000 mm 0,6 UV-I 332 W/m 0,0 C 3,4 C 9,7 km/h (2 Bft) 97,87 %
13.12.2017 12:18 3,4 C 3,9 C 78 % 1017,0 hPa 0,0 l/m 7,1 km/h (2 Bft) O-NO 63 2 min 0,000 mm 0,6 UV-I 300 W/m -0,1 C 2,7 C 11,3 km/h (2 Bft) 97,37 %
13.12.2017 12:20 3,3 C 3,9 C 79 % 1017,0 hPa 0,0 l/m 8,7 km/h (2 Bft) O-NO 67 2 min 0,000 mm 0,6 UV-I 323 W/m 0,0 C 1,2 C 12,9 km/h (3 Bft) 93,62 %
13.12.2017 12:22 3,4 C 3,9 C 79 % 1017,0 hPa 0,0 l/m 6,6 km/h (2 Bft) NO 43 2 min 0,000 mm 0,6 UV-I 352 W/m 0,1 C 3,2 C 9,7 km/h (2 Bft) 97,92 %
13.12.2017 12:24 3,4 C 3,9 C 80 % 1017,0 hPa 0,0 l/m 7,8 km/h (2 Bft) O-NO 60 2 min 0,000 mm 0,6 UV-I 274 W/m 0,3 C 2,1 C 12,9 km/h (3 Bft) 97,87 %
13.12.2017 12:26 3,4 C 3,9 C 80 % 1017,0 hPa 0,0 l/m 7,9 km/h (2 Bft) NO 55 2 min 0,000 mm 0,6 UV-I 280 W/m 0,3 C 2,0 C 11,3 km/h (2 Bft) 97,87 %
13.12.2017 12:28 3,4 C 3,9 C 81 % 1017,0 hPa 0,0 l/m 7,0 km/h (2 Bft) NO 55 2 min 0,000 mm 0,6 UV-I 333 W/m 0,5 C 2,8 C 9,7 km/h (2 Bft) 98,00 %
13.12.2017 12:30 3,4 C 3,9 C 80 % 1016,9 hPa 0,0 l/m 6,2 km/h (2 Bft) NO 42 2 min 0,000 mm 0,6 UV-I 371 W/m 0,3 C 3,4 C 8,0 km/h (2 Bft) 97,87 %
13.12.2017 12:32 3,5 C 3,9 C 79 % 1016,9 hPa 0,0 l/m 7,2 km/h (2 Bft) NO 47 2 min 0,000 mm 0,5 UV-I 319 W/m 0,2 C 2,8 C 9,7 km/h (2 Bft) 100,00 %
13.12.2017 12:34 3,5 C 3,9 C 79 % 1016,9 hPa 0,0 l/m 6,6 km/h (2 Bft) NO 35 2 min 0,000 mm 0,5 UV-I 261 W/m 0,2 C 3,3 C 9,7 km/h (2 Bft) 97,87 %
13.12.2017 12:36 3,5 C 3,9 C 80 % 1016,9 hPa 0,0 l/m 5,2 km/h (1 Bft) NO 49 2 min 0,000 mm 0,5 UV-I 247 W/m 0,4 C 3,5 C 6,4 km/h (2 Bft) 95,74 %
13.12.2017 12:38 3,4 C 3,9 C 79 % 1016,8 hPa 0,0 l/m 5,8 km/h (2 Bft) NO 38 2 min 0,000 mm 0,5 UV-I 188 W/m 0,1 C 3,4 C 8,0 km/h (2 Bft) 97,87 %
13.12.2017 12:40 3,3 C 3,9 C 79 % 1016,7 hPa 0,0 l/m 5,1 km/h (1 Bft) O-NO 61 0 min 0,000 mm 0,5 UV-I 166 W/m 0,0 C 3,3 C 8,0 km/h (2 Bft) 97,87 %
13.12.2017 12:42 3,3 C 3,9 C 80 % 1016,6 hPa 0,0 l/m 5,0 km/h (1 Bft) NO 51 2 min 0,000 mm 0,5 UV-I 189 W/m 0,2 C 3,3 C 6,4 km/h (2 Bft) 100,00 %
13.12.2017 12:44 3,3 C 3,9 C 80 % 1016,5 hPa 0,0 l/m 5,4 km/h (1 Bft) O-NO 63 2 min 0,000 mm 0,5 UV-I 218 W/m 0,2 C 3,3 C 6,4 km/h (2 Bft) 100,00 %
13.12.2017 12:46 3,4 C 3,9 C 80 % 1016,5 hPa 0,0 l/m 5,5 km/h (1 Bft) NO 44 2 min 0,000 mm 0,6 UV-I 318 W/m 0,3 C 3,4 C 8,0 km/h (2 Bft) 97,87 %
13.12.2017 12:48 3,5 C 3,9 C 80 % 1016,4 hPa 0,0 l/m 5,0 km/h (1 Bft) O-NO 73 2 min 0,000 mm 0,6 UV-I 348 W/m 0,4 C 3,5 C 6,4 km/h (2 Bft) 100,00 %
13.12.2017 12:50 3,7 C 3,9 C 79 % 1016,4 hPa 0,0 l/m 4,9 km/h (1 Bft) O-NO 71 2 min 0,000 mm 0,5 UV-I 313 W/m 0,4 C 3,7 C 9,7 km/h (2 Bft) 100,00 %
13.12.2017 12:52 3,7 C 3,9 C 79 % 1016,3 hPa 0,0 l/m 3,7 km/h (1 Bft) O-NO 69 2 min 0,000 mm 0,5 UV-I 281 W/m 0,4 C 3,7 C 8,0 km/h (2 Bft) 100,00 %
13.12.2017 12:54 3,8 C 3,9 C 79 % 1016,2 hPa 0,0 l/m 6,3 km/h (2 Bft) NO 51 2 min 0,000 mm 0,5 UV-I 301 W/m 0,5 C 3,8 C 8,0 km/h (2 Bft) 100,00 %
13.12.2017 12:56 3,8 C 3,9 C 77 % 1016,2 hPa 0,0 l/m 6,0 km/h (2 Bft) O-NO 59 2 min 0,000 mm 0,5 UV-I 315 W/m 0,1 C 3,8 C 8,0 km/h (2 Bft) 100,00 %
13.12.2017 12:58 3,8 C 3,9 C 77 % 1016,2 hPa 0,0 l/m 6,6 km/h (2 Bft) O-NO 64 2 min 0,000 mm 0,5 UV-I 310 W/m 0,1 C 3,6 C 12,9 km/h (3 Bft) 100,00 %
13.12.2017 13:00 3,8 C 3,9 C 77 % 1016,2 hPa 0,0 l/m 4,5 km/h (1 Bft) O-NO 69 2 min 0,000 mm 0,5 UV-I 306 W/m 0,1 C 3,8 C 8,0 km/h (2 Bft) 100,00 %
13.12.2017 13:02 3,8 C 3,9 C 76 % 1016,1 hPa 0,0 l/m 3,4 km/h (1 Bft) O-NO 69 2 min 0,127 mm 0,5 UV-I 302 W/m -0,0 C 3,8 C 4,8 km/h (1 Bft) 97,92 %
13.12.2017 13:04 4,0 C 3,9 C 73 % 1016,1 hPa 0,0 l/m 0,7 km/h (0 Bft) O-NO 69 2 min 0,000 mm 0,5 UV-I 300 W/m -0,4 C 4,0 C 3,2 km/h (1 Bft) 95,74 %
13.12.2017 13:06 4,2 C 3,9 C 71 % 1016,0 hPa 0,0 l/m 0,6 km/h (0 Bft) O-NO 69 2 min 0,000 mm 0,5 UV-I 298 W/m -0,6 C 4,2 C 3,2 km/h (1 Bft) 95,74 %
13.12.2017 13:08 4,2 C 3,9 C 68 % 1015,9 hPa 0,0 l/m 2,6 km/h (1 Bft) SO 146 2 min 0,000 mm 0,5 UV-I 295 W/m -1,2 C 4,2 C 6,4 km/h (2 Bft) 100,00 %
13.12.2017 13:10 4,2 C 3,9 C 68 % 1015,8 hPa 0,0 l/m 3,4 km/h (1 Bft) SO 146 2 min 0,000 mm 0,5 UV-I 293 W/m -1,2 C 4,2 C 4,8 km/h (1 Bft) 100,00 %
13.12.2017 13:12 4,2 C 3,9 C 71 % 1015,8 hPa 0,0 l/m 6,4 km/h (2 Bft) O 89 2 min 0,000 mm 0,5 UV-I 292 W/m -0,6 C 4,2 C 11,3 km/h (2 Bft) 95,74 %
13.12.2017 13:14 4,1 C 3,9 C 74 % 1015,7 hPa 0,0 l/m 6,2 km/h (2 Bft) O-NO 61 2 min 0,000 mm 0,5 UV-I 289 W/m -0,1 C 4,1 C 9,7 km/h (2 Bft) 97,87 %
13.12.2017 13:16 4,1 C 3,9 C 74 % 1015,6 hPa 0,0 l/m 5,8 km/h (2 Bft) O-NO 67 2 min 0,000 mm 0,5 UV-I 287 W/m -0,1 C 4,1 C 9,7 km/h (2 Bft) 97,87 %
13.12.2017 13:18 4,1 C 3,9 C 75 % 1015,6 hPa 0,0 l/m 4,9 km/h (1 Bft) O 94 2 min 0,000 mm 0,5 UV-I 284 W/m 0,1 C 4,1 C 9,7 km/h (2 Bft) 100,00 %
13.12.2017 13:20 4,2 C 3,9 C 74 % 1015,6 hPa 0,0 l/m 4,4 km/h (1 Bft) O-NO 77 2 min 0,000 mm 0,5 UV-I 281 W/m -0,0 C 4,2 C 8,0 km/h (2 Bft) 100,00 %
13.12.2017 13:22 4,1 C 3,9 C 71 % 1015,5 hPa 0,0 l/m 4,8 km/h (1 Bft) SO 125 2 min 0,000 mm 0,5 UV-I 279 W/m -0,7 C 4,1 C 9,7 km/h (2 Bft) 97,87 %
13.12.2017 13:24 4,1 C 3,9 C 69 % 1015,5 hPa 0,0 l/m 4,3 km/h (1 Bft) S-SO 150 2 min 0,000 mm 0,5 UV-I 277 W/m -1,1 C 4,1 C 6,4 km/h (2 Bft) 97,87 %
13.12.2017 13:26 4,2 C 3,9 C 71 % 1015,5 hPa 0,0 l/m 3,6 km/h (1 Bft) O-NO 67 2 min 0,000 mm 0,5 UV-I 273 W/m -0,6 C 4,2 C 9,7 km/h (2 Bft) 97,87 %
13.12.2017 13:28 4,2 C 3,9 C 70 % 1015,5 hPa 0,0 l/m 6,6 km/h (2 Bft) SO 141 2 min 0,000 mm 0,3 UV-I 270 W/m -0,8 C 4,0 C 11,3 km/h (2 Bft) 97,14 %
13.12.2017 13:30 4,1 C 3,9 C 70 % 1015,4 hPa 0,0 l/m 4,7 km/h (1 Bft) O 100 2 min 0,000 mm 0,0 UV-I 267 W/m -0,9 C 4,1 C 8,0 km/h (2 Bft) 97,87 %
13.12.2017 13:32 4,2 C 3,9 C 70 % 1015,4 hPa 0,0 l/m 4,5 km/h (1 Bft) SO 125 2 min 0,000 mm 0,0 UV-I 265 W/m -0,8 C 4,2 C 8,0 km/h (2 Bft) 97,87 %
13.12.2017 13:34 4,2 C 3,9 C 70 % 1015,4 hPa 0,0 l/m 6,3 km/h (2 Bft) O 100 2 min 0,000 mm 0,0 UV-I 261 W/m -0,8 C 4,2 C 11,3 km/h (2 Bft) 95,74 %
13.12.2017 13:36 4,2 C 3,9 C 70 % 1015,3 hPa 0,0 l/m 4,2 km/h (1 Bft) O-SO 119 2 min 0,000 mm 0,0 UV-I 259 W/m -0,8 C 4,2 C 11,3 km/h (2 Bft) 97,87 %
13.12.2017 13:38 4,3 C 3,9 C 71 % 1015,3 hPa 0,0 l/m 4,7 km/h (1 Bft) NO 54 2 min 0,000 mm 0,0 UV-I 256 W/m -0,5 C 4,3 C 8,0 km/h (2 Bft) 97,87 %
13.12.2017 13:40 4,3 C 3,9 C 71 % 1015,3 hPa 0,0 l/m 4,4 km/h (1 Bft) NO 42 2 min 0,000 mm 0,0 UV-I 252 W/m -0,5 C 4,3 C 6,4 km/h (2 Bft) 97,92 %
13.12.2017 13:42 4,3 C 3,9 C 70 % 1015,2 hPa 0,0 l/m 5,2 km/h (1 Bft) NO 53 2 min 0,000 mm 0,0 UV-I 251 W/m -0,7 C 4,3 C 8,0 km/h (2 Bft) 95,74 %
13.12.2017 13:44 4,3 C 3,9 C 71 % 1015,0 hPa 0,0 l/m 5,7 km/h (1 Bft) NO 55 2 min 0,000 mm 0,0 UV-I 248 W/m -0,5 C 4,3 C 9,7 km/h (2 Bft) 94,00 %
13.12.2017 13:46 4,2 C 3,9 C 71 % 1015,0 hPa 0,0 l/m 5,4 km/h (1 Bft) O 88 2 min 0,000 mm 0,0 UV-I 245 W/m -0,6 C 4,2 C 6,4 km/h (2 Bft) 95,74 %
13.12.2017 13:48 4,2 C 3,9 C 71 % 1015,0 hPa 0,0 l/m 3,1 km/h (1 Bft) O 81 2 min 0,000 mm 0,0 UV-I 242 W/m -0,6 C 4,2 C 4,8 km/h (1 Bft) 95,74 %
13.12.2017 13:50 4,2 C 3,9 C 71 % 1014,9 hPa 0,0 l/m 6,4 km/h (2 Bft) O-NO 73 2 min 0,000 mm 0,0 UV-I 238 W/m -0,6 C 4,2 C 9,7 km/h (2 Bft) 95,74 %
13.12.2017 13:52 4,2 C 3,9 C 70 % 1014,8 hPa 0,0 l/m 6,0 km/h (2 Bft) O-NO 71 2 min 0,000 mm 0,0 UV-I 236 W/m -0,8 C 4,2 C 8,0 km/h (2 Bft) 100,00 %
13.12.2017 13:54 4,2 C 3,9 C 70 % 1014,7 hPa 0,0 l/m 6,5 km/h (2 Bft) O-NO 72 2 min 0,000 mm 0,0 UV-I 233 W/m -0,8 C 4,1 C 12,9 km/h (3 Bft) 95,74 %
13.12.2017 13:56 4,2 C 3,9 C 69 % 1014,7 hPa 0,0 l/m 6,8 km/h (2 Bft) NO 51 2 min 0,000 mm 0,0 UV-I 230 W/m -1,0 C 3,8 C 9,7 km/h (2 Bft) 100,00 %
13.12.2017 13:58 4,3 C 3,9 C 70 % 1014,7 hPa 0,0 l/m 7,0 km/h (2 Bft) O-NO 65 2 min 0,000 mm 0,0 UV-I 228 W/m -0,7 C 3,8 C 9,7 km/h (2 Bft) 100,00 %
13.12.2017 14:00 4,3 C 3,9 C 70 % 1014,6 hPa 0,0 l/m 7,4 km/h (2 Bft) O-NO 67 2 min 0,127 mm 0,0 UV-I 224 W/m -0,7 C 3,4 C 9,7 km/h (2 Bft) 97,87 %
13.12.2017 14:02 4,3 C 3,9 C 70 % 1014,5 hPa 0,0 l/m 5,8 km/h (2 Bft) O-NO 71 2 min 0,000 mm 0,0 UV-I 221 W/m -0,7 C 4,3 C 8,0 km/h (2 Bft) 100,00 %
13.12.2017 14:04 4,2 C 3,9 C 71 % 1014,4 hPa 0,0 l/m 6,6 km/h (2 Bft) O-NO 68 2 min 0,000 mm 0,0 UV-I 218 W/m -0,6 C 4,0 C 9,7 km/h (2 Bft) 100,00 %
13.12.2017 14:06 4,3 C 3,9 C 70 % 1014,3 hPa 0,0 l/m 6,2 km/h (2 Bft) O-NO 65 2 min 0,000 mm 0,0 UV-I 215 W/m -0,7 C 4,3 C 9,7 km/h (2 Bft) 100,00 %
13.12.2017 14:08 4,3 C 3,9 C 68 % 1014,3 hPa 0,0 l/m 7,0 km/h (2 Bft) O 81 2 min 0,000 mm 0,0 UV-I 212 W/m -1,1 C 3,8 C 9,7 km/h (2 Bft) 100,00 %
13.12.2017 14:10 4,3 C 3,9 C 66 % 1014,2 hPa 0,0 l/m 6,3 km/h (2 Bft) O-NO 68 2 min 0,000 mm 0,0 UV-I 210 W/m -1,5 C 4,3 C 9,7 km/h (2 Bft) 100,00 %
13.12.2017 14:12 4,2 C 3,9 C 70 % 1014,1 hPa 0,0 l/m 6,3 km/h (2 Bft) NO 54 2 min 0,000 mm 0,0 UV-I 206 W/m -0,8 C 4,2 C 9,7 km/h (2 Bft) 100,00 %
13.12.2017 14:14 4,2 C 3,9 C 69 % 1014,1 hPa 0,0 l/m 7,1 km/h (2 Bft) O-NO 75 2 min 0,000 mm 0,0 UV-I 203 W/m -1,0 C 3,6 C 11,3 km/h (2 Bft) 100,00 %
13.12.2017 14:16 4,3 C 3,9 C 65 % 1014,0 hPa 0,0 l/m 7,8 km/h (2 Bft) O 81 2 min 0,000 mm 0,0 UV-I 199 W/m -1,7 C 3,0 C 11,3 km/h (2 Bft) 97,87 %
13.12.2017 14:18 4,4 C 3,9 C 65 % 1014,0 hPa 0,0 l/m 7,2 km/h (2 Bft) O-NO 59 2 min 0,000 mm 0,0 UV-I 196 W/m -1,6 C 3,7 C 9,7 km/h (2 Bft) 100,00 %
13.12.2017 14:20 4,4 C 3,9 C 65 % 1014,0 hPa 0,0 l/m 6,6 km/h (2 Bft) O-NO 65 2 min 0,000 mm 0,0 UV-I 193 W/m -1,6 C 4,2 C 11,3 km/h (2 Bft) 100,00 %
13.12.2017 14:22 4,4 C 3,9 C 67 % 1014,0 hPa 0,0 l/m 6,7 km/h (2 Bft) O-NO 71 2 min 0,000 mm 0,0 UV-I 189 W/m -1,2 C 4,1 C 9,7 km/h (2 Bft) 97,87 %
13.12.2017 14:24 4,4 C 3,9 C 65 % 1014,0 hPa 0,0 l/m 6,0 km/h (2 Bft) O-NO 61 2 min 0,000 mm 0,0 UV-I 185 W/m -1,6 C 4,4 C 8,0 km/h (2 Bft) 96,00 %
13.12.2017 14:26 4,3 C 3,9 C 65 % 1013,9 hPa 0,0 l/m 6,9 km/h (2 Bft) O-NO 63 2 min 0,000 mm 0,0 UV-I 180 W/m -1,7 C 3,9 C 12,9 km/h (3 Bft) 97,87 %
13.12.2017 14:28 4,3 C 3,9 C 65 % 1013,8 hPa 0,0 l/m 4,6 km/h (1 Bft) O-NO 62 2 min 0,000 mm 0,0 UV-I 178 W/m -1,7 C 4,3 C 6,4 km/h (2 Bft) 97,87 %
13.12.2017 14:30 4,3 C 3,9 C 64 % 1013,8 hPa 0,0 l/m 6,5 km/h (2 Bft) O-NO 70 2 min 0,000 mm 0,0 UV-I 174 W/m -1,9 C 4,2 C 8,0 km/h (2 Bft) 97,96 %
13.12.2017 14:32 4,3 C 3,9 C 64 % 1013,7 hPa 0,0 l/m 7,2 km/h (2 Bft) O-NO 67 2 min 0,000 mm 0,0 UV-I 171 W/m -1,9 C 3,6 C 11,3 km/h (2 Bft) 93,62 %
13.12.2017 14:34 4,3 C 3,9 C 64 % 1013,7 hPa 0,0 l/m 6,4 km/h (2 Bft) O-NO 76 2 min 0,000 mm 0,0 UV-I 167 W/m -1,9 C 4,3 C 8,0 km/h (2 Bft) 97,87 %
13.12.2017 14:36 4,3 C 3,9 C 62 % 1013,5 hPa 0,0 l/m 6,1 km/h (2 Bft) O 82 2 min 0,000 mm 0,0 UV-I 164 W/m -2,3 C 4,3 C 8,0 km/h (2 Bft) 97,87 %
13.12.2017 14:38 4,4 C 3,9 C 62 % 1013,4 hPa 0,0 l/m 6,0 km/h (2 Bft) O-NO 74 2 min 0,000 mm 0,0 UV-I 161 W/m -2,2 C 4,4 C 8,0 km/h (2 Bft) 95,74 %
13.12.2017 14:40 4,4 C 3,9 C 63 % 1013,3 hPa 0,0 l/m 5,7 km/h (1 Bft) O 80 2 min 0,000 mm 0,0 UV-I 158 W/m -2,0 C 4,4 C 8,0 km/h (2 Bft) 95,74 %
13.12.2017 14:42 4,4 C 3,9 C 63 % 1013,3 hPa 0,0 l/m 5,8 km/h (2 Bft) O-NO 74 2 min 0,000 mm 0,0 UV-I 154 W/m -2,0 C 4,4 C 9,7 km/h (2 Bft) 95,74 %
13.12.2017 14:44 4,4 C 3,9 C 62 % 1013,2 hPa 0,0 l/m 5,7 km/h (1 Bft) O-NO 76 2 min 0,000 mm 0,0 UV-I 150 W/m -2,2 C 4,4 C 8,0 km/h (2 Bft) 97,87 %
13.12.2017 14:46 4,4 C 3,9 C 62 % 1013,1 hPa 0,0 l/m 5,9 km/h (2 Bft) O-NO 67 2 min 0,000 mm 0,0 UV-I 147 W/m -2,2 C 4,4 C 9,7 km/h (2 Bft) 97,37 %
13.12.2017 14:48 4,3 C 3,9 C 64 % 1013,1 hPa 0,0 l/m 8,6 km/h (2 Bft) O 82 2 min 0,000 mm 0,0 UV-I 142 W/m -1,9 C 2,4 C 12,9 km/h (3 Bft) 95,92 %
13.12.2017 14:50 4,2 C 3,9 C 65 % 1013,0 hPa 0,0 l/m 8,4 km/h (2 Bft) O-NO 75 2 min 0,000 mm 0,0 UV-I 140 W/m -1,8 C 2,4 C 11,3 km/h (2 Bft) 97,87 %
13.12.2017 14:52 4,1 C 3,9 C 66 % 1013,0 hPa 0,0 l/m 8,3 km/h (2 Bft) O-NO 71 2 min 0,000 mm 0,0 UV-I 135 W/m -1,7 C 2,4 C 12,9 km/h (3 Bft) 96,30 %
13.12.2017 14:54 4,1 C 3,9 C 66 % 1013,0 hPa 0,0 l/m 8,9 km/h (2 Bft) O-NO 67 2 min 0,000 mm 0,0 UV-I 132 W/m -1,7 C 1,9 C 12,9 km/h (3 Bft) 94,74 %
13.12.2017 14:56 4,0 C 3,9 C 67 % 1012,9 hPa 0,0 l/m 6,3 km/h (2 Bft) O-NO 72 2 min 0,000 mm 0,0 UV-I 129 W/m -1,6 C 4,0 C 11,3 km/h (2 Bft) 93,62 %
13.12.2017 14:58 3,9 C 3,9 C 68 % 1012,9 hPa 0,0 l/m 7,7 km/h (2 Bft) O-NO 61 2 min 0,000 mm 0,0 UV-I 125 W/m -1,5 C 2,7 C 12,9 km/h (3 Bft) 93,75 %
13.12.2017 15:00 3,8 C 3,9 C 68 % 1012,9 hPa 0,0 l/m 8,0 km/h (2 Bft) O-NO 78 2 min 0,076 mm 0,0 UV-I 122 W/m -1,6 C 2,3 C 12,9 km/h (3 Bft) 97,14 %
13.12.2017 15:02 3,8 C 3,9 C 68 % 1012,8 hPa 0,0 l/m 6,3 km/h (2 Bft) O-NO 76 2 min 0,000 mm 0,0 UV-I 119 W/m -1,6 C 3,8 C 8,0 km/h (2 Bft) 93,55 %
13.12.2017 15:04 3,7 C 3,9 C 68 % 1012,7 hPa 0,0 l/m 7,6 km/h (2 Bft) O-NO 66 2 min 0,000 mm 0,0 UV-I 114 W/m -1,6 C 2,6 C 11,3 km/h (2 Bft) 95,74 %
13.12.2017 15:06 3,7 C 3,9 C 69 % 1012,7 hPa 0,0 l/m 7,5 km/h (2 Bft) O-NO 67 2 min 0,000 mm 0,0 UV-I 111 W/m -1,4 C 2,7 C 11,3 km/h (2 Bft) 97,87 %
13.12.2017 15:08 3,6 C 3,9 C 70 % 1012,6 hPa 0,0 l/m 6,5 km/h (2 Bft) O-NO 65 2 min 0,000 mm 0,0 UV-I 108 W/m -1,3 C 3,5 C 8,0 km/h (2 Bft) 95,74 %
13.12.2017 15:10 3,6 C 3,9 C 70 % 1012,6 hPa 0,0 l/m 8,4 km/h (2 Bft) NO 51 2 min 0,000 mm 0,0 UV-I 104 W/m -1,3 C 1,8 C 14,5 km/h (3 Bft) 95,74 %
13.12.2017 15:12 3,6 C 3,9 C 69 % 1012,4 hPa 0,0 l/m 9,3 km/h (2 Bft) O-NO 62 2 min 0,000 mm 0,0 UV-I 100 W/m -1,5 C 1,1 C 12,9 km/h (3 Bft) 93,62 %
13.12.2017 15:14 3,7 C 3,9 C 68 % 1012,4 hPa 0,0 l/m 9,6 km/h (2 Bft) NO 53 2 min 0,000 mm 0,0 UV-I 97 W/m -1,6 C 0,9 C 12,9 km/h (3 Bft) 95,74 %
13.12.2017 15:16 3,7 C 3,9 C 68 % 1012,4 hPa 0,0 l/m 9,8 km/h (2 Bft) NO 42 2 min 0,000 mm 0,0 UV-I 93 W/m -1,6 C 0,8 C 14,5 km/h (3 Bft) 95,92 %
13.12.2017 15:18 3,6 C 3,9 C 69 % 1012,3 hPa 0,0 l/m 7,4 km/h (2 Bft) NO 42 2 min 0,000 mm 0,0 UV-I 89 W/m -1,5 C 2,7 C 12,9 km/h (3 Bft) 95,00 %
13.12.2017 15:20 3,6 C 3,9 C 71 % 1012,2 hPa 0,0 l/m 6,0 km/h (2 Bft) O-NO 61 2 min 0,000 mm 0,0 UV-I 84 W/m -1,2 C 3,6 C 8,0 km/h (2 Bft) 95,74 %
13.12.2017 15:22 3,4 C 3,9 C 73 % 1012,3 hPa 0,0 l/m 6,5 km/h (2 Bft) O-NO 65 2 min 0,000 mm 0,0 UV-I 80 W/m -1,0 C 3,3 C 8,0 km/h (2 Bft) 98,00 %
13.12.2017 15:24 3,3 C 3,9 C 74 % 1012,3 hPa 0,0 l/m 6,0 km/h (2 Bft) NO 42 2 min 0,000 mm 0,0 UV-I 77 W/m -0,9 C 3,3 C 11,3 km/h (2 Bft) 96,00 %
13.12.2017 15:26 3,2 C 3,9 C 75 % 1012,2 hPa 0,0 l/m 6,9 km/h (2 Bft) NO 51 2 min 0,000 mm 0,0 UV-I 71 W/m -0,8 C 2,7 C 9,7 km/h (2 Bft) 97,30 %
13.12.2017 15:28 3,1 C 3,9 C 76 % 1012,2 hPa 0,0 l/m 6,0 km/h (2 Bft) O-NO 63 2 min 0,000 mm 0,0 UV-I 60 W/m -0,7 C 3,1 C 9,7 km/h (2 Bft) 95,74 %
13.12.2017 15:30 3,1 C 3,9 C 76 % 1012,2 hPa 0,0 l/m 9,4 km/h (2 Bft) O-NO 61 2 min 0,000 mm 0,0 UV-I 52 W/m -0,7 C 0,4 C 16,1 km/h (3 Bft) 95,74 %
13.12.2017 15:32 3,1 C 3,9 C 76 % 1012,1 hPa 0,0 l/m 10,0 km/h (2 Bft) NO 56 2 min 0,000 mm 0,0 UV-I 57 W/m -0,7 C -0,0 C 14,5 km/h (3 Bft) 95,74 %
13.12.2017 15:34 2,9 C 3,9 C 77 % 1012,2 hPa 0,0 l/m 10,9 km/h (2 Bft) O-NO 59 2 min 0,000 mm 0,0 UV-I 58 W/m -0,7 C -0,9 C 17,7 km/h (3 Bft) 97,87 %
13.12.2017 15:36 2,9 C 3,9 C 77 % 1012,1 hPa 0,0 l/m 9,4 km/h (2 Bft) O-NO 60 2 min 0,000 mm 0,0 UV-I 54 W/m -0,7 C 0,2 C 12,9 km/h (3 Bft) 95,74 %
13.12.2017 15:38 2,9 C 3,9 C 77 % 1012,1 hPa 0,0 l/m 9,3 km/h (2 Bft) NO 38 2 min 0,000 mm 0,0 UV-I 51 W/m -0,7 C 0,3 C 12,9 km/h (3 Bft) 100,00 %
13.12.2017 15:40 2,9 C 3,9 C 77 % 1012,2 hPa 0,0 l/m 8,5 km/h (2 Bft) NO 35 2 min 0,000 mm 0,0 UV-I 48 W/m -0,7 C 1,0 C 12,9 km/h (3 Bft) 95,74 %
13.12.2017 15:42 2,8 C 3,9 C 78 % 1012,2 hPa 0,0 l/m 8,1 km/h (2 Bft) NO 49 2 min 0,000 mm 0,0 UV-I 43 W/m -0,6 C 1,2 C 11,3 km/h (2 Bft) 97,92 %
13.12.2017 15:44 2,6 C 3,9 C 78 % 1012,2 hPa 0,0 l/m 9,1 km/h (2 Bft) NO 36 2 min 0,000 mm 0,0 UV-I 41 W/m -0,8 C 0,1 C 14,5 km/h (3 Bft) 97,87 %
13.12.2017 15:46 2,4 C 3,9 C 79 % 1012,1 hPa 0,0 l/m 9,6 km/h (2 Bft) NO 43 2 min 0,000 mm 0,0 UV-I 38 W/m -0,9 C -0,5 C 16,1 km/h (3 Bft) 100,00 %
13.12.2017 15:48 2,3 C 3,9 C 80 % 1012,0 hPa 0,0 l/m 8,3 km/h (2 Bft) N-NO 26 2 min 0,000 mm 0,0 UV-I 34 W/m -0,8 C 0,5 C 14,5 km/h (3 Bft) 97,87 %
13.12.2017 15:50 2,3 C 3,9 C 79 % 1012,1 hPa 0,0 l/m 7,1 km/h (2 Bft) NO 34 2 min 0,000 mm 0,0 UV-I 31 W/m -1,0 C 1,6 C 11,3 km/h (2 Bft) 95,74 %
13.12.2017 15:52 2,2 C 3,9 C 80 % 1012,1 hPa 0,0 l/m 5,9 km/h (2 Bft) N 11 2 min 0,000 mm 0,0 UV-I 26 W/m -0,9 C 2,2 C 8,0 km/h (2 Bft) 95,74 %
13.12.2017 15:54 2,3 C 3,9 C 80 % 1012,1 hPa 0,0 l/m 6,6 km/h (2 Bft) NO 44 2 min 0,000 mm 0,0 UV-I 19 W/m -0,8 C 2,1 C 9,7 km/h (2 Bft) 97,87 %
13.12.2017 15:56 2,2 C 3,9 C 80 % 1012,1 hPa 0,0 l/m 5,6 km/h (1 Bft) N-NO 24 2 min 0,000 mm 0,0 UV-I 15 W/m -0,9 C 2,2 C 9,7 km/h (2 Bft) 97,87 %
13.12.2017 15:58 2,2 C 3,9 C 80 % 1012,1 hPa 0,0 l/m 5,2 km/h (1 Bft) NO 44 0 min 0,000 mm 0,0 UV-I 12 W/m -0,9 C 2,2 C 6,4 km/h (2 Bft) 100,00 %
13.12.2017 16:00 2,1 C 3,9 C 80 % 1012,1 hPa 0,0 l/m 4,7 km/h (1 Bft) N-NO 24 0 min 0,000 mm 0,0 UV-I 12 W/m -1,0 C 2,1 C 6,4 km/h (2 Bft) 100,00 %
13.12.2017 16:02 2,0 C 3,9 C 81 % 1012,1 hPa 0,0 l/m 5,0 km/h (1 Bft) NO 43 0 min 0,051 mm 0,0 UV-I 11 W/m -0,9 C 2,0 C 6,4 km/h (2 Bft) 100,00 %
13.12.2017 16:04 1,9 C 3,9 C 81 % 1012,1 hPa 0,0 l/m 5,7 km/h (1 Bft) N-NO 31 0 min 0,000 mm 0,0 UV-I 11 W/m -1,0 C 1,9 C 6,4 km/h (2 Bft) 100,00 %
13.12.2017 16:06 1,8 C 3,9 C 81 % 1012,0 hPa 0,0 l/m 5,9 km/h (2 Bft) NO 42 0 min 0,000 mm 0,0 UV-I 10 W/m -1,1 C 1,8 C 6,4 km/h (2 Bft) 100,00 %
13.12.2017 16:08 1,8 C 3,9 C 81 % 1012,0 hPa 0,0 l/m 6,1 km/h (2 Bft) N-NO 29 0 min 0,000 mm 0,0 UV-I 9 W/m -1,1 C 1,8 C 8,0 km/h (2 Bft) 100,00 %
13.12.2017 16:10 1,8 C 3,9 C 81 % 1011,9 hPa 0,0 l/m 5,1 km/h (1 Bft) NO 42 0 min 0,000 mm 0,0 UV-I 9 W/m -1,1 C 1,8 C 6,4 km/h (2 Bft) 100,00 %
13.12.2017 16:12 1,7 C 3,9 C 81 % 1011,8 hPa 0,0 l/m 5,0 km/h (1 Bft) N-NO 32 0 min 0,000 mm 0,0 UV-I 7 W/m -1,2 C 1,7 C 6,4 km/h (2 Bft) 97,87 %
13.12.2017 16:14 1,7 C 3,9 C 82 % 1011,7 hPa 0,0 l/m 5,2 km/h (1 Bft) NO 44 0 min 0,000 mm 0,0 UV-I 7 W/m -1,0 C 1,7 C 6,4 km/h (2 Bft) 100,00 %
13.12.2017 16:16 1,6 C 3,9 C 82 % 1011,6 hPa 0,0 l/m 4,6 km/h (1 Bft) NO 44 0 min 0,000 mm 0,0 UV-I 7 W/m -1,1 C 1,6 C 6,4 km/h (2 Bft) 100,00 %
13.12.2017 16:18 1,6 C 3,9 C 82 % 1011,6 hPa 0,0 l/m 4,0 km/h (1 Bft) NO 44 0 min 0,000 mm 0,0 UV-I 5 W/m -1,1 C 1,6 C 4,8 km/h (1 Bft) 100,00 %
13.12.2017 16:20 1,5 C 3,9 C 82 % 1011,6 hPa 0,0 l/m 3,9 km/h (1 Bft) NO 40 0 min 0,000 mm 0,0 UV-I 5 W/m -1,2 C 1,5 C 4,8 km/h (1 Bft) 100,00 %
13.12.2017 16:22 1,4 C 3,9 C 83 % 1011,6 hPa 0,0 l/m 4,4 km/h (1 Bft) NO 40 0 min 0,000 mm 0,0 UV-I 5 W/m -1,2 C 1,4 C 6,4 km/h (2 Bft) 100,00 %
13.12.2017 16:24 1,4 C 3,9 C 83 % 1011,6 hPa 0,0 l/m 4,5 km/h (1 Bft) NO 40 0 min 0,000 mm 0,0 UV-I 5 W/m -1,2 C 1,4 C 6,4 km/h (2 Bft) 100,00 %
13.12.2017 16:26 1,3 C 3,9 C 83 % 1011,6 hPa 0,0 l/m 4,2 km/h (1 Bft) NO 40 0 min 0,000 mm 0,0 UV-I 5 W/m -1,3 C 1,3 C 4,8 km/h (1 Bft) 100,00 %
13.12.2017 16:28 1,3 C 3,9 C 83 % 1011,5 hPa 0,0 l/m 6,3 km/h (2 Bft) NO 37 0 min 0,000 mm 0,0 UV-I 3 W/m -1,3 C 1,3 C 9,7 km/h (2 Bft) 100,00 %
13.12.2017 16:30 1,3 C 3,9 C 83 % 1011,5 hPa 0,0 l/m 7,3 km/h (2 Bft) NO 38 0 min 0,000 mm 0,0 UV-I 0 W/m -1,3 C 0,4 C 11,3 km/h (2 Bft) 100,00 %
13.12.2017 16:33 1,3 C 3,9 C 83 % 1011,4 hPa 0,0 l/m 6,9 km/h (2 Bft) NO 42 0 min 0,000 mm 0,0 UV-I 0 W/m -1,3 C 0,8 C 9,7 km/h (2 Bft) 100,00 %
13.12.2017 16:34 1,3 C 3,9 C 83 % 1011,4 hPa 0,0 l/m 4,7 km/h (1 Bft) NO 53 0 min 0,000 mm 0,0 UV-I 0 W/m -1,3 C 1,3 C 6,4 km/h (2 Bft) 100,00 %
13.12.2017 16:36 1,2 C 3,9 C 84 % 1011,4 hPa 0,0 l/m 5,1 km/h (1 Bft) O-NO 63 0 min 0,000 mm 0,0 UV-I 0 W/m -1,2 C 1,2 C 6,4 km/h (2 Bft) 100,00 %
13.12.2017 16:38 1,2 C 3,9 C 84 % 1011,4 hPa 0,0 l/m 3,9 km/h (1 Bft) O-NO 61 0 min 0,000 mm 0,0 UV-I 0 W/m -1,2 C 1,2 C 6,4 km/h (2 Bft) 97,87 %
13.12.2017 16:40 1,2 C 3,9 C 84 % 1011,3 hPa 0,0 l/m 4,1 km/h (1 Bft) O-NO 63 0 min 0,000 mm 0,0 UV-I 0 W/m -1,2 C 1,2 C 6,4 km/h (2 Bft) 100,00 %
13.12.2017 16:42 0,9 C 3,9 C 84 % 1011,2 hPa 0,0 l/m 5,2 km/h (1 Bft) O-NO 67 0 min 0,000 mm 0,0 UV-I 0 W/m -1,5 C 0,9 C 6,4 km/h (2 Bft) 97,87 %
13.12.2017 16:44 0,8 C 3,9 C 85 % 1011,2 hPa 0,0 l/m 5,7 km/h (1 Bft) O 84 0 min 0,000 mm 0,0 UV-I 0 W/m -1,4 C 0,8 C 6,4 km/h (2 Bft) 100,00 %
13.12.2017 16:46 0,7 C 3,9 C 86 % 1011,1 hPa 0,0 l/m 5,6 km/h (1 Bft) O-NO 67 0 min 0,000 mm 0,0 UV-I 0 W/m -1,4 C 0,7 C 8,0 km/h (2 Bft) 97,87 %
13.12.2017 16:48 0,7 C 3,9 C 86 % 1011,0 hPa 0,0 l/m 5,4 km/h (1 Bft) O-NO 71 0 min 0,000 mm 0,0 UV-I 0 W/m -1,4 C 0,7 C 8,0 km/h (2 Bft) 100,00 %
13.12.2017 16:50 0,7 C 3,9 C 86 % 1011,0 hPa 0,0 l/m 6,0 km/h (2 Bft) O-NO 73 0 min 0,000 mm 0,0 UV-I 0 W/m -1,4 C 0,7 C 8,0 km/h (2 Bft) 98,00 %
13.12.2017 16:52 0,8 C 3,9 C 86 % 1010,9 hPa 0,0 l/m 6,2 km/h (2 Bft) O-NO 72 0 min 0,000 mm 0,0 UV-I 0 W/m -1,3 C 0,8 C 8,0 km/h (2 Bft) 100,00 %
13.12.2017 16:54 0,8 C 3,9 C 86 % 1010,9 hPa 0,0 l/m 5,7 km/h (1 Bft) O-NO 71 0 min 0,000 mm 0,0 UV-I 0 W/m -1,3 C 0,8 C 9,7 km/h (2 Bft) 97,87 %
13.12.2017 16:56 0,7 C 3,9 C 86 % 1010,8 hPa 0,0 l/m 4,6 km/h (1 Bft) O-NO 69 0 min 0,000 mm 0,0 UV-I 0 W/m -1,4 C 0,7 C 6,4 km/h (2 Bft) 100,00 %
13.12.2017 16:58 0,7 C 3,9 C 86 % 1010,8 hPa 0,0 l/m 4,7 km/h (1 Bft) O-NO 63 0 min 0,000 mm 0,0 UV-I 0 W/m -1,4 C 0,7 C 8,0 km/h (2 Bft) 100,00 %
13.12.2017 17:00 0,7 C 3,9 C 86 % 1010,7 hPa 0,0 l/m 3,7 km/h (1 Bft) O-NO 63 0 min 0,000 mm 0,0 UV-I 0 W/m -1,4 C 0,7 C 6,4 km/h (2 Bft) 100,00 %
13.12.2017 17:02 0,6 C 3,9 C 86 % 1010,7 hPa 0,0 l/m 5,4 km/h (1 Bft) O-NO 71 0 min 0,000 mm 0,0 UV-I 0 W/m -1,5 C 0,6 C 6,4 km/h (2 Bft) 100,00 %
13.12.2017 17:04 0,7 C 3,9 C 87 % 1010,6 hPa 0,0 l/m 4,6 km/h (1 Bft) O-NO 71 0 min 0,000 mm 0,0 UV-I 0 W/m -1,2 C 0,7 C 6,4 km/h (2 Bft) 100,00 %
13.12.2017 17:06 0,7 C 3,9 C 86 % 1010,6 hPa 0,0 l/m 5,6 km/h (1 Bft) O-NO 70 0 min 0,000 mm 0,0 UV-I 0 W/m -1,4 C 0,7 C 6,4 km/h (2 Bft) 97,87 %
13.12.2017 17:08 0,7 C 3,9 C 86 % 1010,5 hPa 0,0 l/m 5,0 km/h (1 Bft) O-NO 70 0 min 0,000 mm 0,0 UV-I 0 W/m -1,4 C 0,7 C 6,4 km/h (2 Bft) 97,87 %
13.12.2017 17:10 0,8 C 3,9 C 86 % 1010,5 hPa 0,0 l/m 6,5 km/h (2 Bft) O 80 0 min 0,000 mm 0,0 UV-I 0 W/m -1,3 C 0,7 C 11,3 km/h (2 Bft) 100,00 %
13.12.2017 17:12 0,7 C 3,9 C 86 % 1010,5 hPa 0,0 l/m 4,6 km/h (1 Bft) NO 55 0 min 0,000 mm 0,0 UV-I 0 W/m -1,4 C 0,7 C 6,4 km/h (2 Bft) 94,74 %
13.12.2017 17:14 0,8 C 3,9 C 86 % 1010,6 hPa 0,0 l/m 2,5 km/h (1 Bft) NO 55 0 min 0,000 mm 0,0 UV-I 0 W/m -1,3 C 0,8 C 4,8 km/h (1 Bft) 97,87 %
13.12.2017 17:16 0,9 C 3,9 C 86 % 1010,6 hPa 0,0 l/m 1,9 km/h (1 Bft) NO 55 0 min 0,000 mm 0,0 UV-I 0 W/m -1,2 C 0,9 C 3,2 km/h (1 Bft) 100,00 %
13.12.2017 17:18 0,9 C 3,9 C 85 % 1010,6 hPa 0,0 l/m 2,8 km/h (1 Bft) NO 55 0 min 0,000 mm 0,0 UV-I 0 W/m -1,3 C 0,9 C 4,8 km/h (1 Bft) 97,87 %
13.12.2017 17:20 0,8 C 3,9 C 86 % 1010,5 hPa 0,0 l/m 1,7 km/h (1 Bft) NO 55 0 min 0,000 mm 0,0 UV-I 0 W/m -1,3 C 0,8 C 3,2 km/h (1 Bft) 97,87 %
13.12.2017 17:22 0,8 C 3,9 C 86 % 1010,5 hPa 0,0 l/m 1,5 km/h (1 Bft) NO 55 0 min 0,000 mm 0,0 UV-I 0 W/m -1,3 C 0,8 C 3,2 km/h (1 Bft) 97,87 %
13.12.2017 17:24 0,8 C 3,9 C 86 % 1010,5 hPa 0,0 l/m 1,1 km/h (1 Bft) NO 55 0 min 0,000 mm 0,0 UV-I 0 W/m -1,3 C 0,8 C 3,2 km/h (1 Bft) 100,00 %
13.12.2017 17:26 0,7 C 3,9 C 85 % 1010,5 hPa 0,0 l/m 1,7 km/h (1 Bft) NO 55 0 min 0,000 mm 0,0 UV-I 0 W/m -1,5 C 0,7 C 3,2 km/h (1 Bft) 100,00 %
13.12.2017 17:28 0,7 C 3,9 C 86 % 1010,6 hPa 0,0 l/m 2,1 km/h (1 Bft) NO 55 0 min 0,000 mm 0,0 UV-I 0 W/m -1,4 C 0,7 C 3,2 km/h (1 Bft) 97,87 %
13.12.2017 17:30 0,6 C 3,9 C 86 % 1010,6 hPa 0,0 l/m 1,2 km/h (1 Bft) NO 55 0 min 0,000 mm 0,0 UV-I 0 W/m -1,5 C 0,6 C 3,2 km/h (1 Bft) 100,00 %
13.12.2017 17:32 0,7 C 3,9 C 86 % 1010,6 hPa 0,0 l/m 0,0 km/h (0 Bft) NO 55 0 min 0,000 mm 0,0 UV-I 0 W/m -1,4 C 0,7 C 0,0 km/h (0 Bft) 100,00 %
13.12.2017 17:34 0,7 C 3,9 C 86 % 1010,5 hPa 0,0 l/m 0,2 km/h (0 Bft) NO 55 0 min 0,000 mm 0,0 UV-I 0 W/m -1,4 C 0,7 C 3,2 km/h (1 Bft) 100,00 %
13.12.2017 17:36 0,6 C 3,9 C 86 % 1010,4 hPa 0,0 l/m 2,1 km/h (1 Bft) NO 55 0 min 0,000 mm 0,0 UV-I 0 W/m -1,5 C 0,6 C 3,2 km/h (1 Bft) 93,62 %
13.12.2017 17:38 0,6 C 3,9 C 86 % 1010,4 hPa 0,0 l/m 0,4 km/h (0 Bft) NO 55 0 min 0,000 mm 0,0 UV-I 0 W/m -1,5 C 0,6 C 1,6 km/h (1 Bft) 95,83 %
13.12.2017 17:40 0,4 C 3,9 C 87 % 1010,4 hPa 0,0 l/m 0,0 km/h (0 Bft) NO 55 0 min 0,000 mm 0,0 UV-I 0 W/m -1,5 C 0,4 C 0,0 km/h (0 Bft) 97,87 %
13.12.2017 17:42 0,5 C 3,9 C 87 % 1010,3 hPa 0,0 l/m 0,0 km/h (0 Bft) NO 55 0 min 0,000 mm 0,0 UV-I 0 W/m -1,4 C 0,5 C 0,0 km/h (0 Bft) 97,92 %
13.12.2017 17:44 0,4 C 3,9 C 87 % 1010,3 hPa 0,0 l/m 0,0 km/h (0 Bft) NO 55 0 min 0,000 mm 0,0 UV-I 0 W/m -1,5 C 0,4 C 0,0 km/h (0 Bft) 95,74 %
13.12.2017 17:46 0,4 C 3,9 C 87 % 1010,3 hPa 0,0 l/m 0,0 km/h (0 Bft) NO 55 0 min 0,000 mm 0,0 UV-I 0 W/m -1,5 C 0,4 C 0,0 km/h (0 Bft) 95,74 %
13.12.2017 17:48 0,4 C 3,9 C 88 % 1010,2 hPa 0,0 l/m 0,0 km/h (0 Bft) NO 55 0 min 0,000 mm 0,0 UV-I 0 W/m -1,3 C 0,4 C 0,0 km/h (0 Bft) 95,74 %
13.12.2017 17:50 0,3 C 3,9 C 87 % 1010,2 hPa 0,0 l/m 0,5 km/h (0 Bft) NO 55 0 min 0,000 mm 0,0 UV-I 0 W/m -1,6 C 0,3 C 3,2 km/h (1 Bft) 95,74 %
13.12.2017 17:52 0,1 C 3,9 C 87 % 1010,1 hPa 0,0 l/m 1,8 km/h (1 Bft) NO 55 0 min 0,000 mm 0,0 UV-I 0 W/m -1,8 C 0,1 C 3,2 km/h (1 Bft) 93,62 %
13.12.2017 17:54 0,1 C 3,9 C 88 % 1010,2 hPa 0,0 l/m 0,5 km/h (0 Bft) NO 55 0 min 0,000 mm 0,0 UV-I 0 W/m -1,6 C 0,1 C 1,6 km/h (1 Bft) 94,00 %
13.12.2017 17:56 -0,1 C 3,9 C 88 % 1010,1 hPa 0,0 l/m 0,7 km/h (0 Bft) NO 55 0 min 0,000 mm 0,0 UV-I 0 W/m -1,8 C -0,1 C 1,6 km/h (1 Bft) 96,00 %
13.12.2017 17:58 0,0 C 3,9 C 88 % 1010,0 hPa 0,0 l/m 0,4 km/h (0 Bft) NO 55 0 min 0,000 mm 0,0 UV-I 0 W/m -1,7 C 0,0 C 1,6 km/h (1 Bft) 94,29 %
13.12.2017 18:00 0,0 C 3,9 C 88 % 1010,1 hPa 0,0 l/m 0,0 km/h (0 Bft) NO 55 0 min 0,000 mm 0,0 UV-I 0 W/m -1,7 C 0,0 C 0,0 km/h (0 Bft) 94,00 %
13.12.2017 18:02 0,2 C 3,9 C 88 % 1010,0 hPa 0,0 l/m 1,9 km/h (1 Bft) NO 55 0 min 0,000 mm 0,0 UV-I 0 W/m -1,5 C 0,2 C 3,2 km/h (1 Bft) 95,74 %
13.12.2017 18:04 0,3 C 3,9 C 88 % 1010,0 hPa 0,0 l/m 2,1 km/h (1 Bft) NO 55 0 min 0,000 mm 0,0 UV-I 0 W/m -1,4 C 0,3 C 3,2 km/h (1 Bft) 96,00 %
13.12.2017 18:06 0,4 C 3,9 C 87 % 1010,0 hPa 0,0 l/m 1,8 km/h (1 Bft) NO 55 0 min 0,000 mm 0,0 UV-I 0 W/m -1,5 C 0,4 C 3,2 km/h (1 Bft) 94,00 %
13.12.2017 18:08 0,4 C 3,9 C 87 % 1010,0 hPa 0,0 l/m 2,9 km/h (1 Bft) NO 55 0 min 0,000 mm 0,0 UV-I 0 W/m -1,5 C 0,4 C 3,2 km/h (1 Bft) 93,62 %
13.12.2017 18:10 0,3 C 3,9 C 87 % 1010,0 hPa 0,0 l/m 2,9 km/h (1 Bft) NO 55 0 min 0,000 mm 0,0 UV-I 0 W/m -1,6 C 0,3 C 4,8 km/h (1 Bft) 95,74 %
13.12.2017 18:12 0,4 C 3,9 C 87 % 1010,0 hPa 0,0 l/m 2,0 km/h (1 Bft) NO 55 0 min 0,000 mm 0,0 UV-I 0 W/m -1,5 C 0,4 C 3,2 km/h (1 Bft) 94,74 %
13.12.2017 18:14 0,4 C 3,9 C 87 % 1010,0 hPa 0,0 l/m 2,3 km/h (1 Bft) NO 55 0 min 0,000 mm 0,0 UV-I 0 W/m -1,5 C 0,4 C 3,2 km/h (1 Bft) 93,62 %
13.12.2017 18:16 0,4 C 3,9 C 87 % 1009,9 hPa 0,0 l/m 3,1 km/h (1 Bft) NO 55 0 min 0,000 mm 0,0 UV-I 0 W/m -1,5 C 0,4 C 3,2 km/h (1 Bft) 95,74 %
13.12.2017 18:18 0,4 C 3,9 C 86 % 1009,9 hPa 0,0 l/m 2,5 km/h (1 Bft) NO 55 0 min 0,000 mm 0,0 UV-I 0 W/m -1,7 C 0,4 C 3,2 km/h (1 Bft) 98,00 %
13.12.2017 18:20 0,4 C 3,9 C 86 % 1009,9 hPa 0,0 l/m 2,1 km/h (1 Bft) NO 55 0 min 0,000 mm 0,0 UV-I 0 W/m -1,7 C 0,4 C 3,2 km/h (1 Bft) 97,92 %
13.12.2017 18:22 0,3 C 3,9 C 86 % 1009,9 hPa 0,0 l/m 1,7 km/h (1 Bft) NO 55 0 min 0,000 mm 0,0 UV-I 0 W/m -1,8 C 0,3 C 3,2 km/h (1 Bft) 95,74 %
13.12.2017 18:24 0,2 C 3,9 C 87 % 1009,9 hPa 0,0 l/m 0,8 km/h (0 Bft) NO 55 0 min 0,000 mm 0,0 UV-I 0 W/m -1,7 C 0,2 C 1,6 km/h (1 Bft) 97,87 %
13.12.2017 18:26 0,1 C 3,9 C 88 % 1009,9 hPa 0,0 l/m 0,0 km/h (0 Bft) NO 55 0 min 0,000 mm 0,0 UV-I 0 W/m -1,6 C 0,1 C 0,0 km/h (0 Bft) 94,00 %
13.12.2017 18:28 -0,1 C 3,9 C 89 % 1009,8 hPa 0,0 l/m 0,0 km/h (0 Bft) NO 55 0 min 0,000 mm 0,0 UV-I 0 W/m -1,7 C -0,1 C 1,6 km/h (1 Bft) 95,74 %
13.12.2017 18:30 -0,6 C 3,9 C 88 % 1009,7 hPa 0,0 l/m 0,0 km/h (0 Bft) NO 55 0 min 0,000 mm 0,0 UV-I 0 W/m -2,3 C -0,6 C 0,0 km/h (0 Bft) 97,87 %
13.12.2017 18:32 -0,8 C 3,9 C 89 % 1009,8 hPa 0,0 l/m 0,0 km/h (0 Bft) NO 55 0 min 0,000 mm 0,0 UV-I 0 W/m -2,4 C -0,8 C 0,0 km/h (0 Bft) 97,87 %
13.12.2017 18:34 -0,9 C 3,9 C 90 % 1009,7 hPa 0,0 l/m 0,0 km/h (0 Bft) NO 55 0 min 0,000 mm 0,0 UV-I 0 W/m -2,3 C -0,9 C 0,0 km/h (0 Bft) 97,87 %
13.12.2017 18:36 -0,9 C 3,9 C 91 % 1009,7 hPa 0,0 l/m 0,9 km/h (0 Bft) NO 55 0 min 0,000 mm 0,0 UV-I 0 W/m -2,2 C -0,9 C 3,2 km/h (1 Bft) 97,87 %
13.12.2017 18:38 -1,0 C 3,9 C 91 % 1009,5 hPa 0,0 l/m 2,8 km/h (1 Bft) NO 55 0 min 0,000 mm 0,0 UV-I 0 W/m -2,3 C -1,0 C 4,8 km/h (1 Bft) 97,37 %
13.12.2017 18:40 -1,1 C 3,9 C 91 % 1009,5 hPa 0,0 l/m 2,9 km/h (1 Bft) NO 55 0 min 0,000 mm 0,0 UV-I 0 W/m -2,4 C -1,1 C 3,2 km/h (1 Bft) 97,87 %
13.12.2017 18:42 -1,2 C 3,9 C 92 % 1009,5 hPa 0,0 l/m 1,6 km/h (1 Bft) NO 55 0 min 0,000 mm 0,0 UV-I 0 W/m -2,3 C -1,2 C 3,2 km/h (1 Bft) 95,74 %
13.12.2017 18:44 -1,1 C 3,9 C 92 % 1009,5 hPa 0,0 l/m 0,0 km/h (0 Bft) NO 55 0 min 0,000 mm 0,0 UV-I 0 W/m -2,2 C -1,1 C 0,0 km/h (0 Bft) 97,87 %
13.12.2017 18:46 -1,2 C 3,9 C 93 % 1009,5 hPa 0,0 l/m 0,0 km/h (0 Bft) NO 55 0 min 0,000 mm 0,0 UV-I 0 W/m -2,2 C -1,2 C 0,0 km/h (0 Bft) 97,87 %
13.12.2017 18:48 -1,2 C 3,9 C 93 % 1009,4 hPa 0,0 l/m 0,0 km/h (0 Bft) NO 55 0 min 0,000 mm 0,0 UV-I 0 W/m -2,2 C -1,2 C 0,0 km/h (0 Bft) 97,87 %
13.12.2017 18:50 -1,3 C 3,9 C 92 % 1009,3 hPa 0,0 l/m 0,0 km/h (0 Bft) NO 55 0 min 0,000 mm 0,0 UV-I 0 W/m -2,4 C -1,3 C 0,0 km/h (0 Bft) 96,23 %
13.12.2017 18:52 -1,4 C 3,9 C 92 % 1009,3 hPa 0,0 l/m 0,0 km/h (0 Bft) NO 55 0 min 0,000 mm 0,0 UV-I 0 W/m -2,5 C -1,4 C 0,0 km/h (0 Bft) 97,87 %
13.12.2017 18:54 -1,3 C 3,9 C 93 % 1009,2 hPa 0,0 l/m 0,0 km/h (0 Bft) NO 55 0 min 0,000 mm 0,0 UV-I 0 W/m -2,3 C -1,3 C 0,0 km/h (0 Bft) 97,87 %
13.12.2017 18:56 -1,3 C 3,9 C 93 % 1009,1 hPa 0,0 l/m 2,3 km/h (1 Bft) NO 55 0 min 0,000 mm 0,0 UV-I 0 W/m -2,3 C -1,3 C 4,8 km/h (1 Bft) 95,74 %
13.12.2017 18:58 -1,3 C 3,9 C 93 % 1009,0 hPa 0,0 l/m 3,6 km/h (1 Bft) NO 55 0 min 0,000 mm 0,0 UV-I 0 W/m -2,3 C -1,3 C 4,8 km/h (1 Bft) 100,00 %
13.12.2017 19:00 -1,3 C 3,9 C 93 % 1009,0 hPa 0,0 l/m 3,9 km/h (1 Bft) NO 55 0 min 0,000 mm 0,0 UV-I 0 W/m -2,3 C -1,3 C 4,8 km/h (1 Bft) 100,00 %
13.12.2017 19:02 -1,2 C 3,9 C 94 % 1009,0 hPa 0,0 l/m 4,8 km/h (1 Bft) NO 55 0 min 0,000 mm 0,0 UV-I 0 W/m -2,0 C -1,2 C 6,4 km/h (2 Bft) 97,87 %
13.12.2017 19:04 -0,7 C 3,9 C 94 % 1008,9 hPa 0,0 l/m 5,5 km/h (1 Bft) O-NO 57 0 min 0,000 mm 0,0 UV-I 0 W/m -1,5 C -0,7 C 6,4 km/h (2 Bft) 100,00 %
13.12.2017 19:06 -0,6 C 3,9 C 91 % 1008,9 hPa 0,0 l/m 5,3 km/h (1 Bft) O 89 0 min 0,000 mm 0,0 UV-I 0 W/m -1,9 C -0,6 C 6,4 km/h (2 Bft) 97,87 %
13.12.2017 19:08 -0,7 C 3,9 C 90 % 1008,8 hPa 0,0 l/m 4,7 km/h (1 Bft) O 88 0 min 0,000 mm 0,0 UV-I 0 W/m -2,1 C -0,7 C 8,0 km/h (2 Bft) 100,00 %
13.12.2017 19:10 -0,8 C 3,9 C 91 % 1008,7 hPa 0,0 l/m 3,3 km/h (1 Bft) O 101 0 min 0,000 mm 0,0 UV-I 0 W/m -2,1 C -0,8 C 6,4 km/h (2 Bft) 100,00 %
13.12.2017 19:12 -0,8 C 3,9 C 91 % 1008,6 hPa 0,0 l/m 6,4 km/h (2 Bft) O 101 0 min 0,000 mm 0,0 UV-I 0 W/m -2,1 C -0,8 C 11,3 km/h (2 Bft) 97,87 %
13.12.2017 19:14 -0,7 C 3,9 C 91 % 1008,6 hPa 0,0 l/m 4,3 km/h (1 Bft) O 82 0 min 0,000 mm 0,0 UV-I 0 W/m -2,0 C -0,7 C 6,4 km/h (2 Bft) 100,00 %
13.12.2017 19:16 -0,6 C 3,9 C 91 % 1008,5 hPa 0,0 l/m 4,2 km/h (1 Bft) O 97 0 min 0,000 mm 0,0 UV-I 0 W/m -1,9 C -0,6 C 9,7 km/h (2 Bft) 98,00 %
13.12.2017 19:18 -0,4 C 3,9 C 90 % 1008,4 hPa 0,0 l/m 5,6 km/h (1 Bft) O 88 0 min 0,000 mm 0,0 UV-I 0 W/m -1,8 C -0,4 C 8,0 km/h (2 Bft) 100,00 %
13.12.2017 19:20 -0,3 C 3,9 C 90 % 1008,4 hPa 0,0 l/m 4,1 km/h (1 Bft) O 88 0 min 0,000 mm 0,0 UV-I 0 W/m -1,7 C -0,3 C 8,0 km/h (2 Bft) 97,87 %
13.12.2017 19:22 -0,3 C 3,9 C 89 % 1008,4 hPa 0,0 l/m 3,6 km/h (1 Bft) O 88 0 min 0,000 mm 0,0 UV-I 0 W/m -1,9 C -0,3 C 6,4 km/h (2 Bft) 97,87 %
13.12.2017 19:24 -0,3 C 3,9 C 89 % 1008,3 hPa 0,0 l/m 2,2 km/h (1 Bft) O 88 0 min 0,000 mm 0,0 UV-I 0 W/m -1,9 C -0,3 C 4,8 km/h (1 Bft) 100,00 %
13.12.2017 19:26 -0,3 C 3,9 C 89 % 1008,2 hPa 0,0 l/m 2,2 km/h (1 Bft) O 88 0 min 0,000 mm 0,0 UV-I 0 W/m -1,9 C -0,3 C 3,2 km/h (1 Bft) 97,96 %
13.12.2017 19:28 -0,3 C 3,9 C 89 % 1008,2 hPa 0,0 l/m 3,2 km/h (1 Bft) O 88 0 min 0,000 mm 0,0 UV-I 0 W/m -1,9 C -0,3 C 4,8 km/h (1 Bft) 97,87 %
13.12.2017 19:30 -0,4 C 3,9 C 89 % 1008,2 hPa 0,0 l/m 3,6 km/h (1 Bft) O-SO 113 0 min 0,000 mm 0,0 UV-I 0 W/m -2,0 C -0,4 C 6,4 km/h (2 Bft) 97,87 %
13.12.2017 19:32 -0,4 C 3,9 C 90 % 1008,0 hPa 0,0 l/m 3,8 km/h (1 Bft) O-SO 113 0 min 0,000 mm 0,0 UV-I 0 W/m -1,8 C -0,4 C 4,8 km/h (1 Bft) 97,87 %
13.12.2017 19:34 -0,5 C 3,9 C 89 % 1007,9 hPa 0,0 l/m 4,1 km/h (1 Bft) O-SO 113 0 min 0,000 mm 0,0 UV-I 0 W/m -2,1 C -0,5 C 4,8 km/h (1 Bft) 100,00 %
13.12.2017 19:36 -0,7 C 3,9 C 90 % 1007,8 hPa 0,0 l/m 4,0 km/h (1 Bft) O-SO 113 0 min 0,000 mm 0,0 UV-I 0 W/m -2,1 C -0,7 C 6,4 km/h (2 Bft) 97,87 %
13.12.2017 19:38 -0,7 C 3,9 C 90 % 1007,9 hPa 0,0 l/m 4,1 km/h (1 Bft) O-SO 113 0 min 0,000 mm 0,0 UV-I 0 W/m -2,1 C -0,7 C 6,4 km/h (2 Bft) 100,00 %
13.12.2017 19:40 -0,7 C 3,9 C 91 % 1007,8 hPa 0,0 l/m 0,9 km/h (0 Bft) O-SO 113 0 min 0,000 mm 0,0 UV-I 0 W/m -2,0 C -0,7 C 4,8 km/h (1 Bft) 100,00 %
13.12.2017 19:42 -0,6 C 3,9 C 90 % 1007,8 hPa 0,0 l/m 0,8 km/h (0 Bft) O-SO 113 0 min 0,000 mm 0,0 UV-I 0 W/m -2,0 C -0,6 C 3,2 km/h (1 Bft) 100,00 %
13.12.2017 19:44 -0,6 C 3,9 C 90 % 1007,8 hPa 0,0 l/m 2,0 km/h (1 Bft) O-SO 113 0 min 0,000 mm 0,0 UV-I 0 W/m -2,0 C -0,6 C 3,2 km/h (1 Bft) 100,00 %
13.12.2017 19:46 -0,6 C 3,9 C 90 % 1007,8 hPa 0,0 l/m 0,2 km/h (0 Bft) O-SO 113 0 min 0,000 mm 0,0 UV-I 0 W/m -2,0 C -0,6 C 1,6 km/h (1 Bft) 100,00 %
13.12.2017 19:48 -0,8 C 3,9 C 90 % 1007,7 hPa 0,0 l/m 0,0 km/h (0 Bft) O-SO 113 0 min 0,000 mm 0,0 UV-I 0 W/m -2,2 C -0,8 C 0,0 km/h (0 Bft) 95,74 %
13.12.2017 19:50 -0,9 C 3,9 C 90 % 1007,6 hPa 0,0 l/m 0,6 km/h (0 Bft) O-SO 113 0 min 0,000 mm 0,0 UV-I 0 W/m -2,3 C -0,9 C 3,2 km/h (1 Bft) 97,87 %
13.12.2017 19:52 -0,8 C 3,9 C 91 % 1007,6 hPa 0,0 l/m 3,0 km/h (1 Bft) O-SO 113 0 min 0,000 mm 0,0 UV-I 0 W/m -2,1 C -0,8 C 4,8 km/h (1 Bft) 100,00 %
13.12.2017 19:54 -0,6 C 3,9 C 91 % 1007,5 hPa 0,0 l/m 2,6 km/h (1 Bft) O-SO 113 0 min 0,000 mm 0,0 UV-I 0 W/m -1,9 C -0,6 C 3,2 km/h (1 Bft) 97,87 %
13.12.2017 19:56 -0,7 C 3,9 C 90 % 1007,5 hPa 0,0 l/m 2,5 km/h (1 Bft) O-SO 111 0 min 0,000 mm 0,0 UV-I 0 W/m -2,1 C -0,7 C 4,8 km/h (1 Bft) 93,62 %
13.12.2017 19:58 -0,6 C 3,9 C 91 % 1007,3 hPa 0,0 l/m 3,4 km/h (1 Bft) O-SO 111 0 min 0,000 mm 0,0 UV-I 0 W/m -1,9 C -0,6 C 4,8 km/h (1 Bft) 91,49 %
13.12.2017 20:00 -0,4 C 3,9 C 90 % 1007,2 hPa 0,0 l/m 2,5 km/h (1 Bft) O-SO 111 0 min 0,000 mm 0,0 UV-I 0 W/m -1,8 C -0,4 C 4,8 km/h (1 Bft) 95,74 %
13.12.2017 20:02 -0,4 C 3,9 C 90 % 1007,1 hPa 0,0 l/m 0,2 km/h (0 Bft) O-SO 111 0 min 0,000 mm 0,0 UV-I 0 W/m -1,8 C -0,4 C 1,6 km/h (1 Bft) 97,87 %
13.12.2017 20:04 -0,7 C 3,9 C 91 % 1007,1 hPa 0,0 l/m 0,9 km/h (0 Bft) O-SO 111 0 min 0,000 mm 0,0 UV-I 0 W/m -2,0 C -0,7 C 3,2 km/h (1 Bft) 97,96 %
13.12.2017 20:06 -0,8 C 3,9 C 91 % 1007,0 hPa 0,0 l/m 2,9 km/h (1 Bft) O-SO 111 0 min 0,000 mm 0,0 UV-I 0 W/m -2,1 C -0,8 C 4,8 km/h (1 Bft) 98,00 %
13.12.2017 20:08 -0,8 C 3,9 C 92 % 1007,0 hPa 0,0 l/m 2,3 km/h (1 Bft) O-SO 111 0 min 0,000 mm 0,0 UV-I 0 W/m -1,9 C -0,8 C 3,2 km/h (1 Bft) 95,74 %
13.12.2017 20:10 -0,8 C 3,9 C 92 % 1007,0 hPa 0,0 l/m 2,5 km/h (1 Bft) O-SO 111 0 min 0,000 mm 0,0 UV-I 0 W/m -1,9 C -0,8 C 4,8 km/h (1 Bft) 95,74 %
13.12.2017 20:12 -0,7 C 3,9 C 92 % 1006,9 hPa 0,0 l/m 1,0 km/h (0 Bft) O-SO 111 0 min 0,000 mm 0,0 UV-I 0 W/m -1,8 C -0,7 C 3,2 km/h (1 Bft) 97,14 %
13.12.2017 20:14 -0,8 C 3,9 C 92 % 1006,9 hPa 0,0 l/m 0,2 km/h (0 Bft) O-SO 111 0 min 0,000 mm 0,0 UV-I 0 W/m -1,9 C -0,8 C 1,6 km/h (1 Bft) 96,36 %
13.12.2017 20:16 -0,8 C 3,9 C 92 % 1006,8 hPa 0,0 l/m 0,0 km/h (0 Bft) O-SO 111 0 min 0,000 mm 0,0 UV-I 0 W/m -1,9 C -0,8 C 0,0 km/h (0 Bft) 98,00 %
13.12.2017 20:18 -0,9 C 3,9 C 92 % 1006,8 hPa 0,0 l/m 1,7 km/h (1 Bft) O-SO 111 0 min 0,000 mm 0,0 UV-I 0 W/m -2,0 C -0,9 C 3,2 km/h (1 Bft) 95,74 %
13.12.2017 20:20 -0,9 C 3,9 C 92 % 1006,7 hPa 0,0 l/m 3,2 km/h (1 Bft) O-SO 111 0 min 0,000 mm 0,0 UV-I 0 W/m -2,0 C -0,9 C 4,8 km/h (1 Bft) 97,87 %
13.12.2017 20:22 -0,9 C 3,9 C 92 % 1006,8 hPa 0,0 l/m 3,5 km/h (1 Bft) O-SO 111 0 min 0,000 mm 0,0 UV-I 0 W/m -2,0 C -0,9 C 4,8 km/h (1 Bft) 97,87 %
13.12.2017 20:24 -0,9 C 3,9 C 92 % 1006,7 hPa 0,0 l/m 2,6 km/h (1 Bft) O-SO 111 0 min 0,000 mm 0,0 UV-I 0 W/m -2,0 C -0,9 C 3,2 km/h (1 Bft) 93,75 %
13.12.2017 20:26 -1,0 C 3,9 C 92 % 1006,7 hPa 0,0 l/m 2,9 km/h (1 Bft) O-SO 111 0 min 0,000 mm 0,0 UV-I 0 W/m -2,1 C -1,0 C 4,8 km/h (1 Bft) 95,74 %
13.12.2017 20:28 -0,9 C 3,9 C 92 % 1006,6 hPa 0,0 l/m 3,0 km/h (1 Bft) O-SO 111 0 min 0,000 mm 0,0 UV-I 0 W/m -2,0 C -0,9 C 4,8 km/h (1 Bft) 100,00 %
13.12.2017 20:30 -0,8 C 3,9 C 93 % 1006,5 hPa 0,0 l/m 3,9 km/h (1 Bft) O-SO 111 0 min 0,000 mm 0,0 UV-I 0 W/m -1,8 C -0,8 C 4,8 km/h (1 Bft) 95,74 %
13.12.2017 20:32 -0,8 C 3,9 C 92 % 1006,5 hPa 0,0 l/m 4,3 km/h (1 Bft) O-SO 105 0 min 0,000 mm 0,0 UV-I 0 W/m -1,9 C -0,8 C 6,4 km/h (2 Bft) 96,00 %
13.12.2017 20:34 -0,7 C 3,9 C 92 % 1006,4 hPa 0,0 l/m 4,2 km/h (1 Bft) O-NO 70 0 min 0,000 mm 0,0 UV-I 0 W/m -1,8 C -0,7 C 6,4 km/h (2 Bft) 93,62 %
13.12.2017 20:36 -0,7 C 3,9 C 92 % 1006,5 hPa 0,0 l/m 2,9 km/h (1 Bft) O-NO 70 0 min 0,000 mm 0,0 UV-I 0 W/m -1,8 C -0,7 C 4,8 km/h (1 Bft) 97,87 %
13.12.2017 20:38 -0,7 C 3,9 C 92 % 1006,6 hPa 0,0 l/m 0,0 km/h (0 Bft) O-NO 70 0 min 0,000 mm 0,0 UV-I 0 W/m -1,8 C -0,7 C 1,6 km/h (1 Bft) 100,00 %
13.12.2017 20:40 -0,8 C 3,9 C 91 % 1006,5 hPa 0,0 l/m 0,0 km/h (0 Bft) O-NO 70 0 min 0,000 mm 0,0 UV-I 0 W/m -2,1 C -0,8 C 0,0 km/h (0 Bft) 93,62 %
13.12.2017 20:42 -1,1 C 3,9 C 92 % 1006,5 hPa 0,0 l/m 0,0 km/h (0 Bft) O-NO 70 0 min 0,000 mm 0,0 UV-I 0 W/m -2,2 C -1,1 C 0,0 km/h (0 Bft) 93,62 %
13.12.2017 20:44 -1,1 C 3,9 C 92 % 1006,5 hPa 0,0 l/m 1,4 km/h (1 Bft) O-NO 70 0 min 0,000 mm 0,0 UV-I 0 W/m -2,2 C -1,1 C 3,2 km/h (1 Bft) 97,87 %
13.12.2017 20:46 -1,1 C 3,9 C 93 % 1006,6 hPa 0,0 l/m 0,1 km/h (0 Bft) O-NO 70 0 min 0,000 mm 0,0 UV-I 0 W/m -2,1 C -1,1 C 1,6 km/h (1 Bft) 98,00 %
13.12.2017 20:48 -1,1 C 3,9 C 93 % 1006,5 hPa 0,0 l/m 0,2 km/h (0 Bft) O-NO 70 0 min 0,000 mm 0,0 UV-I 0 W/m -2,1 C -1,1 C 1,6 km/h (1 Bft) 91,49 %
13.12.2017 20:50 -1,1 C 3,9 C 93 % 1006,4 hPa 0,0 l/m 1,1 km/h (1 Bft) O-NO 70 0 min 0,000 mm 0,0 UV-I 0 W/m -2,1 C -1,1 C 4,8 km/h (1 Bft) 100,00 %
13.12.2017 20:52 -1,1 C 3,9 C 93 % 1006,3 hPa 0,0 l/m 4,0 km/h (1 Bft) O-NO 70 0 min 0,000 mm 0,0 UV-I 0 W/m -2,1 C -1,1 C 4,8 km/h (1 Bft) 97,87 %
13.12.2017 20:54 -1,0 C 3,9 C 93 % 1006,2 hPa 0,0 l/m 4,3 km/h (1 Bft) O-NO 60 0 min 0,000 mm 0,0 UV-I 0 W/m -2,0 C -1,0 C 4,8 km/h (1 Bft) 100,00 %
13.12.2017 20:56 -0,9 C 3,9 C 93 % 1006,2 hPa 0,0 l/m 5,6 km/h (1 Bft) NO 38 0 min 0,000 mm 0,0 UV-I 0 W/m -1,9 C -0,9 C 6,4 km/h (2 Bft) 100,00 %
13.12.2017 20:58 -0,9 C 3,9 C 93 % 1006,2 hPa 0,0 l/m 5,3 km/h (1 Bft) NO 38 0 min 0,000 mm 0,0 UV-I 0 W/m -1,9 C -0,9 C 6,4 km/h (2 Bft) 100,00 %
13.12.2017 21:00 -0,8 C 3,9 C 93 % 1006,2 hPa 0,0 l/m 4,9 km/h (1 Bft) NO 38 0 min 0,000 mm 0,0 UV-I 0 W/m -1,8 C -0,8 C 8,0 km/h (2 Bft) 95,74 %
13.12.2017 21:02 -0,8 C 3,9 C 92 % 1006,2 hPa 0,0 l/m 4,0 km/h (1 Bft) NO 38 0 min 0,000 mm 0,0 UV-I 0 W/m -1,9 C -0,8 C 6,4 km/h (2 Bft) 100,00 %
13.12.2017 21:04 -0,7 C 3,9 C 92 % 1006,2 hPa 0,0 l/m 2,1 km/h (1 Bft) NO 38 0 min 0,000 mm 0,0 UV-I 0 W/m -1,8 C -0,7 C 4,8 km/h (1 Bft) 100,00 %
13.12.2017 21:06 -0,7 C 3,9 C 92 % 1006,1 hPa 0,0 l/m 0,1 km/h (0 Bft) NO 38 0 min 0,000 mm 0,0 UV-I 0 W/m -1,8 C -0,7 C 1,6 km/h (1 Bft) 97,87 %
13.12.2017 21:08 -0,7 C 3,9 C 92 % 1006,2 hPa 0,0 l/m 0,0 km/h (0 Bft) NO 38 0 min 0,000 mm 0,0 UV-I 0 W/m -1,8 C -0,7 C 0,0 km/h (0 Bft) 96,00 %
13.12.2017 21:10 -0,7 C 3,9 C 92 % 1006,1 hPa 0,0 l/m 0,8 km/h (0 Bft) NO 38 0 min 0,000 mm 0,0 UV-I 0 W/m -1,8 C -0,7 C 3,2 km/h (1 Bft) 100,00 %
13.12.2017 21:12 -0,8 C 3,9 C 92 % 1006,0 hPa 0,0 l/m 2,5 km/h (1 Bft) NO 38 0 min 0,000 mm 0,0 UV-I 0 W/m -1,9 C -0,8 C 4,8 km/h (1 Bft) 96,00 %
13.12.2017 21:14 -0,8 C 3,9 C 92 % 1006,0 hPa 0,0 l/m 0,7 km/h (0 Bft) NO 38 0 min 0,000 mm 0,0 UV-I 0 W/m -1,9 C -0,8 C 1,6 km/h (1 Bft) 100,00 %
13.12.2017 21:16 -0,9 C 3,9 C 92 % 1006,0 hPa 0,0 l/m 0,0 km/h (0 Bft) NO 38 0 min 0,000 mm 0,0 UV-I 0 W/m -2,0 C -0,9 C 0,0 km/h (0 Bft) 97,87 %
13.12.2017 21:18 -0,8 C 3,9 C 92 % 1005,9 hPa 0,0 l/m 1,5 km/h (1 Bft) NO 38 0 min 0,000 mm 0,0 UV-I 0 W/m -1,9 C -0,8 C 3,2 km/h (1 Bft) 100,00 %
13.12.2017 21:20 -0,8 C 3,9 C 92 % 1005,8 hPa 0,0 l/m 2,2 km/h (1 Bft) NO 38 0 min 0,000 mm 0,0 UV-I 0 W/m -1,9 C -0,8 C 3,2 km/h (1 Bft) 97,87 %
13.12.2017 21:22 -0,8 C 3,9 C 92 % 1005,9 hPa 0,0 l/m 0,2 km/h (0 Bft) NO 38 0 min 0,000 mm 0,0 UV-I 0 W/m -1,9 C -0,8 C 1,6 km/h (1 Bft) 97,87 %
13.12.2017 21:24 -0,9 C 3,9 C 92 % 1005,8 hPa 0,0 l/m 0,1 km/h (0 Bft) NO 38 0 min 0,000 mm 0,0 UV-I 0 W/m -2,0 C -0,9 C 1,6 km/h (1 Bft) 97,87 %
13.12.2017 21:26 -0,9 C 3,9 C 93 % 1005,8 hPa 0,0 l/m 0,0 km/h (0 Bft) NO 38 0 min 0,000 mm 0,0 UV-I 0 W/m -1,9 C -0,9 C 0,0 km/h (0 Bft) 100,00 %
13.12.2017 21:28 -0,9 C 3,9 C 93 % 1005,7 hPa 0,0 l/m 0,0 km/h (0 Bft) NO 38 0 min 0,000 mm 0,0 UV-I 0 W/m -1,9 C -0,9 C 0,0 km/h (0 Bft) 100,00 %
13.12.2017 21:30 -0,9 C 3,9 C 93 % 1005,7 hPa 0,0 l/m 0,0 km/h (0 Bft) NO 38 0 min 0,000 mm 0,0 UV-I 0 W/m -1,9 C -0,9 C 0,0 km/h (0 Bft) 100,00 %
13.12.2017 21:32 -1,0 C 3,9 C 93 % 1005,7 hPa 0,0 l/m 0,4 km/h (0 Bft) NO 38 0 min 0,000 mm 0,0 UV-I 0 W/m -2,0 C -1,0 C 1,6 km/h (1 Bft) 100,00 %
13.12.2017 21:34 -1,0 C 3,9 C 93 % 1005,7 hPa 0,0 l/m 0,0 km/h (0 Bft) NO 38 0 min 0,000 mm 0,0 UV-I 0 W/m -2,0 C -1,0 C 0,0 km/h (0 Bft) 95,74 %
13.12.2017 21:36 -1,0 C 3,9 C 93 % 1005,7 hPa 0,0 l/m 0,5 km/h (0 Bft) NO 38 0 min 0,000 mm 0,0 UV-I 0 W/m -2,0 C -1,0 C 1,6 km/h (1 Bft) 100,00 %
13.12.2017 21:38 -1,1 C 3,9 C 93 % 1005,7 hPa 0,0 l/m 1,0 km/h (0 Bft) NO 38 0 min 0,000 mm 0,0 UV-I 0 W/m -2,1 C -1,1 C 3,2 km/h (1 Bft) 100,00 %
13.12.2017 21:40 -1,1 C 3,9 C 93 % 1005,6 hPa 0,0 l/m 2,5 km/h (1 Bft) NO 38 0 min 0,000 mm 0,0 UV-I 0 W/m -2,1 C -1,1 C 4,8 km/h (1 Bft) 100,00 %
13.12.2017 21:42 -1,1 C 3,9 C 93 % 1005,6 hPa 0,0 l/m 1,5 km/h (1 Bft) N-NO 13 0 min 0,000 mm 0,0 UV-I 0 W/m -2,1 C -1,1 C 4,8 km/h (1 Bft) 97,87 %
13.12.2017 21:44 -1,1 C 3,9 C 93 % 1005,7 hPa 0,0 l/m 0,7 km/h (0 Bft) N 11 0 min 0,000 mm 0,0 UV-I 0 W/m -2,1 C -1,1 C 3,2 km/h (1 Bft) 93,62 %
13.12.2017 21:46 -0,9 C 3,9 C 93 % 1005,6 hPa 0,0 l/m 3,8 km/h (1 Bft) NO 38 0 min 0,000 mm 0,0 UV-I 0 W/m -1,9 C -0,9 C 6,4 km/h (2 Bft) 100,00 %
13.12.2017 21:48 -0,8 C 3,9 C 93 % 1005,6 hPa 0,0 l/m 2,3 km/h (1 Bft) N 9 0 min 0,000 mm 0,0 UV-I 0 W/m -1,8 C -0,8 C 4,8 km/h (1 Bft) 100,00 %
13.12.2017 21:50 -0,8 C 3,9 C 93 % 1005,8 hPa 0,0 l/m 2,1 km/h (1 Bft) N-NW 335 0 min 0,000 mm 0,0 UV-I 0 W/m -1,8 C -0,8 C 4,8 km/h (1 Bft) 100,00 %
13.12.2017 21:52 -0,8 C 3,9 C 92 % 1005,8 hPa 0,0 l/m 1,3 km/h (1 Bft) N-NW 335 0 min 0,000 mm 0,0 UV-I 0 W/m -1,9 C -0,8 C 3,2 km/h (1 Bft) 97,87 %
13.12.2017 21:54 -0,9 C 3,9 C 92 % 1005,9 hPa 0,0 l/m 2,3 km/h (1 Bft) N-NW 331 0 min 0,000 mm 0,0 UV-I 0 W/m -2,0 C -0,9 C 4,8 km/h (1 Bft) 97,87 %
13.12.2017 21:56 -1,0 C 3,9 C 93 % 1005,8 hPa 0,0 l/m 0,0 km/h (0 Bft) N-NW 331 0 min 0,000 mm 0,0 UV-I 0 W/m -2,0 C -1,0 C 0,0 km/h (0 Bft) 100,00 %
13.12.2017 21:58 -1,1 C 3,9 C 93 % 1005,7 hPa 0,0 l/m 0,6 km/h (0 Bft) N-NW 331 0 min 0,000 mm 0,0 UV-I 0 W/m -2,1 C -1,1 C 4,8 km/h (1 Bft) 95,74 %
13.12.2017 22:00 -1,1 C 3,9 C 93 % 1005,8 hPa 0,0 l/m 2,1 km/h (1 Bft) N-NW 331 0 min 0,000 mm 0,0 UV-I 0 W/m -2,1 C -1,1 C 4,8 km/h (1 Bft) 97,87 %
13.12.2017 22:02 -1,1 C 3,9 C 93 % 1005,7 hPa 0,0 l/m 1,8 km/h (1 Bft) NW 324 0 min 0,000 mm 0,0 UV-I 0 W/m -2,1 C -1,1 C 4,8 km/h (1 Bft) 95,74 %
13.12.2017 22:04 -1,2 C 3,9 C 93 % 1005,8 hPa 0,0 l/m 3,2 km/h (1 Bft) NW 315 0 min 0,000 mm 0,0 UV-I 0 W/m -2,2 C -1,2 C 6,4 km/h (2 Bft) 97,87 %
13.12.2017 22:06 -1,2 C 3,9 C 93 % 1005,7 hPa 0,0 l/m 2,1 km/h (1 Bft) NW 316 0 min 0,000 mm 0,0 UV-I 0 W/m -2,2 C -1,2 C 3,2 km/h (1 Bft) 97,87 %
13.12.2017 22:08 -1,2 C 3,9 C 93 % 1005,8 hPa 0,0 l/m 3,2 km/h (1 Bft) NW 311 0 min 0,000 mm 0,0 UV-I 0 W/m -2,2 C -1,2 C 4,8 km/h (1 Bft) 97,87 %
13.12.2017 22:10 -1,2 C 3,9 C 92 % 1005,8 hPa 0,0 l/m 0,9 km/h (0 Bft) NW 311 0 min 0,000 mm 0,0 UV-I 0 W/m -2,3 C -1,2 C 3,2 km/h (1 Bft) 97,87 %
13.12.2017 22:12 -1,2 C 3,9 C 92 % 1005,8 hPa 0,0 l/m 0,6 km/h (0 Bft) NW 311 0 min 0,000 mm 0,0 UV-I 0 W/m -2,3 C -1,2 C 3,2 km/h (1 Bft) 91,49 %
13.12.2017 22:14 -1,2 C 3,9 C 92 % 1005,7 hPa 0,0 l/m 0,7 km/h (0 Bft) NW 311 0 min 0,000 mm 0,0 UV-I 0 W/m -2,3 C -1,2 C 3,2 km/h (1 Bft) 93,62 %
13.12.2017 22:16 -1,2 C 3,9 C 92 % 1005,6 hPa 0,0 l/m 0,0 km/h (0 Bft) NW 311 0 min 0,000 mm 0,0 UV-I 0 W/m -2,3 C -1,2 C 1,6 km/h (1 Bft) 91,67 %
13.12.2017 22:18 -1,2 C 3,9 C 92 % 1005,7 hPa 0,0 l/m 2,1 km/h (1 Bft) NW 311 0 min 0,000 mm 0,0 UV-I 0 W/m -2,3 C -1,2 C 6,4 km/h (2 Bft) 89,36 %
13.12.2017 22:20 -1,2 C 3,9 C 92 % 1005,4 hPa 0,0 l/m 0,5 km/h (0 Bft) NW 311 0 min 0,000 mm 0,0 UV-I 0 W/m -2,3 C -1,2 C 3,2 km/h (1 Bft) 93,62 %
13.12.2017 22:22 -1,2 C 3,9 C 92 % 1005,3 hPa 0,0 l/m 0,6 km/h (0 Bft) NW 311 0 min 0,000 mm 0,0 UV-I 0 W/m -2,3 C -1,2 C 3,2 km/h (1 Bft) 93,75 %
13.12.2017 22:24 -1,2 C 3,9 C 92 % 1005,2 hPa 0,0 l/m 1,2 km/h (1 Bft) NW 311 0 min 0,000 mm 0,0 UV-I 0 W/m -2,3 C -1,2 C 3,2 km/h (1 Bft) 93,62 %
13.12.2017 22:26 -1,3 C 3,9 C 92 % 1005,2 hPa 0,0 l/m 0,0 km/h (0 Bft) NW 311 0 min 0,000 mm 0,0 UV-I 0 W/m -2,4 C -1,3 C 1,6 km/h (1 Bft) 95,74 %
13.12.2017 22:28 -1,4 C 3,9 C 92 % 1005,3 hPa 0,0 l/m 1,3 km/h (1 Bft) NW 311 0 min 0,000 mm 0,0 UV-I 0 W/m -2,5 C -1,4 C 4,8 km/h (1 Bft) 97,14 %
13.12.2017 22:30 -1,4 C 3,9 C 92 % 1005,3 hPa 0,0 l/m 2,6 km/h (1 Bft) NW 311 0 min 0,000 mm 0,0 UV-I 0 W/m -2,5 C -1,4 C 3,2 km/h (1 Bft) 92,00 %
13.12.2017 22:32 -1,4 C 3,9 C 92 % 1005,2 hPa 0,0 l/m 3,1 km/h (1 Bft) NW 311 0 min 0,000 mm 0,0 UV-I 0 W/m -2,5 C -1,4 C 4,8 km/h (1 Bft) 95,74 %
13.12.2017 22:34 -1,4 C 3,9 C 92 % 1005,2 hPa 0,0 l/m 1,1 km/h (1 Bft) NW 311 0 min 0,000 mm 0,0 UV-I 0 W/m -2,5 C -1,4 C 3,2 km/h (1 Bft) 96,00 %
13.12.2017 22:36 -1,4 C 3,9 C 92 % 1005,2 hPa 0,0 l/m 2,0 km/h (1 Bft) NW 311 0 min 0,000 mm 0,0 UV-I 0 W/m -2,5 C -1,4 C 3,2 km/h (1 Bft) 95,74 %
13.12.2017 22:38 -1,3 C 3,9 C 92 % 1005,1 hPa 0,0 l/m 0,1 km/h (0 Bft) NW 311 0 min 0,000 mm 0,0 UV-I 0 W/m -2,4 C -1,3 C 1,6 km/h (1 Bft) 94,00 %
13.12.2017 22:40 -1,3 C 3,9 C 92 % 1005,0 hPa 0,0 l/m 0,0 km/h (0 Bft) NW 311 0 min 0,000 mm 0,0 UV-I 0 W/m -2,4 C -1,3 C 0,0 km/h (0 Bft) 95,74 %
13.12.2017 22:42 -1,3 C 3,9 C 92 % 1005,1 hPa 0,0 l/m 0,0 km/h (0 Bft) NW 311 0 min 0,000 mm 0,0 UV-I 0 W/m -2,4 C -1,3 C 0,0 km/h (0 Bft) 97,87 %
13.12.2017 22:44 -1,3 C 3,9 C 92 % 1005,0 hPa 0,0 l/m 0,0 km/h (0 Bft) NW 311 0 min 0,000 mm 0,0 UV-I 0 W/m -2,4 C -1,3 C 0,0 km/h (0 Bft) 94,74 %
13.12.2017 22:46 -1,4 C 3,9 C 92 % 1004,9 hPa 0,0 l/m 1,1 km/h (1 Bft) NW 311 0 min 0,000 mm 0,0 UV-I 0 W/m -2,5 C -1,4 C 4,8 km/h (1 Bft) 94,00 %
13.12.2017 22:48 -1,3 C 3,9 C 93 % 1004,7 hPa 0,0 l/m 4,7 km/h (1 Bft) SO 131 0 min 0,000 mm 0,0 UV-I 0 W/m -2,3 C -1,3 C 6,4 km/h (2 Bft) 95,74 %
13.12.2017 22:50 -1,5 C 3,9 C 92 % 1004,6 hPa 0,0 l/m 6,3 km/h (2 Bft) SO 131 0 min 0,000 mm 0,0 UV-I 0 W/m -2,6 C -1,5 C 8,0 km/h (2 Bft) 97,87 %
13.12.2017 22:52 -1,7 C 3,9 C 92 % 1004,5 hPa 0,0 l/m 5,3 km/h (1 Bft) SO 131 0 min 0,000 mm 0,0 UV-I 0 W/m -2,8 C -1,7 C 6,4 km/h (2 Bft) 100,00 %
13.12.2017 22:54 -1,7 C 3,9 C 93 % 1004,5 hPa 0,0 l/m 3,8 km/h (1 Bft) SO 131 0 min 0,000 mm 0,0 UV-I 0 W/m -2,7 C -1,7 C 4,8 km/h (1 Bft) 97,87 %
13.12.2017 22:56 -1,7 C 3,9 C 93 % 1004,3 hPa 0,0 l/m 4,9 km/h (1 Bft) SO 131 0 min 0,000 mm 0,0 UV-I 0 W/m -2,7 C -1,7 C 6,4 km/h (2 Bft) 97,87 %
13.12.2017 22:58 -1,6 C 3,9 C 93 % 1004,2 hPa 0,0 l/m 3,9 km/h (1 Bft) SO 131 0 min 0,000 mm 0,0 UV-I 0 W/m -2,6 C -1,6 C 4,8 km/h (1 Bft) 100,00 %
13.12.2017 23:00 -1,4 C 3,9 C 93 % 1004,3 hPa 0,0 l/m 2,5 km/h (1 Bft) SO 131 0 min 0,000 mm 0,0 UV-I 0 W/m -2,4 C -1,4 C 4,8 km/h (1 Bft) 95,74 %
13.12.2017 23:02 -1,4 C 3,9 C 92 % 1004,3 hPa 0,0 l/m 1,2 km/h (1 Bft) SO 131 0 min 0,000 mm 0,0 UV-I 0 W/m -2,5 C -1,4 C 3,2 km/h (1 Bft) 100,00 %
13.12.2017 23:04 -1,4 C 3,9 C 92 % 1004,2 hPa 0,0 l/m 2,7 km/h (1 Bft) SO 131 0 min 0,000 mm 0,0 UV-I 0 W/m -2,5 C -1,4 C 4,8 km/h (1 Bft) 98,08 %
13.12.2017 23:06 -1,6 C 3,9 C 92 % 1004,2 hPa 0,0 l/m 2,9 km/h (1 Bft) SO 131 0 min 0,000 mm 0,0 UV-I 0 W/m -2,7 C -1,6 C 4,8 km/h (1 Bft) 100,00 %
13.12.2017 23:08 -1,7 C 3,9 C 92 % 1004,1 hPa 0,0 l/m 2,3 km/h (1 Bft) SO 131 0 min 0,000 mm 0,0 UV-I 0 W/m -2,8 C -1,7 C 3,2 km/h (1 Bft) 100,00 %
13.12.2017 23:10 -1,7 C 3,9 C 93 % 1004,1 hPa 0,0 l/m 2,6 km/h (1 Bft) SO 131 0 min 0,000 mm 0,0 UV-I 0 W/m -2,7 C -1,7 C 3,2 km/h (1 Bft) 100,00 %
13.12.2017 23:12 -1,8 C 3,9 C 93 % 1004,0 hPa 0,0 l/m 3,0 km/h (1 Bft) SO 131 0 min 0,000 mm 0,0 UV-I 0 W/m -2,8 C -1,8 C 4,8 km/h (1 Bft) 100,00 %
13.12.2017 23:14 -1,9 C 3,9 C 93 % 1004,0 hPa 0,0 l/m 1,8 km/h (1 Bft) SO 131 0 min 0,000 mm 0,0 UV-I 0 W/m -2,9 C -1,9 C 3,2 km/h (1 Bft) 100,00 %
13.12.2017 23:16 -1,9 C 3,9 C 93 % 1003,9 hPa 0,0 l/m 0,0 km/h (0 Bft) SO 131 0 min 0,000 mm 0,0 UV-I 0 W/m -2,9 C -1,9 C 0,0 km/h (0 Bft) 97,87 %
13.12.2017 23:18 -1,9 C 3,9 C 93 % 1003,8 hPa 0,0 l/m 0,5 km/h (0 Bft) SO 131 0 min 0,000 mm 0,0 UV-I 0 W/m -2,9 C -1,9 C 1,6 km/h (1 Bft) 100,00 %
13.12.2017 23:20 -1,8 C 3,9 C 94 % 1003,6 hPa 0,0 l/m 2,2 km/h (1 Bft) SO 131 0 min 0,000 mm 0,0 UV-I 0 W/m -2,6 C -1,8 C 4,8 km/h (1 Bft) 100,00 %
13.12.2017 23:22 -1,8 C 3,9 C 94 % 1003,5 hPa 0,0 l/m 3,0 km/h (1 Bft) SO 131 0 min 0,000 mm 0,0 UV-I 0 W/m -2,6 C -1,8 C 4,8 km/h (1 Bft) 100,00 %
13.12.2017 23:24 -1,8 C 3,9 C 93 % 1003,4 hPa 0,0 l/m 0,2 km/h (0 Bft) SO 131 0 min 0,000 mm 0,0 UV-I 0 W/m -2,8 C -1,8 C 3,2 km/h (1 Bft) 100,00 %
13.12.2017 23:26 -1,9 C 3,9 C 93 % 1003,4 hPa 0,0 l/m 0,8 km/h (0 Bft) SO 131 0 min 0,000 mm 0,0 UV-I 0 W/m -2,9 C -1,9 C 1,6 km/h (1 Bft) 100,00 %
13.12.2017 23:28 -1,8 C 3,9 C 93 % 1003,4 hPa 0,0 l/m 0,7 km/h (0 Bft) SO 131 0 min 0,000 mm 0,0 UV-I 0 W/m -2,8 C -1,8 C 1,6 km/h (1 Bft) 97,87 %
13.12.2017 23:30 -1,8 C 3,9 C 93 % 1003,4 hPa 0,0 l/m 0,0 km/h (0 Bft) SO 131 0 min 0,000 mm 0,0 UV-I 0 W/m -2,8 C -1,8 C 0,0 km/h (0 Bft) 100,00 %
13.12.2017 23:32 -1,8 C 3,9 C 93 % 1003,3 hPa 0,0 l/m 0,1 km/h (0 Bft) SO 131 0 min 0,000 mm 0,0 UV-I 0 W/m -2,8 C -1,8 C 1,6 km/h (1 Bft) 97,22 %
13.12.2017 23:34 -1,7 C 3,9 C 94 % 1003,2 hPa 0,0 l/m 1,0 km/h (0 Bft) SO 131 0 min 0,000 mm 0,0 UV-I 0 W/m -2,5 C -1,7 C 3,2 km/h (1 Bft) 100,00 %
13.12.2017 23:36 -1,7 C 3,9 C 94 % 1003,1 hPa 0,0 l/m 2,2 km/h (1 Bft) SO 131 0 min 0,000 mm 0,0 UV-I 0 W/m -2,5 C -1,7 C 4,8 km/h (1 Bft) 97,92 %
13.12.2017 23:38 -1,6 C 3,9 C 94 % 1003,2 hPa 0,0 l/m 1,8 km/h (1 Bft) SO 132 0 min 0,000 mm 0,0 UV-I 0 W/m -2,4 C -1,6 C 4,8 km/h (1 Bft) 100,00 %
13.12.2017 23:40 -1,6 C 3,9 C 93 % 1003,1 hPa 0,0 l/m 0,7 km/h (0 Bft) SO 131 0 min 0,000 mm 0,0 UV-I 0 W/m -2,6 C -1,6 C 3,2 km/h (1 Bft) 97,87 %
13.12.2017 23:42 -1,6 C 3,9 C 93 % 1003,0 hPa 0,0 l/m 0,0 km/h (0 Bft) SO 132 0 min 0,000 mm 0,0 UV-I 0 W/m -2,6 C -1,6 C 1,6 km/h (1 Bft) 100,00 %
13.12.2017 23:44 -1,6 C 3,9 C 93 % 1003,0 hPa 0,0 l/m 0,1 km/h (0 Bft) SO 131 0 min 0,000 mm 0,0 UV-I 0 W/m -2,6 C -1,6 C 1,6 km/h (1 Bft) 97,87 %
13.12.2017 23:46 -1,5 C 3,9 C 93 % 1002,9 hPa 0,0 l/m 0,6 km/h (0 Bft) SO 131 0 min 0,000 mm 0,0 UV-I 0 W/m -2,5 C -1,5 C 1,6 km/h (1 Bft) 97,87 %
13.12.2017 23:48 -1,5 C 3,9 C 93 % 1002,9 hPa 0,0 l/m 0,0 km/h (0 Bft) SO 131 0 min 0,000 mm 0,0 UV-I 0 W/m -2,5 C -1,5 C 1,6 km/h (1 Bft) 100,00 %
13.12.2017 23:50 -1,3 C 3,9 C 93 % 1002,8 hPa 0,0 l/m 2,4 km/h (1 Bft) SO 131 0 min 0,000 mm 0,0 UV-I 0 W/m -2,3 C -1,3 C 3,2 km/h (1 Bft) 96,15 %
13.12.2017 23:52 -1,3 C 3,9 C 93 % 1002,9 hPa 0,0 l/m 1,2 km/h (1 Bft) SO 131 0 min 0,000 mm 0,0 UV-I 0 W/m -2,3 C -1,3 C 3,2 km/h (1 Bft) 97,87 %
13.12.2017 23:54 -1,3 C 3,9 C 93 % 1002,8 hPa 0,0 l/m 1,0 km/h (0 Bft) SO 131 0 min 0,000 mm 0,0 UV-I 0 W/m -2,3 C -1,3 C 1,6 km/h (1 Bft) 100,00 %
13.12.2017 23:56 -1,3 C 3,9 C 93 % 1002,8 hPa 0,0 l/m 0,2 km/h (0 Bft) SO 131 0 min 0,000 mm 0,0 UV-I 0 W/m -2,3 C -1,3 C 1,6 km/h (1 Bft) 97,87 %
13.12.2017 23:58 -1,2 C 3,9 C 92 % 1002,8 hPa 0,0 l/m 0,0 km/h (0 Bft) SO 131 0 min 0,000 mm 0,0 UV-I 0 W/m -2,3 C -1,2 C 1,6 km/h (1 Bft) 97,30 %
_ Min-Zeit 23:14 00:00 14:36 23:50 - 17:32 - - - - - - 23:14 07:00 17:32 22:18
Minimum _ -1,9 C 3,9 C 62 % 1002,8 hPa - 0,0 km/h (0 Bft) - - - - - - -2,9 C -5,8 C 0,0 km/h (0 Bft) 89,36 %
_ Max-Zeit 14:18 00:00 19:02 07:50 00:00 07:14 - - 07:58 12:00 11:08 12:14 11:16 14:24 07:00 00:06
Maximum _ 4,4 C 3,9 C 94 % 1019,9 hPa 0,0 l/m 15,3 km/h
W-SW (3 Bft)
- - 2 min 0,127 mm 0,6 UV-I 385 W/m 0,6 C 4,4 C 20,9 km/h
W (4 Bft)
100,00 %
Durchschnitt _ 1,0 C 3,9 C 86 % 1014,4 hPa #0,0 l/m 5,1 km/h (1 Bft) NO - #7:30 h #0,711 mm 0,5 UV-I 188 W/m -1,1 C 0,4 C 7,9 km/h (2 Bft) 97,68 %